Wetterdaten: aktuell Mittwoch, 17.10.2018 15:57
Datum Zeit Temp. 2m Temp. 5cm Feuchte A. Luftdruck Regen Wind Richtung Richtung ET UV Solar Taupunkt Windchill Windben Empfang
17.10.2018 15:57 15,6 C 0,0 C 74 % 1019,1 hPa 0,0 l/m 2,5 km/h (1 Bft) O 94 0,000 mm 0,0 UV-I 49 W/m 11,0 C 15,6 C 4,8 km/h (1 Bft) 100,00 %
17.10.2018 15:56 15,7 C 0,0 C 74 % 1019,0 hPa 0,0 l/m 4,2 km/h (1 Bft) O 91 0,000 mm 0,0 UV-I 51 W/m 11,1 C 15,7 C 6,4 km/h (2 Bft) 100,00 %
17.10.2018 15:55 15,7 C 0,0 C 74 % 1019,1 hPa 0,0 l/m 1,5 km/h (1 Bft) O-NO 74 0,000 mm 0,0 UV-I 51 W/m 11,1 C 15,7 C 3,2 km/h (1 Bft) 100,00 %
17.10.2018 15:54 15,8 C 0,0 C 74 % 1019,1 hPa 0,0 l/m 3,5 km/h (1 Bft) O-NO 74 0,000 mm 0,0 UV-I 51 W/m 11,2 C 15,8 C 6,4 km/h (2 Bft) 100,00 %
17.10.2018 15:53 15,9 C 0,0 C 74 % 1019,2 hPa 0,0 l/m 4,3 km/h (1 Bft) O-NO 72 0,000 mm 0,0 UV-I 51 W/m 11,3 C 15,9 C 9,7 km/h (2 Bft) 100,00 %
17.10.2018 15:52 15,9 C 0,0 C 74 % 1019,2 hPa 0,0 l/m 3,5 km/h (1 Bft) O-NO 70 0,000 mm 0,5 UV-I 56 W/m 11,3 C 15,9 C 6,4 km/h (2 Bft) 100,00 %
17.10.2018 15:51 16,0 C 0,0 C 73 % 1019,1 hPa 0,0 l/m 2,2 km/h (1 Bft) O 91 0,000 mm 0,5 UV-I 72 W/m 11,2 C 16,0 C 4,8 km/h (1 Bft) 100,00 %
17.10.2018 15:50 16,0 C 0,0 C 73 % 1019,1 hPa 0,0 l/m 2,0 km/h (1 Bft) O-NO 62 0,000 mm 0,6 UV-I 104 W/m 11,2 C 16,0 C 3,2 km/h (1 Bft) 100,00 %
17.10.2018 15:49 16,0 C 0,0 C 74 % 1019,2 hPa 0,0 l/m 4,8 km/h (1 Bft) O-NO 62 0,000 mm 0,7 UV-I 169 W/m 11,4 C 16,0 C 6,4 km/h (2 Bft) 100,00 %
17.10.2018 15:48 15,9 C 0,0 C 74 % 1019,2 hPa 0,0 l/m 5,1 km/h (1 Bft) O-NO 72 0,000 mm 0,7 UV-I 251 W/m 11,3 C 15,9 C 6,4 km/h (2 Bft) 100,00 %
17.10.2018 15:47 15,9 C 0,0 C 74 % 1019,1 hPa 0,0 l/m 5,3 km/h (1 Bft) NO 47 0,000 mm 0,7 UV-I 308 W/m 11,3 C 15,9 C 6,4 km/h (2 Bft) 95,65 %
17.10.2018 15:46 15,8 C 0,0 C 75 % 1019,1 hPa 0,0 l/m 1,4 km/h (1 Bft) O 93 0,000 mm 0,7 UV-I 311 W/m 11,4 C 15,8 C 3,2 km/h (1 Bft) 100,00 %
17.10.2018 15:45 15,8 C 0,0 C 74 % 1019,1 hPa 0,0 l/m 3,1 km/h (1 Bft) O 93 0,000 mm 0,8 UV-I 313 W/m 11,2 C 15,8 C 4,8 km/h (1 Bft) 100,00 %
17.10.2018 15:44 15,9 C 0,0 C 74 % 1019,1 hPa 0,0 l/m 6,0 km/h (2 Bft) O 94 0,000 mm 0,8 UV-I 313 W/m 11,3 C 15,9 C 11,3 km/h (2 Bft) 100,00 %
17.10.2018 15:43 16,0 C 0,0 C 75 % 1019,1 hPa 0,0 l/m 6,6 km/h (2 Bft) O-SO 105 0,000 mm 0,8 UV-I 316 W/m 11,6 C 15,9 C 9,7 km/h (2 Bft) 100,00 %
17.10.2018 15:42 16,1 C 0,0 C 75 % 1019,2 hPa 0,0 l/m 3,3 km/h (1 Bft) O 87 0,000 mm 0,8 UV-I 315 W/m 11,7 C 16,1 C 4,8 km/h (1 Bft) 100,00 %
17.10.2018 15:41 16,1 C 0,0 C 73 % 1019,2 hPa 0,0 l/m 4,7 km/h (1 Bft) O-NO 74 0,000 mm 0,8 UV-I 320 W/m 11,3 C 16,1 C 6,4 km/h (2 Bft) 95,65 %
17.10.2018 15:40 16,1 C 0,0 C 73 % 1019,2 hPa 0,0 l/m 5,8 km/h (2 Bft) O-NO 70 0,000 mm 0,8 UV-I 309 W/m 11,3 C 16,1 C 9,7 km/h (2 Bft) 97,56 %
17.10.2018 15:39 16,1 C 0,0 C 73 % 1019,3 hPa 0,0 l/m 4,4 km/h (1 Bft) O-NO 57 0,000 mm 0,8 UV-I 316 W/m 11,3 C 16,1 C 9,7 km/h (2 Bft) 97,87 %
17.10.2018 15:38 16,2 C 0,0 C 75 % 1019,2 hPa 0,0 l/m 3,8 km/h (1 Bft) O 82 0,000 mm 0,8 UV-I 323 W/m 11,8 C 16,2 C 6,4 km/h (2 Bft) 100,00 %
17.10.2018 15:37 16,3 C 0,0 C 73 % 1019,3 hPa 0,0 l/m 4,2 km/h (1 Bft) O 98 0,000 mm 0,8 UV-I 330 W/m 11,4 C 16,3 C 6,4 km/h (2 Bft) 100,00 %
17.10.2018 15:36 16,3 C 0,0 C 72 % 1019,2 hPa 0,0 l/m 4,2 km/h (1 Bft) O 93 0,000 mm 0,8 UV-I 332 W/m 11,2 C 16,3 C 6,4 km/h (2 Bft) 100,00 %
17.10.2018 15:35 16,4 C 0,0 C 73 % 1019,2 hPa 0,0 l/m 5,4 km/h (1 Bft) O-NO 64 0,000 mm 0,8 UV-I 332 W/m 11,5 C 16,4 C 9,7 km/h (2 Bft) 95,65 %
17.10.2018 15:34 16,4 C 0,0 C 73 % 1019,3 hPa 0,0 l/m 5,1 km/h (1 Bft) O-NO 64 0,000 mm 0,9 UV-I 334 W/m 11,5 C 16,4 C 9,7 km/h (2 Bft) 100,00 %
17.10.2018 15:33 16,4 C 0,0 C 72 % 1019,3 hPa 0,0 l/m 5,0 km/h (1 Bft) O-NO 68 0,000 mm 0,9 UV-I 338 W/m 11,3 C 16,4 C 6,4 km/h (2 Bft) 100,00 %
17.10.2018 15:32 16,4 C 0,0 C 72 % 1019,2 hPa 0,0 l/m 6,2 km/h (2 Bft) O-NO 75 0,000 mm 0,9 UV-I 341 W/m 11,3 C 16,4 C 9,7 km/h (2 Bft) 100,00 %
17.10.2018 15:31 16,6 C 0,0 C 72 % 1019,3 hPa 0,0 l/m 6,1 km/h (2 Bft) O-NO 75 0,000 mm 0,9 UV-I 343 W/m 11,5 C 16,6 C 9,7 km/h (2 Bft) 88,00 %
17.10.2018 15:30 16,6 C 0,0 C 74 % 1019,3 hPa 0,0 l/m 4,7 km/h (1 Bft) NO 49 0,000 mm 0,9 UV-I 343 W/m 11,9 C 16,6 C 8,0 km/h (2 Bft) 100,00 %
17.10.2018 15:29 16,6 C 0,0 C 74 % 1019,2 hPa 0,0 l/m 5,5 km/h (1 Bft) O 90 0,000 mm 0,9 UV-I 343 W/m 11,9 C 16,6 C 8,0 km/h (2 Bft) 100,00 %
17.10.2018 15:28 16,6 C 0,0 C 77 % 1019,3 hPa 0,0 l/m 4,7 km/h (1 Bft) O-NO 65 0,000 mm 0,9 UV-I 346 W/m 12,5 C 16,6 C 9,7 km/h (2 Bft) 96,15 %
17.10.2018 15:27 16,4 C 0,0 C 74 % 1019,3 hPa 0,0 l/m 3,8 km/h (1 Bft) O 80 0,000 mm 0,9 UV-I 350 W/m 11,8 C 16,4 C 4,8 km/h (1 Bft) 100,00 %
17.10.2018 15:26 16,4 C 0,0 C 74 % 1019,3 hPa 0,0 l/m 3,6 km/h (1 Bft) O-NO 71 0,000 mm 0,9 UV-I 350 W/m 11,8 C 16,4 C 6,4 km/h (2 Bft) 86,96 %
17.10.2018 15:25 16,4 C 0,0 C 76 % 1019,3 hPa 0,0 l/m 3,2 km/h (1 Bft) O 96 0,000 mm 0,9 UV-I 352 W/m 12,2 C 16,4 C 4,8 km/h (1 Bft) 100,00 %
17.10.2018 15:24 16,4 C 0,0 C 75 % 1019,2 hPa 0,0 l/m 4,5 km/h (1 Bft) O 90 0,000 mm 1,0 UV-I 357 W/m 12,0 C 16,4 C 8,0 km/h (2 Bft) 100,00 %
17.10.2018 15:23 16,4 C 0,0 C 76 % 1019,2 hPa 0,0 l/m 7,7 km/h (2 Bft) O 94 0,000 mm 1,0 UV-I 359 W/m 12,2 C 15,7 C 11,3 km/h (2 Bft) 100,00 %
17.10.2018 15:22 16,5 C 0,0 C 74 % 1019,2 hPa 0,0 l/m 4,6 km/h (1 Bft) O-SO 104 0,000 mm 1,0 UV-I 362 W/m 11,8 C 16,5 C 8,0 km/h (2 Bft) 96,77 %
17.10.2018 15:19 16,8 C 0,0 C 75 % 1019,4 hPa 0,0 l/m 5,7 km/h (1 Bft) O 97 0,000 mm 1,0 UV-I 367 W/m 12,3 C 16,8 C 11,3 km/h (2 Bft) 100,00 %
17.10.2018 15:18 16,8 C 0,0 C 75 % 1019,3 hPa 0,0 l/m 5,7 km/h (1 Bft) O 98 0,000 mm 1,0 UV-I 371 W/m 12,3 C 16,8 C 11,3 km/h (2 Bft) 100,00 %
17.10.2018 15:17 16,9 C 0,0 C 74 % 1019,3 hPa 0,0 l/m 4,8 km/h (1 Bft) O-SO 110 0,000 mm 1,0 UV-I 373 W/m 12,2 C 16,9 C 6,4 km/h (2 Bft) 100,00 %
17.10.2018 15:16 17,0 C 0,0 C 75 % 1019,3 hPa 0,0 l/m 7,7 km/h (2 Bft) O 87 0,000 mm 1,0 UV-I 374 W/m 12,5 C 16,3 C 11,3 km/h (2 Bft) 100,00 %
17.10.2018 15:15 17,1 C 0,0 C 74 % 1019,3 hPa 0,0 l/m 4,9 km/h (1 Bft) O-SO 103 0,000 mm 1,0 UV-I 376 W/m 12,4 C 17,1 C 6,4 km/h (2 Bft) 100,00 %
17.10.2018 15:14 17,1 C 0,0 C 74 % 1019,4 hPa 0,0 l/m 4,3 km/h (1 Bft) O 95 0,000 mm 1,1 UV-I 378 W/m 12,4 C 17,1 C 6,4 km/h (2 Bft) 100,00 %
17.10.2018 15:13 17,1 C 0,0 C 73 % 1019,3 hPa 0,0 l/m 2,1 km/h (1 Bft) O-SO 104 0,000 mm 1,1 UV-I 378 W/m 12,2 C 17,1 C 3,2 km/h (1 Bft) 95,83 %
17.10.2018 15:12 17,0 C 0,0 C 73 % 1019,3 hPa 0,0 l/m 1,9 km/h (1 Bft) O 98 0,000 mm 1,1 UV-I 387 W/m 12,1 C 17,0 C 4,8 km/h (1 Bft) 86,96 %
17.10.2018 15:11 16,9 C 0,0 C 74 % 1019,4 hPa 0,0 l/m 4,6 km/h (1 Bft) O 95 0,000 mm 1,1 UV-I 387 W/m 12,2 C 16,9 C 8,0 km/h (2 Bft) 95,65 %
17.10.2018 15:10 16,8 C 0,0 C 72 % 1019,3 hPa 0,0 l/m 2,7 km/h (1 Bft) O 96 0,000 mm 1,1 UV-I 390 W/m 11,7 C 16,8 C 6,4 km/h (2 Bft) 95,83 %
17.10.2018 15:09 16,8 C 0,0 C 71 % 1019,3 hPa 0,0 l/m 2,5 km/h (1 Bft) O-SO 112 0,000 mm 1,1 UV-I 392 W/m 11,5 C 16,8 C 6,4 km/h (2 Bft) 95,65 %
17.10.2018 15:08 17,0 C 0,0 C 71 % 1019,4 hPa 0,0 l/m 5,2 km/h (1 Bft) O-SO 112 0,000 mm 1,1 UV-I 394 W/m 11,7 C 17,0 C 6,4 km/h (2 Bft) 100,00 %
17.10.2018 15:07 17,2 C 0,0 C 71 % 1019,3 hPa 0,0 l/m 5,0 km/h (1 Bft) O-SO 106 0,000 mm 1,1 UV-I 396 W/m 11,9 C 17,2 C 6,4 km/h (2 Bft) 100,00 %
17.10.2018 15:06 17,3 C 0,0 C 73 % 1019,4 hPa 0,0 l/m 3,5 km/h (1 Bft) O 99 0,000 mm 1,1 UV-I 397 W/m 12,4 C 17,3 C 6,4 km/h (2 Bft) 100,00 %
17.10.2018 15:05 17,3 C 0,0 C 73 % 1019,4 hPa 0,0 l/m 4,2 km/h (1 Bft) O 96 0,000 mm 1,2 UV-I 399 W/m 12,4 C 17,3 C 6,4 km/h (2 Bft) 100,00 %
17.10.2018 15:04 17,4 C 0,0 C 72 % 1019,3 hPa 0,0 l/m 2,3 km/h (1 Bft) O 97 0,000 mm 1,2 UV-I 401 W/m 12,3 C 17,4 C 4,8 km/h (1 Bft) 91,67 %
17.10.2018 15:03 17,4 C 0,0 C 73 % 1019,3 hPa 0,0 l/m 3,7 km/h (1 Bft) O 90 0,000 mm 1,2 UV-I 403 W/m 12,5 C 17,4 C 6,4 km/h (2 Bft) 96,55 %
17.10.2018 15:02 17,4 C 0,0 C 71 % 1019,4 hPa 0,0 l/m 3,8 km/h (1 Bft) O-NO 72 0,000 mm 1,2 UV-I 404 W/m 12,1 C 17,4 C 8,0 km/h (2 Bft) 79,17 %
17.10.2018 15:01 17,4 C 0,0 C 72 % 1019,4 hPa 0,0 l/m 3,1 km/h (1 Bft) O 95 0,000 mm 1,2 UV-I 410 W/m 12,3 C 17,4 C 4,8 km/h (1 Bft) 78,26 %
17.10.2018 15:00 17,3 C 0,0 C 73 % 1019,4 hPa 0,0 l/m 3,8 km/h (1 Bft) O-NO 76 0,279 mm 1,2 UV-I 410 W/m 12,4 C 17,3 C 6,4 km/h (2 Bft) 83,33 %
17.10.2018 14:59 17,3 C 0,0 C 71 % 1019,4 hPa 0,0 l/m 7,4 km/h (2 Bft) O-NO 66 0,000 mm 1,2 UV-I 411 W/m 12,0 C 16,8 C 9,7 km/h (2 Bft) 82,61 %
17.10.2018 14:58 17,3 C 0,0 C 72 % 1019,4 hPa 0,0 l/m 2,7 km/h (1 Bft) N-NO 32 0,000 mm 1,2 UV-I 415 W/m 12,2 C 17,3 C 6,4 km/h (2 Bft) 79,17 %
17.10.2018 14:57 17,2 C 0,0 C 71 % 1019,4 hPa 0,0 l/m 2,2 km/h (1 Bft) O 86 0,000 mm 1,2 UV-I 417 W/m 11,9 C 17,2 C 4,8 km/h (1 Bft) 91,30 %
17.10.2018 14:56 17,3 C 0,0 C 69 % 1019,4 hPa 0,0 l/m 4,6 km/h (1 Bft) O 96 0,000 mm 1,2 UV-I 417 W/m 11,6 C 17,3 C 6,4 km/h (2 Bft) 81,69 %
17.10.2018 14:53 17,4 C 0,0 C 73 % 1019,4 hPa 0,0 l/m 6,3 km/h (2 Bft) O-NO 68 0,000 mm 1,3 UV-I 422 W/m 12,5 C 17,4 C 9,7 km/h (2 Bft) 92,31 %
17.10.2018 14:52 17,3 C 0,0 C 73 % 1019,3 hPa 0,0 l/m 2,8 km/h (1 Bft) O 80 0,000 mm 1,3 UV-I 422 W/m 12,4 C 17,3 C 6,4 km/h (2 Bft) 92,59 %
17.10.2018 14:51 17,2 C 0,0 C 72 % 1019,4 hPa 0,0 l/m 5,6 km/h (1 Bft) O 82 0,000 mm 1,3 UV-I 424 W/m 12,1 C 17,2 C 9,7 km/h (2 Bft) 91,67 %
17.10.2018 14:50 17,2 C 0,0 C 71 % 1019,4 hPa 0,0 l/m 4,5 km/h (1 Bft) O-NO 73 0,000 mm 1,3 UV-I 425 W/m 11,9 C 17,2 C 6,4 km/h (2 Bft) 96,30 %
17.10.2018 14:49 17,2 C 0,0 C 72 % 1019,4 hPa 0,0 l/m 6,1 km/h (2 Bft) O-NO 72 0,000 mm 1,3 UV-I 431 W/m 12,1 C 17,2 C 9,7 km/h (2 Bft) 88,46 %
17.10.2018 14:48 17,2 C 0,0 C 72 % 1019,4 hPa 0,0 l/m 4,7 km/h (1 Bft) O-NO 64 0,000 mm 1,3 UV-I 432 W/m 12,1 C 17,2 C 9,7 km/h (2 Bft) 80,00 %
17.10.2018 14:47 17,2 C 0,0 C 72 % 1019,4 hPa 0,0 l/m 1,9 km/h (1 Bft) O-NO 69 0,000 mm 1,3 UV-I 432 W/m 12,1 C 17,2 C 3,2 km/h (1 Bft) 86,21 %
17.10.2018 14:46 17,2 C 0,0 C 72 % 1019,4 hPa 0,0 l/m 4,6 km/h (1 Bft) O-NO 59 0,000 mm 1,3 UV-I 432 W/m 12,1 C 17,2 C 11,3 km/h (2 Bft) 86,96 %
17.10.2018 14:45 17,1 C 0,0 C 71 % 1019,5 hPa 0,0 l/m 6,9 km/h (2 Bft) O-NO 64 0,000 mm 1,3 UV-I 434 W/m 11,8 C 16,9 C 11,3 km/h (2 Bft) 83,33 %
17.10.2018 14:44 17,1 C 0,0 C 71 % 1019,5 hPa 0,0 l/m 2,5 km/h (1 Bft) O-NO 63 0,000 mm 1,3 UV-I 439 W/m 11,8 C 17,1 C 6,4 km/h (2 Bft) 58,33 %
17.10.2018 14:43 17,1 C 0,0 C 71 % 1019,5 hPa 0,0 l/m 1,5 km/h (1 Bft) O-NO 68 0,000 mm 1,3 UV-I 439 W/m 11,8 C 17,1 C 3,2 km/h (1 Bft) 83,33 %
17.10.2018 14:42 17,0 C 0,0 C 71 % 1019,4 hPa 0,0 l/m 4,4 km/h (1 Bft) O-NO 62 0,000 mm 1,4 UV-I 441 W/m 11,7 C 17,0 C 6,4 km/h (2 Bft) 100,00 %
17.10.2018 14:41 17,2 C 0,0 C 70 % 1019,5 hPa 0,0 l/m 7,5 km/h (2 Bft) O-NO 64 0,000 mm 1,4 UV-I 441 W/m 11,7 C 16,7 C 9,7 km/h (2 Bft) 82,05 %
17.10.2018 14:40 17,3 C 0,0 C 70 % 1019,5 hPa 0,0 l/m 7,0 km/h (2 Bft) O-NO 62 0,000 mm 1,4 UV-I 441 W/m 11,8 C 17,0 C 11,3 km/h (2 Bft) 90,91 %
17.10.2018 14:39 17,3 C 0,0 C 72 % 1019,5 hPa 0,0 l/m 6,6 km/h (2 Bft) O-NO 72 0,000 mm 1,4 UV-I 445 W/m 12,2 C 17,2 C 11,3 km/h (2 Bft) 83,33 %
17.10.2018 14:38 17,3 C 0,0 C 71 % 1019,5 hPa 0,0 l/m 6,2 km/h (2 Bft) O 80 0,000 mm 1,4 UV-I 448 W/m 12,0 C 17,3 C 11,3 km/h (2 Bft) 86,96 %
17.10.2018 14:37 17,3 C 0,0 C 73 % 1019,5 hPa 0,0 l/m 5,9 km/h (2 Bft) O 86 0,000 mm 1,4 UV-I 448 W/m 12,4 C 17,3 C 9,7 km/h (2 Bft) 95,83 %
17.10.2018 14:36 17,3 C 0,0 C 75 % 1019,5 hPa 0,0 l/m 9,2 km/h (2 Bft) O 80 0,000 mm 1,4 UV-I 452 W/m 12,8 C 16,0 C 12,9 km/h (3 Bft) 92,31 %
17.10.2018 14:35 17,3 C 0,0 C 76 % 1019,5 hPa 0,0 l/m 6,7 km/h (2 Bft) O-NO 69 0,000 mm 1,4 UV-I 452 W/m 13,0 C 17,2 C 11,3 km/h (2 Bft) 100,00 %
17.10.2018 14:34 17,1 C 0,0 C 71 % 1019,5 hPa 0,0 l/m 5,2 km/h (1 Bft) O 82 0,000 mm 1,4 UV-I 452 W/m 11,8 C 17,1 C 8,0 km/h (2 Bft) 95,65 %
17.10.2018 14:33 17,2 C 0,0 C 73 % 1019,5 hPa 0,0 l/m 6,9 km/h (2 Bft) O-NO 68 0,000 mm 1,4 UV-I 455 W/m 12,3 C 17,0 C 11,3 km/h (2 Bft) 100,00 %
17.10.2018 14:32 17,0 C 0,0 C 73 % 1019,5 hPa 0,0 l/m 5,7 km/h (1 Bft) O-NO 69 0,000 mm 1,4 UV-I 455 W/m 12,1 C 17,0 C 9,7 km/h (2 Bft) 95,65 %
17.10.2018 14:31 16,9 C 0,0 C 73 % 1019,5 hPa 0,0 l/m 5,7 km/h (1 Bft) O-NO 70 0,000 mm 1,5 UV-I 455 W/m 12,0 C 16,9 C 9,7 km/h (2 Bft) 96,67 %
17.10.2018 14:30 16,9 C 0,0 C 72 % 1019,5 hPa 0,0 l/m 0,6 km/h (0 Bft) O-SO 105 0,000 mm 1,5 UV-I 459 W/m 11,8 C 16,9 C 3,2 km/h (1 Bft) 96,15 %
17.10.2018 14:29 17,1 C 0,0 C 72 % 1019,5 hPa 0,0 l/m 1,9 km/h (1 Bft) O-NO 60 0,000 mm 1,5 UV-I 461 W/m 12,0 C 17,1 C 4,8 km/h (1 Bft) 100,00 %
17.10.2018 14:28 17,0 C 0,0 C 71 % 1019,6 hPa 0,0 l/m 6,3 km/h (2 Bft) NO 53 0,000 mm 1,5 UV-I 464 W/m 11,7 C 17,0 C 11,3 km/h (2 Bft) 96,15 %
17.10.2018 14:27 17,1 C 0,0 C 71 % 1019,5 hPa 0,0 l/m 5,5 km/h (1 Bft) O 82 0,000 mm 1,5 UV-I 462 W/m 11,8 C 17,1 C 9,7 km/h (2 Bft) 95,12 %
17.10.2018 14:26 17,2 C 0,0 C 72 % 1019,5 hPa 0,0 l/m 5,1 km/h (1 Bft) O 79 0,000 mm 1,5 UV-I 466 W/m 12,1 C 17,2 C 9,7 km/h (2 Bft) 100,00 %
17.10.2018 14:25 17,2 C 0,0 C 73 % 1019,5 hPa 0,0 l/m 3,3 km/h (1 Bft) O 85 0,000 mm 1,5 UV-I 469 W/m 12,3 C 17,2 C 6,4 km/h (2 Bft) 95,65 %
17.10.2018 14:24 17,2 C 0,0 C 71 % 1019,5 hPa 0,0 l/m 5,9 km/h (2 Bft) NO 43 0,000 mm 1,5 UV-I 469 W/m 11,9 C 17,2 C 9,7 km/h (2 Bft) 96,30 %
17.10.2018 14:23 17,3 C 0,0 C 72 % 1019,6 hPa 0,0 l/m 1,9 km/h (1 Bft) O 81 0,000 mm 1,5 UV-I 471 W/m 12,2 C 17,3 C 6,4 km/h (2 Bft) 91,67 %
17.10.2018 14:22 17,4 C 0,0 C 73 % 1019,6 hPa 0,0 l/m 5,8 km/h (2 Bft) O 81 0,000 mm 1,5 UV-I 469 W/m 12,5 C 17,4 C 11,3 km/h (2 Bft) 100,00 %
17.10.2018 14:21 17,4 C 0,0 C 74 % 1019,5 hPa 0,0 l/m 0,7 km/h (0 Bft) O 91 0,000 mm 1,5 UV-I 471 W/m 12,7 C 17,4 C 1,6 km/h (1 Bft) 95,83 %
17.10.2018 14:20 17,3 C 0,0 C 73 % 1019,5 hPa 0,0 l/m 0,6 km/h (0 Bft) O 84 0,000 mm 1,6 UV-I 476 W/m 12,4 C 17,3 C 3,2 km/h (1 Bft) 96,15 %
17.10.2018 14:19 17,3 C 0,0 C 73 % 1019,6 hPa 0,0 l/m 2,8 km/h (1 Bft) O 84 0,000 mm 1,6 UV-I 473 W/m 12,4 C 17,3 C 4,8 km/h (1 Bft) 96,15 %
17.10.2018 14:18 17,2 C 0,0 C 75 % 1019,5 hPa 0,0 l/m 4,1 km/h (1 Bft) O 89 0,000 mm 1,6 UV-I 473 W/m 12,7 C 17,2 C 9,7 km/h (2 Bft) 91,67 %
17.10.2018 14:17 17,0 C 0,0 C 74 % 1019,5 hPa 0,0 l/m 1,5 km/h (1 Bft) O-NO 67 0,000 mm 1,6 UV-I 476 W/m 12,3 C 17,0 C 4,8 km/h (1 Bft) 84,62 %
17.10.2018 14:16 17,0 C 0,0 C 72 % 1019,6 hPa 0,0 l/m 6,0 km/h (2 Bft) NO 56 0,000 mm 1,6 UV-I 480 W/m 11,9 C 17,0 C 11,3 km/h (2 Bft) 88,89 %
17.10.2018 14:15 17,0 C 0,0 C 76 % 1019,5 hPa 0,0 l/m 9,2 km/h (2 Bft) O-NO 62 0,000 mm 1,6 UV-I 482 W/m 12,7 C 15,7 C 14,5 km/h (3 Bft) 85,71 %
17.10.2018 14:14 16,7 C 0,0 C 76 % 1019,6 hPa 0,0 l/m 3,8 km/h (1 Bft) NO 54 0,000 mm 1,6 UV-I 483 W/m 12,4 C 16,7 C 9,7 km/h (2 Bft) 85,19 %
17.10.2018 14:13 16,6 C 0,0 C 75 % 1019,6 hPa 0,0 l/m 6,2 km/h (2 Bft) O-NO 78 0,000 mm 1,6 UV-I 485 W/m 12,1 C 16,6 C 11,3 km/h (2 Bft) 91,67 %
17.10.2018 14:12 16,6 C 0,0 C 73 % 1019,5 hPa 0,0 l/m 4,5 km/h (1 Bft) O 84 0,000 mm 1,6 UV-I 487 W/m 11,7 C 16,6 C 9,7 km/h (2 Bft) 95,83 %
17.10.2018 14:11 16,8 C 0,0 C 74 % 1019,6 hPa 0,0 l/m 6,1 km/h (2 Bft) O 91 0,000 mm 1,6 UV-I 489 W/m 12,1 C 16,8 C 11,3 km/h (2 Bft) 100,00 %
17.10.2018 14:10 16,9 C 0,0 C 72 % 1019,6 hPa 0,0 l/m 7,8 km/h (2 Bft) O 93 0,000 mm 1,6 UV-I 489 W/m 11,8 C 16,2 C 9,7 km/h (2 Bft) 100,00 %
17.10.2018 14:09 17,1 C 0,0 C 73 % 1019,6 hPa 0,0 l/m 7,1 km/h (2 Bft) O-SO 112 0,000 mm 1,6 UV-I 490 W/m 12,2 C 16,7 C 11,3 km/h (2 Bft) 94,12 %
17.10.2018 14:08 17,2 C 0,0 C 73 % 1019,6 hPa 0,0 l/m 2,4 km/h (1 Bft) O 95 0,000 mm 1,6 UV-I 487 W/m 12,3 C 17,2 C 3,2 km/h (1 Bft) 98,61 %
17.10.2018 14:05 17,1 C 0,0 C 75 % 1019,7 hPa 0,0 l/m 3,6 km/h (1 Bft) O 86 0,000 mm 1,7 UV-I 494 W/m 12,6 C 17,1 C 8,0 km/h (2 Bft) 100,00 %
17.10.2018 14:04 17,2 C 0,0 C 76 % 1019,7 hPa 0,0 l/m 5,4 km/h (1 Bft) O 97 0,000 mm 1,7 UV-I 492 W/m 12,9 C 17,2 C 8,0 km/h (2 Bft) 100,00 %
17.10.2018 14:03 17,1 C 0,0 C 75 % 1019,7 hPa 0,0 l/m 5,4 km/h (1 Bft) O-SO 105 0,000 mm 1,7 UV-I 492 W/m 12,6 C 17,1 C 9,7 km/h (2 Bft) 100,00 %
17.10.2018 14:02 16,8 C 0,0 C 74 % 1019,7 hPa 0,0 l/m 5,0 km/h (1 Bft) O-NO 76 0,000 mm 1,7 UV-I 497 W/m 12,1 C 16,8 C 8,0 km/h (2 Bft) 95,83 %
17.10.2018 14:01 16,7 C 0,0 C 74 % 1019,7 hPa 0,0 l/m 1,7 km/h (1 Bft) SO 127 0,305 mm 1,7 UV-I 499 W/m 12,0 C 16,7 C 3,2 km/h (1 Bft) 100,00 %
17.10.2018 14:00 16,7 C 0,0 C 72 % 1019,7 hPa 0,0 l/m 3,1 km/h (1 Bft) O-NO 60 0,000 mm 1,7 UV-I 497 W/m 11,6 C 16,7 C 6,4 km/h (2 Bft) 94,44 %
17.10.2018 13:59 16,7 C 0,0 C 73 % 1019,7 hPa 0,0 l/m 2,1 km/h (1 Bft) NO 56 0,000 mm 1,7 UV-I 499 W/m 11,8 C 16,7 C 4,8 km/h (1 Bft) 100,00 %
17.10.2018 13:58 16,8 C 0,0 C 73 % 1019,7 hPa 0,0 l/m 7,0 km/h (2 Bft) O-NO 64 0,000 mm 1,7 UV-I 499 W/m 11,9 C 16,5 C 11,3 km/h (2 Bft) 91,67 %
17.10.2018 13:57 16,8 C 0,0 C 74 % 1019,7 hPa 0,0 l/m 4,3 km/h (1 Bft) O 91 0,000 mm 1,7 UV-I 501 W/m 12,1 C 16,8 C 8,0 km/h (2 Bft) 95,83 %
17.10.2018 13:56 16,8 C 0,0 C 76 % 1019,7 hPa 0,0 l/m 6,4 km/h (2 Bft) O 91 0,000 mm 1,7 UV-I 506 W/m 12,5 C 16,8 C 9,7 km/h (2 Bft) 96,15 %
17.10.2018 13:55 16,6 C 0,0 C 73 % 1019,7 hPa 0,0 l/m 5,8 km/h (2 Bft) O-NO 59 0,000 mm 1,7 UV-I 506 W/m 11,7 C 16,6 C 8,0 km/h (2 Bft) 100,00 %
17.10.2018 13:54 16,8 C 0,0 C 73 % 1019,7 hPa 0,0 l/m 6,7 km/h (2 Bft) NO 47 0,000 mm 1,7 UV-I 504 W/m 11,9 C 16,7 C 9,7 km/h (2 Bft) 88,46 %
17.10.2018 13:53 16,8 C 0,0 C 73 % 1019,7 hPa 0,0 l/m 4,3 km/h (1 Bft) O-NO 61 0,000 mm 1,8 UV-I 506 W/m 11,9 C 16,8 C 9,7 km/h (2 Bft) 100,00 %
17.10.2018 13:52 16,9 C 0,0 C 73 % 1019,8 hPa 0,0 l/m 3,0 km/h (1 Bft) O-NO 73 0,000 mm 1,8 UV-I 508 W/m 12,0 C 16,9 C 6,4 km/h (2 Bft) 100,00 %
17.10.2018 13:51 16,9 C 0,0 C 74 % 1019,8 hPa 0,0 l/m 5,8 km/h (2 Bft) O 100 0,000 mm 1,8 UV-I 508 W/m 12,2 C 16,9 C 8,0 km/h (2 Bft) 100,00 %
17.10.2018 13:50 16,8 C 0,0 C 73 % 1019,8 hPa 0,0 l/m 3,9 km/h (1 Bft) O-NO 78 0,000 mm 1,8 UV-I 512 W/m 11,9 C 16,8 C 8,0 km/h (2 Bft) 96,15 %
17.10.2018 13:49 16,8 C 0,0 C 75 % 1019,8 hPa 0,0 l/m 3,6 km/h (1 Bft) O 88 0,000 mm 1,8 UV-I 508 W/m 12,3 C 16,8 C 6,4 km/h (2 Bft) 100,00 %
17.10.2018 13:48 16,8 C 0,0 C 76 % 1019,8 hPa 0,0 l/m 4,5 km/h (1 Bft) O 92 0,000 mm 1,8 UV-I 512 W/m 12,5 C 16,8 C 6,4 km/h (2 Bft) 100,00 %
17.10.2018 13:47 16,6 C 0,0 C 72 % 1019,8 hPa 0,0 l/m 5,1 km/h (1 Bft) O 92 0,000 mm 1,8 UV-I 512 W/m 11,5 C 16,6 C 8,0 km/h (2 Bft) 96,30 %
17.10.2018 13:46 16,7 C 0,0 C 73 % 1019,8 hPa 0,0 l/m 5,1 km/h (1 Bft) NO 41 0,000 mm 1,8 UV-I 513 W/m 11,8 C 16,7 C 11,3 km/h (2 Bft) 100,00 %
17.10.2018 13:45 16,7 C 0,0 C 72 % 1019,8 hPa 0,0 l/m 5,0 km/h (1 Bft) NO 51 0,000 mm 1,8 UV-I 515 W/m 11,6 C 16,7 C 6,4 km/h (2 Bft) 100,00 %
17.10.2018 13:44 16,8 C 0,0 C 73 % 1019,8 hPa 0,0 l/m 5,6 km/h (1 Bft) NO 41 0,000 mm 1,8 UV-I 515 W/m 11,9 C 16,8 C 9,7 km/h (2 Bft) 93,10 %
17.10.2018 13:43 16,8 C 0,0 C 75 % 1019,8 hPa 0,0 l/m 9,2 km/h (2 Bft) O 99 0,000 mm 1,8 UV-I 517 W/m 12,3 C 15,4 C 12,9 km/h (3 Bft) 100,00 %
17.10.2018 13:42 16,9 C 0,0 C 74 % 1019,8 hPa 0,0 l/m 7,4 km/h (2 Bft) NO 50 0,000 mm 1,8 UV-I 519 W/m 12,2 C 16,4 C 12,9 km/h (3 Bft) 100,00 %
17.10.2018 13:41 16,9 C 0,0 C 73 % 1019,8 hPa 0,0 l/m 5,9 km/h (2 Bft) O 100 0,000 mm 1,8 UV-I 519 W/m 12,0 C 16,9 C 12,9 km/h (3 Bft) 100,00 %
17.10.2018 13:40 16,8 C 0,0 C 78 % 1019,8 hPa 0,0 l/m 2,8 km/h (1 Bft) O 93 0,000 mm 1,8 UV-I 520 W/m 12,9 C 16,8 C 4,8 km/h (1 Bft) 95,65 %
17.10.2018 13:39 16,6 C 0,0 C 73 % 1019,8 hPa 0,0 l/m 7,4 km/h (2 Bft) O-NO 78 0,000 mm 1,8 UV-I 522 W/m 11,7 C 16,1 C 11,3 km/h (2 Bft) 100,00 %
17.10.2018 13:38 16,7 C 0,0 C 75 % 1019,8 hPa 0,0 l/m 7,0 km/h (2 Bft) O-SO 105 0,000 mm 1,8 UV-I 520 W/m 12,2 C 16,4 C 12,9 km/h (3 Bft) 100,00 %
17.10.2018 13:37 16,7 C 0,0 C 73 % 1019,9 hPa 0,0 l/m 3,5 km/h (1 Bft) O 91 0,000 mm 1,8 UV-I 520 W/m 11,8 C 16,7 C 9,7 km/h (2 Bft) 100,00 %
17.10.2018 13:36 16,7 C 0,0 C 75 % 1019,9 hPa 0,0 l/m 3,1 km/h (1 Bft) O-NO 67 0,000 mm 1,8 UV-I 520 W/m 12,2 C 16,7 C 6,4 km/h (2 Bft) 100,00 %
17.10.2018 13:35 16,6 C 0,0 C 74 % 1019,9 hPa 0,0 l/m 5,3 km/h (1 Bft) O-SO 105 0,000 mm 1,8 UV-I 520 W/m 11,9 C 16,6 C 9,7 km/h (2 Bft) 100,00 %
17.10.2018 13:34 16,6 C 0,0 C 75 % 1019,8 hPa 0,0 l/m 4,3 km/h (1 Bft) NO 53 0,000 mm 1,8 UV-I 522 W/m 12,1 C 16,6 C 8,0 km/h (2 Bft) 88,46 %
17.10.2018 13:33 16,6 C 0,0 C 73 % 1019,9 hPa 0,0 l/m 6,5 km/h (2 Bft) O 80 0,000 mm 1,9 UV-I 522 W/m 11,7 C 16,6 C 9,7 km/h (2 Bft) 95,83 %
17.10.2018 13:32 16,6 C 0,0 C 75 % 1019,9 hPa 0,0 l/m 4,0 km/h (1 Bft) O 93 0,000 mm 1,9 UV-I 522 W/m 12,1 C 16,6 C 6,4 km/h (2 Bft) 96,30 %
17.10.2018 13:31 16,7 C 0,0 C 72 % 1019,9 hPa 0,0 l/m 8,2 km/h (2 Bft) O-NO 78 0,000 mm 1,9 UV-I 524 W/m 11,6 C 15,8 C 12,9 km/h (3 Bft) 100,00 %
17.10.2018 13:30 16,8 C 0,0 C 75 % 1019,9 hPa 0,0 l/m 5,0 km/h (1 Bft) O-SO 103 0,000 mm 1,9 UV-I 522 W/m 12,3 C 16,8 C 6,4 km/h (2 Bft) 100,00 %
17.10.2018 13:29 16,8 C 0,0 C 74 % 1019,9 hPa 0,0 l/m 5,6 km/h (1 Bft) O 101 0,000 mm 1,9 UV-I 526 W/m 12,1 C 16,8 C 8,0 km/h (2 Bft) 100,00 %
17.10.2018 13:28 16,8 C 0,0 C 76 % 1019,9 hPa 0,0 l/m 3,8 km/h (1 Bft) O 95 0,000 mm 1,9 UV-I 526 W/m 12,5 C 16,8 C 6,4 km/h (2 Bft) 100,00 %
17.10.2018 13:27 16,6 C 0,0 C 76 % 1019,9 hPa 0,0 l/m 3,2 km/h (1 Bft) O 95 0,000 mm 1,9 UV-I 529 W/m 12,3 C 16,6 C 4,8 km/h (1 Bft) 100,00 %
17.10.2018 13:26 16,3 C 0,0 C 74 % 1019,9 hPa 0,0 l/m 6,4 km/h (2 Bft) O-NO 78 0,000 mm 1,9 UV-I 527 W/m 11,7 C 16,3 C 9,7 km/h (2 Bft) 100,00 %
17.10.2018 13:25 16,1 C 0,0 C 77 % 1019,9 hPa 0,0 l/m 6,7 km/h (2 Bft) O-NO 59 0,000 mm 1,9 UV-I 529 W/m 12,1 C 16,0 C 9,7 km/h (2 Bft) 96,15 %
17.10.2018 13:24 16,0 C 0,0 C 73 % 1019,9 hPa 0,0 l/m 6,4 km/h (2 Bft) O-SO 104 0,000 mm 1,9 UV-I 531 W/m 11,2 C 16,0 C 9,7 km/h (2 Bft) 100,00 %
17.10.2018 13:23 16,1 C 0,0 C 73 % 1019,9 hPa 0,0 l/m 6,1 km/h (2 Bft) O 82 0,000 mm 1,9 UV-I 531 W/m 11,3 C 16,1 C 9,7 km/h (2 Bft) 100,00 %
17.10.2018 13:22 16,2 C 0,0 C 77 % 1019,9 hPa 0,0 l/m 3,2 km/h (1 Bft) O 82 0,000 mm 1,9 UV-I 533 W/m 12,2 C 16,2 C 6,4 km/h (2 Bft) 100,00 %
17.10.2018 13:21 15,9 C 0,0 C 77 % 1019,9 hPa 0,0 l/m 7,8 km/h (2 Bft) O-NO 78 0,000 mm 1,9 UV-I 534 W/m 11,9 C 15,1 C 11,3 km/h (2 Bft) 100,00 %
17.10.2018 13:20 15,8 C 0,0 C 75 % 1019,9 hPa 0,0 l/m 6,0 km/h (2 Bft) O 93 0,000 mm 1,9 UV-I 534 W/m 11,4 C 15,8 C 9,7 km/h (2 Bft) 100,00 %
17.10.2018 13:17 16,1 C 0,0 C 73 % 1019,9 hPa 0,0 l/m 9,6 km/h (2 Bft) O 80 0,000 mm 1,9 UV-I 536 W/m 11,3 C 14,5 C 11,3 km/h (2 Bft) 100,00 %
17.10.2018 13:16 16,2 C 0,0 C 74 % 1019,9 hPa 0,0 l/m 9,8 km/h (2 Bft) O-SO 103 0,000 mm 1,9 UV-I 536 W/m 11,6 C 14,5 C 12,9 km/h (3 Bft) 100,00 %
17.10.2018 13:15 16,2 C 0,0 C 77 % 1020,0 hPa 0,0 l/m 7,7 km/h (2 Bft) O-NO 77 0,000 mm 1,9 UV-I 534 W/m 12,2 C 15,5 C 11,3 km/h (2 Bft) 100,00 %
17.10.2018 13:14 15,9 C 0,0 C 75 % 1019,9 hPa 0,0 l/m 8,4 km/h (2 Bft) O 88 0,000 mm 1,9 UV-I 534 W/m 11,5 C 14,8 C 12,9 km/h (3 Bft) 100,00 %
17.10.2018 13:13 15,8 C 0,0 C 78 % 1019,9 hPa 0,0 l/m 6,8 km/h (2 Bft) SO 127 0,000 mm 1,9 UV-I 536 W/m 12,0 C 15,6 C 9,7 km/h (2 Bft) 100,00 %
17.10.2018 13:12 15,6 C 0,0 C 75 % 1019,9 hPa 0,0 l/m 6,6 km/h (2 Bft) O 99 0,000 mm 1,9 UV-I 538 W/m 11,2 C 15,5 C 9,7 km/h (2 Bft) 100,00 %
17.10.2018 13:11 15,6 C 0,0 C 74 % 1019,9 hPa 0,0 l/m 5,0 km/h (1 Bft) O 90 0,000 mm 1,9 UV-I 538 W/m 11,0 C 15,6 C 6,4 km/h (2 Bft) 100,00 %
17.10.2018 13:10 15,7 C 0,0 C 74 % 1019,9 hPa 0,0 l/m 9,5 km/h (2 Bft) O-SO 120 0,000 mm 1,9 UV-I 540 W/m 11,1 C 14,1 C 11,3 km/h (2 Bft) 100,00 %
17.10.2018 13:09 15,7 C 0,0 C 75 % 1019,9 hPa 0,0 l/m 6,2 km/h (2 Bft) O 99 0,000 mm 1,9 UV-I 540 W/m 11,3 C 15,7 C 14,5 km/h (3 Bft) 100,00 %
17.10.2018 13:08 15,8 C 0,0 C 75 % 1019,9 hPa 0,0 l/m 9,9 km/h (2 Bft) O 87 0,000 mm 1,9 UV-I 538 W/m 11,4 C 14,0 C 11,3 km/h (2 Bft) 100,00 %
17.10.2018 13:07 15,7 C 0,0 C 73 % 1019,9 hPa 0,0 l/m 5,1 km/h (1 Bft) O 80 0,000 mm 1,9 UV-I 541 W/m 10,9 C 15,7 C 6,4 km/h (2 Bft) 96,55 %
17.10.2018 13:06 15,8 C 0,0 C 75 % 1020,0 hPa 0,0 l/m 8,2 km/h (2 Bft) O 101 0,000 mm 1,9 UV-I 541 W/m 11,4 C 14,8 C 12,9 km/h (3 Bft) 100,00 %
17.10.2018 13:05 16,0 C 0,0 C 73 % 1020,0 hPa 0,0 l/m 9,7 km/h (2 Bft) O-NO 76 0,000 mm 1,9 UV-I 540 W/m 11,2 C 14,4 C 12,9 km/h (3 Bft) 96,15 %
17.10.2018 13:04 16,1 C 0,0 C 75 % 1020,0 hPa 0,0 l/m 7,9 km/h (2 Bft) O-SO 113 0,000 mm 1,9 UV-I 540 W/m 11,7 C 15,3 C 11,3 km/h (2 Bft) 100,00 %
17.10.2018 13:03 16,0 C 0,0 C 76 % 1020,0 hPa 0,0 l/m 10,4 km/h (2 Bft) O-NO 76 0,000 mm 1,9 UV-I 540 W/m 11,8 C 14,1 C 14,5 km/h (3 Bft) 100,00 %
17.10.2018 13:02 16,0 C 0,0 C 75 % 1020,0 hPa 0,0 l/m 9,7 km/h (2 Bft) O 92 0,000 mm 1,9 UV-I 538 W/m 11,6 C 14,4 C 12,9 km/h (3 Bft) 100,00 %
17.10.2018 13:01 15,9 C 0,0 C 77 % 1020,0 hPa 0,0 l/m 6,9 km/h (2 Bft) O-SO 106 0,000 mm 1,9 UV-I 538 W/m 11,9 C 15,6 C 11,3 km/h (2 Bft) 95,65 %
17.10.2018 13:00 15,7 C 0,0 C 74 % 1020,1 hPa 0,0 l/m 9,0 km/h (2 Bft) O-NO 66 0,305 mm 1,9 UV-I 543 W/m 11,1 C 14,3 C 12,9 km/h (3 Bft) 100,00 %
17.10.2018 12:59 15,8 C 0,0 C 74 % 1020,1 hPa 0,0 l/m 9,2 km/h (2 Bft) O 97 0,000 mm 1,9 UV-I 540 W/m 11,2 C 14,4 C 12,9 km/h (3 Bft) 100,00 %
17.10.2018 12:58 15,8 C 0,0 C 74 % 1020,1 hPa 0,0 l/m 6,9 km/h (2 Bft) O 97 0,000 mm 1,9 UV-I 540 W/m 11,2 C 15,5 C 11,3 km/h (2 Bft) 100,00 %
17.10.2018 12:57 15,9 C 0,0 C 75 % 1020,1 hPa 0,0 l/m 8,7 km/h (2 Bft) O-SO 104 0,000 mm 1,9 UV-I 538 W/m 11,5 C 14,7 C 14,5 km/h (3 Bft) 100,00 %
17.10.2018 12:56 15,8 C 0,0 C 76 % 1020,0 hPa 0,0 l/m 5,4 km/h (1 Bft) O 88 0,000 mm 1,9 UV-I 538 W/m 11,6 C 15,8 C 11,3 km/h (2 Bft) 100,00 %
17.10.2018 12:55 15,6 C 0,0 C 74 % 1020,0 hPa 0,0 l/m 7,3 km/h (2 Bft) O-SO 104 0,000 mm 1,9 UV-I 540 W/m 11,0 C 15,1 C 9,7 km/h (2 Bft) 100,00 %
17.10.2018 12:54 15,7 C 0,0 C 76 % 1020,0 hPa 0,0 l/m 9,8 km/h (2 Bft) O-SO 102 0,000 mm 1,9 UV-I 541 W/m 11,5 C 14,0 C 12,9 km/h (3 Bft) 100,00 %
17.10.2018 12:53 15,7 C 0,0 C 76 % 1020,0 hPa 0,0 l/m 12,0 km/h (2 Bft) O-SO 107 0,000 mm 1,9 UV-I 541 W/m 11,5 C 13,1 C 14,5 km/h (3 Bft) 100,00 %
17.10.2018 12:52 15,6 C 0,0 C 76 % 1020,0 hPa 0,0 l/m 10,9 km/h (2 Bft) O-SO 107 0,000 mm 1,9 UV-I 541 W/m 11,4 C 13,4 C 14,5 km/h (3 Bft) 100,00 %
17.10.2018 12:51 15,4 C 0,0 C 74 % 1020,1 hPa 0,0 l/m 9,4 km/h (2 Bft) O-SO 110 0,000 mm 1,9 UV-I 541 W/m 10,8 C 13,8 C 12,9 km/h (3 Bft) 100,00 %
17.10.2018 12:50 15,4 C 0,0 C 75 % 1020,1 hPa 0,0 l/m 7,5 km/h (2 Bft) O 89 0,000 mm 1,9 UV-I 540 W/m 11,0 C 14,8 C 11,3 km/h (2 Bft) 100,00 %
17.10.2018 12:49 15,3 C 0,0 C 76 % 1020,2 hPa 0,0 l/m 8,2 km/h (2 Bft) O 95 0,000 mm 1,9 UV-I 540 W/m 11,1 C 14,3 C 12,9 km/h (3 Bft) 96,30 %
17.10.2018 12:48 15,3 C 0,0 C 75 % 1020,2 hPa 0,0 l/m 11,2 km/h (2 Bft) O-SO 110 0,000 mm 1,9 UV-I 540 W/m 10,9 C 12,9 C 14,5 km/h (3 Bft) 100,00 %
17.10.2018 12:47 15,3 C 0,0 C 73 % 1020,1 hPa 0,0 l/m 6,8 km/h (2 Bft) O 93 0,000 mm 1,9 UV-I 540 W/m 10,5 C 15,1 C 11,3 km/h (2 Bft) 100,00 %
17.10.2018 12:46 15,4 C 0,0 C 76 % 1020,2 hPa 0,0 l/m 9,8 km/h (2 Bft) O-SO 119 0,000 mm 1,9 UV-I 540 W/m 11,2 C 13,6 C 12,9 km/h (3 Bft) 100,00 %
17.10.2018 12:45 15,4 C 0,0 C 74 % 1020,1 hPa 0,0 l/m 9,7 km/h (2 Bft) O 97 0,000 mm 1,9 UV-I 541 W/m 10,8 C 13,7 C 12,9 km/h (3 Bft) 100,00 %
17.10.2018 12:44 15,6 C 0,0 C 74 % 1020,2 hPa 0,0 l/m 10,5 km/h (2 Bft) O-NO 76 0,000 mm 1,9 UV-I 541 W/m 11,0 C 13,6 C 16,1 km/h (3 Bft) 100,00 %
17.10.2018 12:43 15,8 C 0,0 C 73 % 1020,3 hPa 0,0 l/m 6,3 km/h (2 Bft) SO 141 0,000 mm 1,9 UV-I 540 W/m 11,0 C 15,8 C 11,3 km/h (2 Bft) 100,00 %
17.10.2018 12:42 15,9 C 0,0 C 75 % 1020,3 hPa 0,0 l/m 5,3 km/h (1 Bft) O 91 0,000 mm 1,9 UV-I 538 W/m 11,5 C 15,9 C 8,0 km/h (2 Bft) 100,00 %
17.10.2018 12:41 15,8 C 0,0 C 74 % 1020,2 hPa 0,0 l/m 8,3 km/h (2 Bft) O-SO 107 0,000 mm 1,9 UV-I 538 W/m 11,2 C 14,8 C 11,3 km/h (2 Bft) 100,00 %
17.10.2018 12:40 15,8 C 0,0 C 73 % 1020,3 hPa 0,0 l/m 6,3 km/h (2 Bft) O 90 0,000 mm 1,9 UV-I 536 W/m 11,0 C 15,8 C 9,7 km/h (2 Bft) 91,30 %
17.10.2018 12:39 16,0 C 0,0 C 72 % 1020,3 hPa 0,0 l/m 6,2 km/h (2 Bft) O-SO 116 0,000 mm 1,9 UV-I 538 W/m 11,0 C 16,0 C 12,9 km/h (3 Bft) 100,00 %
17.10.2018 12:38 16,1 C 0,0 C 75 % 1020,3 hPa 0,0 l/m 9,8 km/h (2 Bft) O 93 0,000 mm 1,9 UV-I 538 W/m 11,7 C 14,4 C 12,9 km/h (3 Bft) 100,00 %
17.10.2018 12:37 16,0 C 0,0 C 77 % 1020,3 hPa 0,0 l/m 9,9 km/h (2 Bft) O 94 0,000 mm 1,9 UV-I 541 W/m 12,0 C 14,3 C 12,9 km/h (3 Bft) 96,15 %
17.10.2018 12:36 15,8 C 0,0 C 75 % 1020,3 hPa 0,0 l/m 7,8 km/h (2 Bft) O 94 0,000 mm 1,9 UV-I 540 W/m 11,4 C 15,0 C 11,3 km/h (2 Bft) 100,00 %
17.10.2018 12:35 15,8 C 0,0 C 75 % 1020,3 hPa 0,0 l/m 7,2 km/h (2 Bft) O 87 0,000 mm 1,9 UV-I 489 W/m 11,4 C 15,4 C 11,3 km/h (2 Bft) 100,00 %
17.10.2018 12:34 15,8 C 0,0 C 77 % 1020,3 hPa 0,0 l/m 10,5 km/h (2 Bft) O-NO 70 0,000 mm 1,9 UV-I 543 W/m 11,8 C 13,8 C 14,5 km/h (3 Bft) 98,54 %
17.10.2018 12:33 15,8 C 0,0 C 75 % 1020,3 hPa 0,0 l/m 9,6 km/h (2 Bft) O-SO 114 0,000 mm 1,9 UV-I 541 W/m 11,4 C 14,2 C 12,9 km/h (3 Bft) 100,00 %
17.10.2018 12:32 15,9 C 0,0 C 73 % 1020,3 hPa 0,0 l/m 9,8 km/h (2 Bft) O 96 0,000 mm 1,9 UV-I 543 W/m 11,1 C 14,2 C 12,9 km/h (3 Bft) 100,00 %
17.10.2018 12:31 16,1 C 0,0 C 76 % 1020,3 hPa 0,0 l/m 9,6 km/h (2 Bft) O 79 0,000 mm 1,9 UV-I 541 W/m 11,9 C 14,5 C 12,9 km/h (3 Bft) 100,00 %
17.10.2018 12:30 16,1 C 0,0 C 75 % 1020,3 hPa 0,0 l/m 6,6 km/h (2 Bft) O 96 0,000 mm 1,9 UV-I 540 W/m 11,7 C 16,0 C 11,3 km/h (2 Bft) 100,00 %
17.10.2018 12:29 16,1 C 0,0 C 75 % 1020,3 hPa 0,0 l/m 6,1 km/h (2 Bft) O 87 0,000 mm 1,9 UV-I 540 W/m 11,7 C 16,1 C 9,7 km/h (2 Bft) 100,00 %
17.10.2018 12:28 16,1 C 0,0 C 76 % 1020,4 hPa 0,0 l/m 7,1 km/h (2 Bft) O 84 0,000 mm 1,9 UV-I 540 W/m 11,9 C 15,7 C 11,3 km/h (2 Bft) 100,00 %
17.10.2018 12:27 16,1 C 0,0 C 75 % 1020,3 hPa 0,0 l/m 8,6 km/h (2 Bft) O 89 0,000 mm 1,9 UV-I 540 W/m 11,7 C 15,0 C 12,9 km/h (3 Bft) 100,00 %
17.10.2018 12:26 16,1 C 0,0 C 73 % 1020,3 hPa 0,0 l/m 5,0 km/h (1 Bft) O-SO 107 0,000 mm 1,9 UV-I 540 W/m 11,3 C 16,1 C 8,0 km/h (2 Bft) 100,00 %
17.10.2018 12:25 16,2 C 0,0 C 77 % 1020,4 hPa 0,0 l/m 7,6 km/h (2 Bft) O 88 0,000 mm 1,9 UV-I 540 W/m 12,2 C 15,6 C 12,9 km/h (3 Bft) 100,00 %
17.10.2018 12:24 16,1 C 0,0 C 74 % 1020,4 hPa 0,0 l/m 8,2 km/h (2 Bft) O-NO 78 0,000 mm 1,9 UV-I 541 W/m 11,5 C 15,2 C 11,3 km/h (2 Bft) 100,00 %
17.10.2018 12:23 16,1 C 0,0 C 74 % 1020,3 hPa 0,0 l/m 6,4 km/h (2 Bft) O-SO 107 0,000 mm 1,9 UV-I 541 W/m 11,5 C 16,1 C 9,7 km/h (2 Bft) 100,00 %
17.10.2018 12:22 16,2 C 0,0 C 73 % 1020,4 hPa 0,0 l/m 7,9 km/h (2 Bft) O 89 0,000 mm 1,9 UV-I 540 W/m 11,4 C 15,4 C 11,3 km/h (2 Bft) 100,00 %
17.10.2018 12:21 16,2 C 0,0 C 78 % 1020,4 hPa 0,0 l/m 8,0 km/h (2 Bft) O 91 0,000 mm 1,9 UV-I 533 W/m 12,4 C 15,4 C 11,3 km/h (2 Bft) 96,15 %
17.10.2018 12:20 15,8 C 0,0 C 78 % 1020,4 hPa 0,0 l/m 8,3 km/h (2 Bft) O 89 0,000 mm 1,9 UV-I 550 W/m 12,0 C 14,8 C 11,3 km/h (2 Bft) 100,00 %
17.10.2018 12:19 15,5 C 0,0 C 77 % 1020,4 hPa 0,0 l/m 10,1 km/h (2 Bft) O-SO 115 0,000 mm 1,9 UV-I 547 W/m 11,5 C 13,6 C 12,9 km/h (3 Bft) 92,86 %
17.10.2018 12:18 15,4 C 0,0 C 76 % 1020,4 hPa 0,0 l/m 9,9 km/h (2 Bft) O 101 0,000 mm 1,9 UV-I 541 W/m 11,2 C 13,6 C 12,9 km/h (3 Bft) 100,00 %
17.10.2018 12:17 15,3 C 0,0 C 75 % 1020,4 hPa 0,0 l/m 5,1 km/h (1 Bft) O 87 0,000 mm 1,9 UV-I 540 W/m 10,9 C 15,3 C 6,4 km/h (2 Bft) 97,73 %
17.10.2018 12:16 15,6 C 0,0 C 74 % 1020,4 hPa 0,0 l/m 8,4 km/h (2 Bft) O-SO 116 0,000 mm 1,9 UV-I 538 W/m 11,0 C 14,5 C 12,9 km/h (3 Bft) 91,67 %
17.10.2018 12:15 15,6 C 0,0 C 77 % 1020,5 hPa 0,0 l/m 11,6 km/h (2 Bft) O-SO 103 0,000 mm 1,9 UV-I 538 W/m 11,6 C 13,1 C 16,1 km/h (3 Bft) 92,86 %
17.10.2018 12:14 15,4 C 0,0 C 77 % 1020,4 hPa 0,0 l/m 10,4 km/h (2 Bft) O 83 0,000 mm 1,9 UV-I 536 W/m 11,4 C 13,4 C 11,3 km/h (2 Bft) 96,67 %
17.10.2018 12:13 15,3 C 0,0 C 77 % 1020,4 hPa 0,0 l/m 7,5 km/h (2 Bft) O 80 0,000 mm 1,9 UV-I 534 W/m 11,3 C 14,7 C 11,3 km/h (2 Bft) 96,15 %
17.10.2018 12:12 15,2 C 0,0 C 78 % 1020,5 hPa 0,0 l/m 9,2 km/h (2 Bft) O 85 0,000 mm 1,9 UV-I 533 W/m 11,4 C 13,7 C 12,9 km/h (3 Bft) 96,15 %
17.10.2018 12:11 15,0 C 0,0 C 79 % 1020,4 hPa 0,0 l/m 11,3 km/h (2 Bft) O 101 0,000 mm 1,9 UV-I 531 W/m 11,4 C 12,6 C 16,1 km/h (3 Bft) 100,00 %
17.10.2018 12:10 14,8 C 0,0 C 77 % 1020,4 hPa 0,0 l/m 9,5 km/h (2 Bft) O 97 0,000 mm 1,9 UV-I 531 W/m 10,8 C 13,1 C 12,9 km/h (3 Bft) 96,67 %
17.10.2018 12:07 14,8 C 0,0 C 77 % 1020,5 hPa 0,0 l/m 3,8 km/h (1 Bft) O 80 0,000 mm 1,8 UV-I 529 W/m 10,8 C 14,8 C 6,4 km/h (2 Bft) 98,56 %
17.10.2018 12:06 14,8 C 0,0 C 77 % 1020,5 hPa 0,0 l/m 6,0 km/h (2 Bft) O-SO 116 0,000 mm 1,8 UV-I 529 W/m 10,8 C 14,8 C 9,7 km/h (2 Bft) 100,00 %
17.10.2018 12:05 14,9 C 0,0 C 74 % 1020,4 hPa 0,0 l/m 7,5 km/h (2 Bft) O 97 0,000 mm 1,8 UV-I 529 W/m 10,3 C 14,3 C 12,9 km/h (3 Bft) 95,65 %
17.10.2018 12:04 15,3 C 0,0 C 74 % 1020,5 hPa 0,0 l/m 7,5 km/h (2 Bft) O 89 0,000 mm 1,8 UV-I 527 W/m 10,7 C 14,7 C 11,3 km/h (2 Bft) 100,00 %
17.10.2018 12:03 15,5 C 0,0 C 76 % 1020,5 hPa 0,0 l/m 8,9 km/h (2 Bft) O 82 0,000 mm 1,8 UV-I 527 W/m 11,3 C 14,2 C 11,3 km/h (2 Bft) 96,15 %
17.10.2018 12:02 15,6 C 0,0 C 73 % 1020,5 hPa 0,0 l/m 8,9 km/h (2 Bft) O 89 0,000 mm 1,8 UV-I 527 W/m 10,8 C 14,3 C 12,9 km/h (3 Bft) 100,00 %
17.10.2018 12:01 15,9 C 0,0 C 74 % 1020,5 hPa 0,0 l/m 9,0 km/h (2 Bft) O 89 0,000 mm 1,8 UV-I 526 W/m 11,3 C 14,6 C 12,9 km/h (3 Bft) 95,83 %
17.10.2018 12:00 16,2 C 0,0 C 77 % 1020,5 hPa 0,0 l/m 5,8 km/h (2 Bft) O-NO 72 0,279 mm 1,8 UV-I 524 W/m 12,2 C 16,2 C 11,3 km/h (2 Bft) 96,15 %
17.10.2018 11:59 15,8 C 0,0 C 79 % 1020,5 hPa 0,0 l/m 7,5 km/h (2 Bft) O 88 0,000 mm 1,8 UV-I 522 W/m 12,2 C 15,2 C 12,9 km/h (3 Bft) 100,00 %
17.10.2018 11:58 15,6 C 0,0 C 76 % 1020,5 hPa 0,0 l/m 7,5 km/h (2 Bft) O 101 0,000 mm 1,8 UV-I 522 W/m 11,4 C 15,0 C 11,3 km/h (2 Bft) 90,91 %
17.10.2018 11:57 15,6 C 0,0 C 77 % 1020,6 hPa 0,0 l/m 7,3 km/h (2 Bft) O-SO 102 0,000 mm 1,8 UV-I 520 W/m 11,6 C 15,1 C 11,3 km/h (2 Bft) 100,00 %
17.10.2018 11:56 15,6 C 0,0 C 75 % 1020,6 hPa 0,0 l/m 7,4 km/h (2 Bft) O 98 0,000 mm 1,8 UV-I 520 W/m 11,2 C 15,1 C 11,3 km/h (2 Bft) 95,65 %
17.10.2018 11:55 15,8 C 0,0 C 79 % 1020,6 hPa 0,0 l/m 9,4 km/h (2 Bft) O 94 0,000 mm 1,8 UV-I 520 W/m 12,2 C 14,3 C 11,3 km/h (2 Bft) 100,00 %
17.10.2018 11:54 15,7 C 0,0 C 73 % 1020,6 hPa 0,0 l/m 5,8 km/h (2 Bft) O 96 0,000 mm 1,8 UV-I 520 W/m 10,9 C 15,7 C 12,9 km/h (3 Bft) 96,15 %
17.10.2018 11:53 16,1 C 0,0 C 74 % 1020,6 hPa 0,0 l/m 7,8 km/h (2 Bft) O 99 0,000 mm 1,8 UV-I 517 W/m 11,5 C 15,4 C 12,9 km/h (3 Bft) 97,56 %
17.10.2018 11:52 16,3 C 0,0 C 76 % 1020,6 hPa 0,0 l/m 8,2 km/h (2 Bft) O-NO 73 0,000 mm 1,8 UV-I 517 W/m 12,1 C 15,4 C 11,3 km/h (2 Bft) 98,58 %
17.10.2018 11:51 16,2 C 0,0 C 78 % 1020,6 hPa 0,0 l/m 10,2 km/h (2 Bft) O 93 0,000 mm 1,8 UV-I 515 W/m 12,4 C 14,4 C 14,5 km/h (3 Bft) 95,83 %
17.10.2018 11:50 15,9 C 0,0 C 80 % 1020,6 hPa 0,0 l/m 8,9 km/h (2 Bft) O-SO 107 0,000 mm 1,7 UV-I 513 W/m 12,5 C 14,6 C 12,9 km/h (3 Bft) 100,00 %
17.10.2018 11:49 15,6 C 0,0 C 81 % 1020,6 hPa 0,0 l/m 10,3 km/h (2 Bft) O-SO 116 0,000 mm 1,7 UV-I 513 W/m 12,3 C 13,7 C 14,5 km/h (3 Bft) 95,83 %
17.10.2018 11:48 15,3 C 0,0 C 81 % 1020,5 hPa 0,0 l/m 10,0 km/h (2 Bft) O-SO 111 0,000 mm 1,7 UV-I 515 W/m 12,1 C 13,4 C 14,5 km/h (3 Bft) 100,00 %
17.10.2018 11:47 15,1 C 0,0 C 76 % 1020,5 hPa 0,0 l/m 8,7 km/h (2 Bft) O 81 0,000 mm 1,7 UV-I 513 W/m 10,9 C 13,8 C 11,3 km/h (2 Bft) 95,83 %
17.10.2018 11:46 15,4 C 0,0 C 74 % 1020,6 hPa 0,0 l/m 9,7 km/h (2 Bft) O 90 0,000 mm 1,7 UV-I 513 W/m 10,8 C 13,7 C 12,9 km/h (3 Bft) 100,00 %
17.10.2018 11:45 15,6 C 0,0 C 76 % 1020,5 hPa 0,0 l/m 8,3 km/h (2 Bft) O 95 0,000 mm 1,7 UV-I 510 W/m 11,4 C 14,6 C 11,3 km/h (2 Bft) 93,33 %
17.10.2018 11:44 15,6 C 0,0 C 79 % 1020,5 hPa 0,0 l/m 6,8 km/h (2 Bft) O-SO 105 0,000 mm 1,7 UV-I 508 W/m 12,0 C 15,4 C 12,9 km/h (3 Bft) 100,00 %
17.10.2018 11:43 15,6 C 0,0 C 77 % 1020,6 hPa 0,0 l/m 7,6 km/h (2 Bft) O-NO 75 0,000 mm 1,7 UV-I 510 W/m 11,6 C 14,9 C 11,3 km/h (2 Bft) 95,83 %
17.10.2018 11:42 15,4 C 0,0 C 75 % 1020,6 hPa 0,0 l/m 5,5 km/h (1 Bft) O-NO 66 0,000 mm 1,7 UV-I 510 W/m 11,0 C 15,4 C 11,3 km/h (2 Bft) 91,30 %
17.10.2018 11:41 15,5 C 0,0 C 78 % 1020,7 hPa 0,0 l/m 6,5 km/h (2 Bft) O-SO 105 0,000 mm 1,7 UV-I 510 W/m 11,7 C 15,5 C 9,7 km/h (2 Bft) 100,00 %
17.10.2018 11:40 15,3 C 0,0 C 76 % 1020,6 hPa 0,0 l/m 5,4 km/h (1 Bft) O 99 0,000 mm 1,7 UV-I 510 W/m 11,1 C 15,3 C 12,9 km/h (3 Bft) 92,31 %
17.10.2018 11:39 15,2 C 0,0 C 76 % 1020,7 hPa 0,0 l/m 6,6 km/h (2 Bft) O-NO 78 0,000 mm 1,7 UV-I 506 W/m 11,0 C 15,1 C 11,3 km/h (2 Bft) 100,00 %
17.10.2018 11:38 15,2 C 0,0 C 74 % 1020,7 hPa 0,0 l/m 7,7 km/h (2 Bft) SO 125 0,000 mm 1,7 UV-I 504 W/m 10,6 C 14,5 C 12,9 km/h (3 Bft) 97,37 %
17.10.2018 11:37 15,4 C 0,0 C 78 % 1020,7 hPa 0,0 l/m 6,2 km/h (2 Bft) O 95 0,000 mm 1,7 UV-I 504 W/m 11,6 C 15,4 C 11,3 km/h (2 Bft) 96,55 %
17.10.2018 11:36 15,3 C 0,0 C 77 % 1020,7 hPa 0,0 l/m 3,7 km/h (1 Bft) O-NO 78 0,000 mm 1,7 UV-I 503 W/m 11,3 C 15,3 C 6,4 km/h (2 Bft) 100,00 %
17.10.2018 11:35 15,0 C 0,0 C 78 % 1020,7 hPa 0,0 l/m 6,9 km/h (2 Bft) O 94 0,000 mm 1,7 UV-I 503 W/m 11,2 C 14,7 C 11,3 km/h (2 Bft) 100,00 %
17.10.2018 11:34 14,9 C 0,0 C 77 % 1020,7 hPa 0,0 l/m 10,3 km/h (2 Bft) O 93 0,000 mm 1,6 UV-I 501 W/m 10,9 C 12,9 C 14,5 km/h (3 Bft) 100,00 %
17.10.2018 11:33 14,8 C 0,0 C 77 % 1020,7 hPa 0,0 l/m 8,2 km/h (2 Bft) O-NO 77 0,000 mm 1,6 UV-I 501 W/m 10,8 C 13,8 C 11,3 km/h (2 Bft) 100,00 %
17.10.2018 11:32 14,7 C 0,0 C 77 % 1020,7 hPa 0,0 l/m 4,8 km/h (1 Bft) O-SO 103 0,000 mm 1,6 UV-I 497 W/m 10,7 C 14,7 C 6,4 km/h (2 Bft) 100,00 %
17.10.2018 11:31 14,6 C 0,0 C 76 % 1020,7 hPa 0,0 l/m 5,2 km/h (1 Bft) O 99 0,000 mm 1,6 UV-I 499 W/m 10,4 C 14,6 C 9,7 km/h (2 Bft) 100,00 %
17.10.2018 11:30 14,7 C 0,0 C 76 % 1020,7 hPa 0,0 l/m 5,7 km/h (1 Bft) O-SO 114 0,000 mm 1,6 UV-I 497 W/m 10,5 C 14,7 C 8,0 km/h (2 Bft) 100,00 %
17.10.2018 11:29 14,8 C 0,0 C 76 % 1020,7 hPa 0,0 l/m 7,7 km/h (2 Bft) O 92 0,000 mm 1,6 UV-I 494 W/m 10,6 C 14,1 C 11,3 km/h (2 Bft) 100,00 %
17.10.2018 11:28 14,9 C 0,0 C 74 % 1020,7 hPa 0,0 l/m 5,3 km/h (1 Bft) O 89 0,000 mm 1,6 UV-I 492 W/m 10,3 C 14,9 C 9,7 km/h (2 Bft) 94,44 %
17.10.2018 11:27 15,2 C 0,0 C 75 % 1020,7 hPa 0,0 l/m 6,0 km/h (2 Bft) O 86 0,000 mm 1,6 UV-I 492 W/m 10,8 C 15,2 C 9,7 km/h (2 Bft) 96,15 %
17.10.2018 11:26 15,2 C 0,0 C 77 % 1020,7 hPa 0,0 l/m 8,0 km/h (2 Bft) O 91 0,000 mm 1,6 UV-I 490 W/m 11,2 C 14,3 C 11,3 km/h (2 Bft) 100,00 %
17.10.2018 11:25 15,0 C 0,0 C 76 % 1020,7 hPa 0,0 l/m 8,5 km/h (2 Bft) O-SO 114 0,000 mm 1,6 UV-I 490 W/m 10,8 C 13,8 C 9,7 km/h (2 Bft) 96,15 %
17.10.2018 11:24 14,9 C 0,0 C 76 % 1020,7 hPa 0,0 l/m 8,9 km/h (2 Bft) O-SO 116 0,000 mm 1,6 UV-I 490 W/m 10,7 C 13,5 C 12,9 km/h (3 Bft) 100,00 %
17.10.2018 11:23 14,9 C 0,0 C 75 % 1020,7 hPa 0,0 l/m 6,4 km/h (2 Bft) O 90 0,000 mm 1,6 UV-I 490 W/m 10,5 C 14,9 C 11,3 km/h (2 Bft) 100,00 %
17.10.2018 11:22 15,1 C 0,0 C 75 % 1020,6 hPa 0,0 l/m 2,9 km/h (1 Bft) O-SO 105 0,000 mm 1,6 UV-I 489 W/m 10,7 C 15,1 C 4,8 km/h (1 Bft) 97,26 %
17.10.2018 11:19 15,8 C 0,0 C 77 % 1020,6 hPa 0,0 l/m 6,1 km/h (2 Bft) O-NO 70 0,000 mm 1,5 UV-I 482 W/m 11,8 C 15,8 C 6,4 km/h (2 Bft) 100,00 %
17.10.2018 11:18 15,7 C 0,0 C 77 % 1020,6 hPa 0,0 l/m 6,1 km/h (2 Bft) O 91 0,000 mm 1,5 UV-I 480 W/m 11,7 C 15,7 C 9,7 km/h (2 Bft) 100,00 %
17.10.2018 11:15 15,4 C 0,0 C 77 % 1020,7 hPa 0,0 l/m 3,4 km/h (1 Bft) O 92 0,000 mm 1,5 UV-I 478 W/m 11,4 C 15,4 C 4,8 km/h (1 Bft) 100,00 %
17.10.2018 11:14 15,3 C 0,0 C 76 % 1020,7 hPa 0,0 l/m 4,7 km/h (1 Bft) O 83 0,000 mm 1,5 UV-I 476 W/m 11,1 C 15,3 C 6,4 km/h (2 Bft) 95,65 %
17.10.2018 11:13 15,3 C 0,0 C 77 % 1020,7 hPa 0,0 l/m 2,5 km/h (1 Bft) O-SO 111 0,000 mm 1,5 UV-I 475 W/m 11,3 C 15,3 C 4,8 km/h (1 Bft) 100,00 %
17.10.2018 11:12 14,9 C 0,0 C 80 % 1020,7 hPa 0,0 l/m 5,3 km/h (1 Bft) O 80 0,000 mm 1,5 UV-I 475 W/m 11,5 C 14,9 C 9,7 km/h (2 Bft) 100,00 %
17.10.2018 11:11 14,6 C 0,0 C 75 % 1020,7 hPa 0,0 l/m 6,8 km/h (2 Bft) O-SO 104 0,000 mm 1,5 UV-I 475 W/m 10,2 C 14,4 C 8,0 km/h (2 Bft) 100,00 %
17.10.2018 11:10 14,7 C 0,0 C 75 % 1020,7 hPa 0,0 l/m 5,2 km/h (1 Bft) O 82 0,000 mm 1,5 UV-I 475 W/m 10,3 C 14,7 C 6,4 km/h (2 Bft) 95,65 %
17.10.2018 11:09 14,8 C 0,0 C 75 % 1020,7 hPa 0,0 l/m 4,6 km/h (1 Bft) O 97 0,000 mm 1,5 UV-I 473 W/m 10,4 C 14,8 C 6,4 km/h (2 Bft) 100,00 %
17.10.2018 11:08 15,0 C 0,0 C 76 % 1020,7 hPa 0,0 l/m 4,7 km/h (1 Bft) O 89 0,000 mm 1,4 UV-I 473 W/m 10,8 C 15,0 C 6,4 km/h (2 Bft) 96,15 %
17.10.2018 11:07 14,9 C 0,0 C 79 % 1020,7 hPa 0,0 l/m 4,6 km/h (1 Bft) O 92 0,000 mm 1,4 UV-I 471 W/m 11,3 C 14,9 C 6,4 km/h (2 Bft) 100,00 %
17.10.2018 11:06 14,7 C 0,0 C 79 % 1020,7 hPa 0,0 l/m 4,2 km/h (1 Bft) O 101 0,000 mm 1,4 UV-I 473 W/m 11,1 C 14,7 C 6,4 km/h (2 Bft) 100,00 %
17.10.2018 11:05 14,4 C 0,0 C 78 % 1020,7 hPa 0,0 l/m 2,6 km/h (1 Bft) O 99 0,000 mm 1,4 UV-I 473 W/m 10,6 C 14,4 C 3,2 km/h (1 Bft) 96,30 %
17.10.2018 11:04 14,7 C 0,0 C 74 % 1020,7 hPa 0,0 l/m 3,2 km/h (1 Bft) O 97 0,000 mm 1,4 UV-I 473 W/m 10,1 C 14,7 C 6,4 km/h (2 Bft) 100,00 %
17.10.2018 11:03 14,9 C 0,0 C 75 % 1020,7 hPa 0,0 l/m 3,9 km/h (1 Bft) O 97 0,000 mm 1,4 UV-I 473 W/m 10,5 C 14,9 C 6,4 km/h (2 Bft) 100,00 %
17.10.2018 11:02 15,0 C 0,0 C 72 % 1020,7 hPa 0,0 l/m 2,6 km/h (1 Bft) O 100 0,000 mm 1,4 UV-I 473 W/m 10,0 C 15,0 C 4,8 km/h (1 Bft) 100,00 %
17.10.2018 11:01 15,3 C 0,0 C 75 % 1020,7 hPa 0,0 l/m 3,0 km/h (1 Bft) O 99 0,000 mm 1,4 UV-I 473 W/m 10,9 C 15,3 C 4,8 km/h (1 Bft) 100,00 %
17.10.2018 11:00 15,3 C 0,0 C 76 % 1020,7 hPa 0,0 l/m 4,4 km/h (1 Bft) O 99 0,229 mm 1,4 UV-I 473 W/m 11,1 C 15,3 C 6,4 km/h (2 Bft) 100,00 %
17.10.2018 10:59 15,2 C 0,0 C 78 % 1020,7 hPa 0,0 l/m 2,5 km/h (1 Bft) O 98 0,000 mm 1,4 UV-I 473 W/m 11,4 C 15,2 C 4,8 km/h (1 Bft) 100,00 %
17.10.2018 10:58 15,3 C 0,0 C 74 % 1020,6 hPa 0,0 l/m 3,5 km/h (1 Bft) O 95 0,000 mm 1,4 UV-I 473 W/m 10,7 C 15,3 C 6,4 km/h (2 Bft) 100,00 %
17.10.2018 10:57 15,5 C 0,0 C 76 % 1020,6 hPa 0,0 l/m 1,9 km/h (1 Bft) O 99 0,000 mm 1,4 UV-I 471 W/m 11,3 C 15,5 C 3,2 km/h (1 Bft) 95,83 %
17.10.2018 10:56 15,6 C 0,0 C 78 % 1020,7 hPa 0,0 l/m 3,4 km/h (1 Bft) O 99 0,000 mm 1,3 UV-I 469 W/m 11,8 C 15,6 C 4,8 km/h (1 Bft) 100,00 %
17.10.2018 10:55 15,6 C 0,0 C 78 % 1020,6 hPa 0,0 l/m 1,2 km/h (1 Bft) O 101 0,000 mm 1,3 UV-I 464 W/m 11,8 C 15,6 C 4,8 km/h (1 Bft) 100,00 %
17.10.2018 10:54 15,5 C 0,0 C 79 % 1020,6 hPa 0,0 l/m 1,4 km/h (1 Bft) O-SO 116 0,000 mm 1,3 UV-I 461 W/m 11,9 C 15,5 C 4,8 km/h (1 Bft) 96,15 %
17.10.2018 10:53 15,3 C 0,0 C 80 % 1020,7 hPa 0,0 l/m 3,4 km/h (1 Bft) O-SO 116 0,000 mm 1,3 UV-I 461 W/m 11,9 C 15,3 C 4,8 km/h (1 Bft) 100,00 %
17.10.2018 10:52 15,2 C 0,0 C 79 % 1020,7 hPa 0,0 l/m 2,4 km/h (1 Bft) O-SO 116 0,000 mm 1,3 UV-I 457 W/m 11,6 C 15,2 C 4,8 km/h (1 Bft) 100,00 %
17.10.2018 10:51 15,2 C 0,0 C 81 % 1020,7 hPa 0,0 l/m 2,7 km/h (1 Bft) O-SO 116 0,000 mm 1,3 UV-I 452 W/m 12,0 C 15,2 C 3,2 km/h (1 Bft) 100,00 %
17.10.2018 10:50 15,2 C 0,0 C 78 % 1020,6 hPa 0,0 l/m 3,4 km/h (1 Bft) O-SO 116 0,000 mm 1,3 UV-I 448 W/m 11,4 C 15,2 C 6,4 km/h (2 Bft) 100,00 %
17.10.2018 10:49 15,1 C 0,0 C 80 % 1020,6 hPa 0,0 l/m 1,4 km/h (1 Bft) O-SO 103 0,000 mm 1,3 UV-I 443 W/m 11,7 C 15,1 C 4,8 km/h (1 Bft) 100,00 %
17.10.2018 10:48 14,8 C 0,0 C 80 % 1020,6 hPa 0,0 l/m 1,3 km/h (1 Bft) O 101 0,000 mm 1,3 UV-I 438 W/m 11,4 C 14,8 C 3,2 km/h (1 Bft) 100,00 %
17.10.2018 10:47 14,8 C 0,0 C 80 % 1020,6 hPa 0,0 l/m 2,0 km/h (1 Bft) O 99 0,000 mm 1,3 UV-I 436 W/m 11,4 C 14,8 C 3,2 km/h (1 Bft) 100,00 %
17.10.2018 10:46 14,6 C 0,0 C 78 % 1020,6 hPa 0,0 l/m 2,5 km/h (1 Bft) O 97 0,000 mm 1,2 UV-I 436 W/m 10,8 C 14,6 C 3,2 km/h (1 Bft) 96,67 %
17.10.2018 10:45 14,7 C 0,0 C 77 % 1020,6 hPa 0,0 l/m 2,3 km/h (1 Bft) O 99 0,000 mm 1,2 UV-I 434 W/m 10,7 C 14,7 C 3,2 km/h (1 Bft) 100,00 %
17.10.2018 10:44 14,9 C 0,0 C 81 % 1020,7 hPa 0,0 l/m 2,0 km/h (1 Bft) O 101 0,000 mm 1,2 UV-I 432 W/m 11,7 C 14,9 C 4,8 km/h (1 Bft) 100,00 %
17.10.2018 10:43 14,7 C 0,0 C 81 % 1020,6 hPa 0,0 l/m 3,9 km/h (1 Bft) O 99 0,000 mm 1,2 UV-I 429 W/m 11,5 C 14,7 C 4,8 km/h (1 Bft) 100,00 %
17.10.2018 10:42 14,5 C 0,0 C 79 % 1020,7 hPa 0,0 l/m 3,8 km/h (1 Bft) O-SO 106 0,000 mm 1,2 UV-I 429 W/m 10,9 C 14,5 C 4,8 km/h (1 Bft) 100,00 %
17.10.2018 10:41 14,6 C 0,0 C 79 % 1020,6 hPa 0,0 l/m 3,1 km/h (1 Bft) O 101 0,000 mm 1,2 UV-I 429 W/m 11,0 C 14,6 C 4,8 km/h (1 Bft) 100,00 %
17.10.2018 10:40 14,5 C 0,0 C 78 % 1020,5 hPa 0,0 l/m 2,8 km/h (1 Bft) O 101 0,000 mm 1,2 UV-I 427 W/m 10,7 C 14,5 C 4,8 km/h (1 Bft) 100,00 %
17.10.2018 10:39 14,6 C 0,0 C 78 % 1020,6 hPa 0,0 l/m 1,1 km/h (1 Bft) O 101 0,000 mm 1,2 UV-I 427 W/m 10,8 C 14,6 C 1,6 km/h (1 Bft) 100,00 %
17.10.2018 10:38 14,5 C 0,0 C 78 % 1020,5 hPa 0,0 l/m 2,3 km/h (1 Bft) O 101 0,000 mm 1,2 UV-I 427 W/m 10,7 C 14,5 C 3,2 km/h (1 Bft) 100,00 %
17.10.2018 10:37 14,4 C 0,0 C 77 % 1020,5 hPa 0,0 l/m 2,6 km/h (1 Bft) O 97 0,000 mm 1,2 UV-I 429 W/m 10,4 C 14,4 C 4,8 km/h (1 Bft) 96,15 %
17.10.2018 10:36 14,6 C 0,0 C 77 % 1020,5 hPa 0,0 l/m 0,9 km/h (0 Bft) O-SO 109 0,000 mm 1,2 UV-I 427 W/m 10,6 C 14,6 C 3,2 km/h (1 Bft) 95,83 %
17.10.2018 10:35 14,6 C 0,0 C 77 % 1020,5 hPa 0,0 l/m 0,8 km/h (0 Bft) O-SO 109 0,000 mm 1,2 UV-I 427 W/m 10,6 C 14,6 C 1,6 km/h (1 Bft) 95,65 %
17.10.2018 10:34 14,7 C 0,0 C 77 % 1020,6 hPa 0,0 l/m 1,7 km/h (1 Bft) O-SO 105 0,000 mm 1,2 UV-I 425 W/m 10,7 C 14,7 C 3,2 km/h (1 Bft) 100,00 %
17.10.2018 10:33 15,0 C 0,0 C 79 % 1020,6 hPa 0,0 l/m 2,1 km/h (1 Bft) O-SO 109 0,000 mm 1,2 UV-I 422 W/m 11,4 C 15,0 C 3,2 km/h (1 Bft) 100,00 %
17.10.2018 10:32 15,0 C 0,0 C 78 % 1020,6 hPa 0,0 l/m 1,0 km/h (0 Bft) O-SO 107 0,000 mm 1,1 UV-I 418 W/m 11,2 C 15,0 C 3,2 km/h (1 Bft) 100,00 %
17.10.2018 10:31 15,1 C 0,0 C 79 % 1020,5 hPa 0,0 l/m 2,8 km/h (1 Bft) O-SO 108 0,000 mm 1,1 UV-I 413 W/m 11,5 C 15,1 C 4,8 km/h (1 Bft) 100,00 %
17.10.2018 10:30 15,1 C 0,0 C 79 % 1020,5 hPa 0,0 l/m 1,9 km/h (1 Bft) O 99 0,000 mm 1,1 UV-I 411 W/m 11,5 C 15,1 C 3,2 km/h (1 Bft) 100,00 %
17.10.2018 10:29 15,2 C 0,0 C 79 % 1020,5 hPa 0,0 l/m 1,1 km/h (1 Bft) O 99 0,000 mm 1,1 UV-I 410 W/m 11,6 C 15,2 C 1,6 km/h (1 Bft) 93,10 %
17.10.2018 10:28 15,1 C 0,0 C 80 % 1020,6 hPa 0,0 l/m 1,3 km/h (1 Bft) O 99 0,000 mm 1,1 UV-I 408 W/m 11,7 C 15,1 C 3,2 km/h (1 Bft) 100,00 %
17.10.2018 10:27 14,9 C 0,0 C 77 % 1020,6 hPa 0,0 l/m 0,1 km/h (0 Bft) O 99 0,000 mm 1,1 UV-I 406 W/m 10,9 C 14,9 C 1,6 km/h (1 Bft) 100,00 %
17.10.2018 10:26 14,9 C 0,0 C 78 % 1020,6 hPa 0,0 l/m 0,3 km/h (0 Bft) O 99 0,000 mm 1,1 UV-I 404 W/m 11,1 C 14,9 C 1,6 km/h (1 Bft) 100,00 %
17.10.2018 10:25 14,9 C 0,0 C 78 % 1020,6 hPa 0,0 l/m 0,3 km/h (0 Bft) O 99 0,000 mm 1,1 UV-I 399 W/m 11,1 C 14,9 C 1,6 km/h (1 Bft) 96,30 %
17.10.2018 10:24 14,9 C 0,0 C 80 % 1020,5 hPa 0,0 l/m 0,2 km/h (0 Bft) O 99 0,000 mm 1,0 UV-I 396 W/m 11,5 C 14,9 C 1,6 km/h (1 Bft) 100,00 %
17.10.2018 10:23 14,8 C 0,0 C 84 % 1020,5 hPa 0,0 l/m 0,2 km/h (0 Bft) O 99 0,000 mm 1,0 UV-I 394 W/m 12,1 C 14,8 C 1,6 km/h (1 Bft) 100,00 %
17.10.2018 10:22 14,4 C 0,0 C 79 % 1020,5 hPa 0,0 l/m 0,4 km/h (0 Bft) O 99 0,000 mm 1,0 UV-I 392 W/m 10,8 C 14,4 C 1,6 km/h (1 Bft) 100,00 %
17.10.2018 10:21 14,3 C 0,0 C 76 % 1020,5 hPa 0,0 l/m 0,1 km/h (0 Bft) O 99 0,000 mm 1,0 UV-I 390 W/m 10,1 C 14,3 C 1,6 km/h (1 Bft) 100,00 %
17.10.2018 10:20 14,3 C 0,0 C 80 % 1020,5 hPa 0,0 l/m 0,6 km/h (0 Bft) O 99 0,000 mm 1,0 UV-I 388 W/m 10,9 C 14,3 C 1,6 km/h (1 Bft) 100,00 %
17.10.2018 10:19 14,3 C 0,0 C 79 % 1020,5 hPa 0,0 l/m 1,0 km/h (0 Bft) O 99 0,000 mm 1,0 UV-I 385 W/m 10,7 C 14,3 C 1,6 km/h (1 Bft) 100,00 %
17.10.2018 10:18 14,4 C 0,0 C 80 % 1020,5 hPa 0,0 l/m 1,3 km/h (1 Bft) O 99 0,000 mm 1,0 UV-I 381 W/m 11,0 C 14,4 C 3,2 km/h (1 Bft) 100,00 %
17.10.2018 10:17 14,4 C 0,0 C 80 % 1020,5 hPa 0,0 l/m 2,5 km/h (1 Bft) O 99 0,000 mm 1,0 UV-I 378 W/m 11,0 C 14,4 C 3,2 km/h (1 Bft) 100,00 %
17.10.2018 10:16 14,3 C 0,0 C 78 % 1020,5 hPa 0,0 l/m 2,4 km/h (1 Bft) O 99 0,000 mm 1,0 UV-I 374 W/m 10,5 C 14,3 C 4,8 km/h (1 Bft) 95,65 %
17.10.2018 10:15 14,3 C 0,0 C 81 % 1020,5 hPa 0,0 l/m 2,7 km/h (1 Bft) O 99 0,000 mm 0,9 UV-I 374 W/m 11,1 C 14,3 C 3,2 km/h (1 Bft) 100,00 %
17.10.2018 10:14 14,2 C 0,0 C 80 % 1020,5 hPa 0,0 l/m 2,9 km/h (1 Bft) O 99 0,000 mm 0,9 UV-I 371 W/m 10,8 C 14,2 C 3,2 km/h (1 Bft) 100,00 %
17.10.2018 10:13 14,1 C 0,0 C 81 % 1020,5 hPa 0,0 l/m 1,9 km/h (1 Bft) O 99 0,000 mm 0,9 UV-I 369 W/m 10,9 C 14,1 C 3,2 km/h (1 Bft) 100,00 %
17.10.2018 10:12 14,0 C 0,0 C 80 % 1020,5 hPa 0,0 l/m 0,5 km/h (0 Bft) O 99 0,000 mm 0,9 UV-I 367 W/m 10,6 C 14,0 C 1,6 km/h (1 Bft) 95,65 %
17.10.2018 10:11 14,0 C 0,0 C 82 % 1020,6 hPa 0,0 l/m 2,1 km/h (1 Bft) O 99 0,000 mm 0,9 UV-I 366 W/m 11,0 C 14,0 C 3,2 km/h (1 Bft) 100,00 %
17.10.2018 10:10 13,7 C 0,0 C 82 % 1020,6 hPa 0,0 l/m 2,0 km/h (1 Bft) O 99 0,000 mm 0,9 UV-I 364 W/m 10,7 C 13,7 C 3,2 km/h (1 Bft) 100,00 %
17.10.2018 10:09 13,6 C 0,0 C 82 % 1020,5 hPa 0,0 l/m 1,6 km/h (1 Bft) O 99 0,000 mm 0,9 UV-I 362 W/m 10,6 C 13,6 C 4,8 km/h (1 Bft) 95,83 %
17.10.2018 10:08 13,3 C 0,0 C 83 % 1020,6 hPa 0,0 l/m 0,9 km/h (0 Bft) O 99 0,000 mm 0,9 UV-I 359 W/m 10,5 C 13,3 C 1,6 km/h (1 Bft) 100,00 %
17.10.2018 10:07 13,2 C 0,0 C 81 % 1020,6 hPa 0,0 l/m 1,7 km/h (1 Bft) O 99 0,000 mm 0,9 UV-I 357 W/m 10,0 C 13,2 C 3,2 km/h (1 Bft) 100,00 %
17.10.2018 10:06 13,2 C 0,0 C 81 % 1020,6 hPa 0,0 l/m 1,5 km/h (1 Bft) O 99 0,000 mm 0,8 UV-I 353 W/m 10,0 C 13,2 C 3,2 km/h (1 Bft) 100,00 %
17.10.2018 10:05 13,2 C 0,0 C 81 % 1020,6 hPa 0,0 l/m 1,4 km/h (1 Bft) O 99 0,000 mm 0,8 UV-I 353 W/m 10,0 C 13,2 C 3,2 km/h (1 Bft) 100,00 %
17.10.2018 10:04 13,2 C 0,0 C 79 % 1020,7 hPa 0,0 l/m 1,8 km/h (1 Bft) O 99 0,000 mm 0,8 UV-I 352 W/m 9,6 C 13,2 C 3,2 km/h (1 Bft) 95,65 %
17.10.2018 10:03 13,3 C 0,0 C 79 % 1020,7 hPa 0,0 l/m 1,3 km/h (1 Bft) O 99 0,000 mm 0,8 UV-I 348 W/m 9,7 C 13,3 C 3,2 km/h (1 Bft) 100,00 %
17.10.2018 10:02 13,6 C 0,0 C 78 % 1020,7 hPa 0,0 l/m 1,6 km/h (1 Bft) O 99 0,000 mm 0,8 UV-I 345 W/m 9,8 C 13,6 C 3,2 km/h (1 Bft) 96,15 %
17.10.2018 10:01 13,8 C 0,0 C 78 % 1020,7 hPa 0,0 l/m 1,3 km/h (1 Bft) O 99 0,000 mm 0,8 UV-I 343 W/m 10,0 C 13,8 C 3,2 km/h (1 Bft) 100,00 %
17.10.2018 10:00 14,1 C 0,0 C 78 % 1020,7 hPa 0,0 l/m 0,5 km/h (0 Bft) O-NO 68 0,152 mm 0,8 UV-I 339 W/m 10,3 C 14,1 C 1,6 km/h (1 Bft) 100,00 %
17.10.2018 09:59 14,2 C 0,0 C 77 % 1020,7 hPa 0,0 l/m 0,0 km/h (0 Bft) NO 48 0,000 mm 0,8 UV-I 338 W/m 10,2 C 14,2 C 0,0 km/h (0 Bft) 100,00 %
17.10.2018 09:58 14,1 C 0,0 C 76 % 1020,7 hPa 0,0 l/m 0,4 km/h (0 Bft) NO 48 0,000 mm 0,8 UV-I 338 W/m 9,9 C 14,1 C 1,6 km/h (1 Bft) 100,00 %
17.10.2018 09:55 13,7 C 0,0 C 79 % 1020,7 hPa 0,0 l/m 2,2 km/h (1 Bft) O 95 0,000 mm 0,7 UV-I 329 W/m 10,1 C 13,7 C 3,2 km/h (1 Bft) 100,00 %
17.10.2018 09:54 13,6 C 0,0 C 77 % 1020,7 hPa 0,0 l/m 2,1 km/h (1 Bft) O 95 0,000 mm 0,7 UV-I 327 W/m 9,6 C 13,6 C 3,2 km/h (1 Bft) 100,00 %
17.10.2018 09:53 13,5 C 0,0 C 79 % 1020,7 hPa 0,0 l/m 2,3 km/h (1 Bft) O 95 0,000 mm 0,7 UV-I 325 W/m 9,9 C 13,5 C 3,2 km/h (1 Bft) 100,00 %
17.10.2018 09:52 13,4 C 0,0 C 79 % 1020,7 hPa 0,0 l/m 2,2 km/h (1 Bft) O 100 0,000 mm 0,7 UV-I 323 W/m 9,8 C 13,4 C 3,2 km/h (1 Bft) 100,00 %
17.10.2018 09:51 13,2 C 0,0 C 79 % 1020,6 hPa 0,0 l/m 2,1 km/h (1 Bft) O 100 0,000 mm 0,7 UV-I 322 W/m 9,6 C 13,2 C 3,2 km/h (1 Bft) 100,00 %
17.10.2018 09:50 13,2 C 0,0 C 81 % 1020,6 hPa 0,0 l/m 1,1 km/h (1 Bft) O 100 0,000 mm 0,7 UV-I 318 W/m 10,0 C 13,2 C 1,6 km/h (1 Bft) 100,00 %
17.10.2018 09:49 13,2 C 0,0 C 79 % 1020,7 hPa 0,0 l/m 0,9 km/h (0 Bft) O 100 0,000 mm 0,7 UV-I 315 W/m 9,6 C 13,2 C 1,6 km/h (1 Bft) 100,00 %
17.10.2018 09:48 13,3 C 0,0 C 78 % 1020,8 hPa 0,0 l/m 0,5 km/h (0 Bft) O 100 0,000 mm 0,7 UV-I 313 W/m 9,5 C 13,3 C 1,6 km/h (1 Bft) 100,00 %
17.10.2018 09:47 13,3 C 0,0 C 80 % 1020,7 hPa 0,0 l/m 0,5 km/h (0 Bft) O 100 0,000 mm 0,7 UV-I 311 W/m 9,9 C 13,3 C 1,6 km/h (1 Bft) 100,00 %
17.10.2018 09:46 13,2 C 0,0 C 80 % 1020,7 hPa 0,0 l/m 0,8 km/h (0 Bft) O 100 0,000 mm 0,6 UV-I 308 W/m 9,8 C 13,2 C 1,6 km/h (1 Bft) 100,00 %
17.10.2018 09:45 13,1 C 0,0 C 78 % 1020,8 hPa 0,0 l/m 0,1 km/h (0 Bft) O 100 0,000 mm 0,6 UV-I 306 W/m 9,4 C 13,1 C 1,6 km/h (1 Bft) 98,61 %
17.10.2018 09:42 12,9 C 0,0 C 78 % 1020,8 hPa 0,0 l/m 0,0 km/h (0 Bft) O 100 0,000 mm 0,6 UV-I 297 W/m 9,2 C 12,9 C 0,0 km/h (0 Bft) 95,83 %
17.10.2018 09:41 12,8 C 0,0 C 74 % 1020,8 hPa 0,0 l/m 0,8 km/h (0 Bft) O 100 0,000 mm 0,6 UV-I 295 W/m 8,3 C 12,8 C 1,6 km/h (1 Bft) 100,00 %
17.10.2018 09:40 12,8 C 0,0 C 75 % 1020,8 hPa 0,0 l/m 0,4 km/h (0 Bft) O 100 0,000 mm 0,6 UV-I 295 W/m 8,5 C 12,8 C 1,6 km/h (1 Bft) 100,00 %
17.10.2018 09:39 12,9 C 0,0 C 74 % 1020,8 hPa 0,0 l/m 0,8 km/h (0 Bft) O 100 0,000 mm 0,6 UV-I 292 W/m 8,4 C 12,9 C 1,6 km/h (1 Bft) 95,65 %
17.10.2018 09:38 12,9 C 0,0 C 76 % 1020,8 hPa 0,0 l/m 0,7 km/h (0 Bft) O 100 0,000 mm 0,6 UV-I 288 W/m 8,8 C 12,9 C 3,2 km/h (1 Bft) 95,83 %
17.10.2018 09:37 13,0 C 0,0 C 74 % 1020,8 hPa 0,0 l/m 0,5 km/h (0 Bft) O 100 0,000 mm 0,6 UV-I 287 W/m 8,5 C 13,0 C 1,6 km/h (1 Bft) 100,00 %
17.10.2018 09:36 13,0 C 0,0 C 78 % 1020,8 hPa 0,0 l/m 1,3 km/h (1 Bft) O 100 0,000 mm 0,6 UV-I 285 W/m 9,3 C 13,0 C 3,2 km/h (1 Bft) 95,83 %
17.10.2018 09:35 12,8 C 0,0 C 75 % 1020,7 hPa 0,0 l/m 2,0 km/h (1 Bft) O 87 0,000 mm 0,5 UV-I 281 W/m 8,5 C 12,8 C 3,2 km/h (1 Bft) 96,15 %
17.10.2018 09:34 12,8 C 0,0 C 75 % 1020,7 hPa 0,0 l/m 2,2 km/h (1 Bft) O 86 0,000 mm 0,5 UV-I 279 W/m 8,5 C 12,8 C 4,8 km/h (1 Bft) 91,30 %
17.10.2018 09:33 12,9 C 0,0 C 75 % 1020,7 hPa 0,0 l/m 3,8 km/h (1 Bft) O 86 0,000 mm 0,5 UV-I 279 W/m 8,6 C 12,9 C 4,8 km/h (1 Bft) 97,59 %
17.10.2018 09:30 13,1 C 0,0 C 75 % 1020,8 hPa 0,0 l/m 2,1 km/h (1 Bft) SO 124 0,000 mm 0,5 UV-I 267 W/m 8,8 C 13,1 C 3,2 km/h (1 Bft) 94,12 %
17.10.2018 09:29 13,1 C 0,0 C 75 % 1020,8 hPa 0,0 l/m 1,0 km/h (0 Bft) SO 128 0,000 mm 0,5 UV-I 267 W/m 8,8 C 13,1 C 3,2 km/h (1 Bft) 91,67 %
17.10.2018 09:28 13,1 C 0,0 C 76 % 1020,7 hPa 0,0 l/m 1,3 km/h (1 Bft) SO 131 0,000 mm 0,5 UV-I 265 W/m 9,0 C 13,1 C 4,8 km/h (1 Bft) 100,00 %
17.10.2018 09:27 13,1 C 0,0 C 79 % 1020,8 hPa 0,0 l/m 1,9 km/h (1 Bft) SO 134 0,000 mm 0,5 UV-I 264 W/m 9,5 C 13,1 C 4,8 km/h (1 Bft) 95,83 %
17.10.2018 09:26 13,0 C 0,0 C 78 % 1020,7 hPa 0,0 l/m 2,7 km/h (1 Bft) SO 135 0,000 mm 0,5 UV-I 260 W/m 9,3 C 13,0 C 4,8 km/h (1 Bft) 100,00 %
17.10.2018 09:25 13,0 C 0,0 C 76 % 1020,7 hPa 0,0 l/m 2,9 km/h (1 Bft) O-SO 123 0,000 mm 0,5 UV-I 257 W/m 8,9 C 13,0 C 4,8 km/h (1 Bft) 95,83 %
17.10.2018 09:24 13,1 C 0,0 C 78 % 1020,7 hPa 0,0 l/m 2,3 km/h (1 Bft) O-SO 123 0,000 mm 0,5 UV-I 255 W/m 9,4 C 13,1 C 4,8 km/h (1 Bft) 100,00 %
17.10.2018 09:23 13,1 C 0,0 C 77 % 1020,7 hPa 0,0 l/m 2,1 km/h (1 Bft) SO 130 0,000 mm 0,5 UV-I 250 W/m 9,2 C 13,1 C 3,2 km/h (1 Bft) 96,30 %
17.10.2018 09:22 13,1 C 0,0 C 77 % 1020,7 hPa 0,0 l/m 3,3 km/h (1 Bft) SO 130 0,000 mm 0,0 UV-I 250 W/m 9,2 C 13,1 C 6,4 km/h (2 Bft) 96,10 %
17.10.2018 09:20 12,9 C 0,0 C 78 % 1020,7 hPa 0,0 l/m 1,6 km/h (1 Bft) SO 143 0,000 mm 0,0 UV-I 241 W/m 9,2 C 12,9 C 1,6 km/h (1 Bft) 98,60 %
17.10.2018 09:19 12,9 C 0,0 C 78 % 1020,7 hPa 0,0 l/m 2,7 km/h (1 Bft) SO 143 0,000 mm 0,0 UV-I 241 W/m 9,2 C 12,9 C 4,8 km/h (1 Bft) 100,00 %
17.10.2018 09:18 12,8 C 0,0 C 81 % 1020,7 hPa 0,0 l/m 3,1 km/h (1 Bft) SO 143 0,000 mm 0,0 UV-I 239 W/m 9,6 C 12,8 C 6,4 km/h (2 Bft) 96,15 %
17.10.2018 09:17 12,6 C 0,0 C 80 % 1020,7 hPa 0,0 l/m 1,5 km/h (1 Bft) O-SO 112 0,000 mm 0,0 UV-I 237 W/m 9,2 C 12,6 C 3,2 km/h (1 Bft) 100,00 %
17.10.2018 09:16 12,4 C 0,0 C 78 % 1020,7 hPa 0,0 l/m 1,5 km/h (1 Bft) O-SO 110 0,000 mm 0,0 UV-I 234 W/m 8,7 C 12,4 C 3,2 km/h (1 Bft) 95,65 %
17.10.2018 09:15 12,3 C 0,0 C 80 % 1020,7 hPa 0,0 l/m 0,9 km/h (0 Bft) O-SO 110 0,000 mm 0,0 UV-I 229 W/m 8,9 C 12,3 C 3,2 km/h (1 Bft) 100,00 %
17.10.2018 09:14 12,3 C 0,0 C 80 % 1020,7 hPa 0,0 l/m 0,3 km/h (0 Bft) O-SO 110 0,000 mm 0,0 UV-I 227 W/m 8,9 C 12,3 C 1,6 km/h (1 Bft) 95,83 %
17.10.2018 09:13 12,3 C 0,0 C 81 % 1020,7 hPa 0,0 l/m 0,1 km/h (0 Bft) O-SO 110 0,000 mm 0,0 UV-I 225 W/m 9,1 C 12,3 C 1,6 km/h (1 Bft) 96,15 %
17.10.2018 09:12 12,2 C 0,0 C 82 % 1020,7 hPa 0,0 l/m 0,1 km/h (0 Bft) O-SO 110 0,000 mm 0,0 UV-I 221 W/m 9,2 C 12,2 C 1,6 km/h (1 Bft) 100,00 %
17.10.2018 09:11 12,2 C 0,0 C 82 % 1020,7 hPa 0,0 l/m 0,5 km/h (0 Bft) O-SO 110 0,000 mm 0,0 UV-I 220 W/m 9,2 C 12,2 C 1,6 km/h (1 Bft) 96,15 %
17.10.2018 09:10 12,0 C 0,0 C 81 % 1020,7 hPa 0,0 l/m 1,1 km/h (1 Bft) O-SO 110 0,000 mm 0,0 UV-I 214 W/m 8,8 C 12,0 C 3,2 km/h (1 Bft) 100,00 %
17.10.2018 09:09 11,9 C 0,0 C 81 % 1020,7 hPa 0,0 l/m 2,2 km/h (1 Bft) O-SO 110 0,000 mm 0,0 UV-I 211 W/m 8,7 C 11,9 C 3,2 km/h (1 Bft) 92,31 %
17.10.2018 09:08 11,9 C 0,0 C 80 % 1020,7 hPa 0,0 l/m 1,9 km/h (1 Bft) O-SO 110 0,000 mm 0,0 UV-I 209 W/m 8,6 C 11,9 C 3,2 km/h (1 Bft) 100,00 %
17.10.2018 09:07 11,9 C 0,0 C 81 % 1020,6 hPa 0,0 l/m 2,2 km/h (1 Bft) O-SO 110 0,000 mm 0,0 UV-I 207 W/m 8,7 C 11,9 C 3,2 km/h (1 Bft) 95,83 %
17.10.2018 09:05 12,0 C 0,0 C 80 % 1020,5 hPa 0,0 l/m 0,0 km/h (0 Bft) O-SO 110 0,000 mm 0,0 UV-I 199 W/m 8,7 C 12,0 C 0,0 km/h (0 Bft) 98,68 %
17.10.2018 09:04 12,0 C 0,0 C 80 % 1020,5 hPa 0,0 l/m 2,4 km/h (1 Bft) O-SO 110 0,000 mm 0,0 UV-I 199 W/m 8,7 C 12,0 C 3,2 km/h (1 Bft) 95,83 %
17.10.2018 09:03 12,0 C 0,0 C 79 % 1020,6 hPa 0,0 l/m 2,8 km/h (1 Bft) O-SO 109 0,000 mm 0,0 UV-I 193 W/m 8,5 C 12,0 C 4,8 km/h (1 Bft) 100,00 %
17.10.2018 09:02 12,1 C 0,0 C 78 % 1020,5 hPa 0,0 l/m 3,1 km/h (1 Bft) O-SO 111 0,000 mm 0,0 UV-I 190 W/m 8,4 C 12,1 C 4,8 km/h (1 Bft) 95,83 %
17.10.2018 09:01 12,3 C 0,0 C 80 % 1020,5 hPa 0,0 l/m 2,1 km/h (1 Bft) O-SO 110 0,000 mm 0,0 UV-I 188 W/m 8,9 C 12,3 C 3,2 km/h (1 Bft) 100,00 %
17.10.2018 09:00 12,3 C 0,0 C 81 % 1020,5 hPa 0,0 l/m 1,6 km/h (1 Bft) O-SO 107 0,051 mm 0,0 UV-I 185 W/m 9,1 C 12,3 C 4,8 km/h (1 Bft) 95,83 %
17.10.2018 08:59 12,3 C 0,0 C 79 % 1020,5 hPa 0,0 l/m 2,3 km/h (1 Bft) O-SO 108 0,000 mm 0,0 UV-I 183 W/m 8,8 C 12,3 C 4,8 km/h (1 Bft) 95,65 %
17.10.2018 08:58 12,4 C 0,0 C 78 % 1020,5 hPa 0,0 l/m 3,0 km/h (1 Bft) O-SO 112 0,000 mm 0,0 UV-I 179 W/m 8,7 C 12,4 C 4,8 km/h (1 Bft) 95,83 %
17.10.2018 08:57 12,4 C 0,0 C 79 % 1020,5 hPa 0,0 l/m 1,6 km/h (1 Bft) O-SO 105 0,000 mm 0,0 UV-I 174 W/m 8,9 C 12,4 C 3,2 km/h (1 Bft) 92,31 %
17.10.2018 08:56 12,6 C 0,0 C 78 % 1020,6 hPa 0,0 l/m 1,5 km/h (1 Bft) O-SO 107 0,000 mm 0,0 UV-I 172 W/m 8,9 C 12,6 C 4,8 km/h (1 Bft) 100,00 %
17.10.2018 08:55 12,6 C 0,0 C 78 % 1020,5 hPa 0,0 l/m 4,8 km/h (1 Bft) O-SO 107 0,000 mm 0,0 UV-I 169 W/m 8,9 C 12,6 C 6,4 km/h (2 Bft) 95,83 %
17.10.2018 08:54 12,6 C 0,0 C 77 % 1020,5 hPa 0,0 l/m 3,6 km/h (1 Bft) O-SO 107 0,000 mm 0,0 UV-I 165 W/m 8,7 C 12,6 C 6,4 km/h (2 Bft) 95,65 %
17.10.2018 08:53 12,7 C 0,0 C 76 % 1020,5 hPa 0,0 l/m 3,4 km/h (1 Bft) O-SO 112 0,000 mm 0,0 UV-I 163 W/m 8,6 C 12,7 C 8,0 km/h (2 Bft) 100,00 %
17.10.2018 08:52 12,7 C 0,0 C 77 % 1020,5 hPa 0,0 l/m 0,0 km/h (0 Bft) NW 322 0,000 mm 0,0 UV-I 160 W/m 8,8 C 12,7 C 0,0 km/h (0 Bft) 100,00 %
17.10.2018 08:51 12,7 C 0,0 C 77 % 1020,5 hPa 0,0 l/m 0,0 km/h (0 Bft) NW 318 0,000 mm 0,0 UV-I 155 W/m 8,8 C 12,7 C 0,0 km/h (0 Bft) 100,00 %
17.10.2018 08:50 12,8 C 0,0 C 79 % 1020,5 hPa 0,0 l/m 0,0 km/h (0 Bft) NW 313 0,000 mm 0,0 UV-I 153 W/m 9,2 C 12,8 C 0,0 km/h (0 Bft) 100,00 %
17.10.2018 08:49 12,8 C 0,0 C 79 % 1020,5 hPa 0,0 l/m 0,0 km/h (0 Bft) NW 311 0,000 mm 0,0 UV-I 149 W/m 9,2 C 12,8 C 0,0 km/h (0 Bft) 100,00 %
17.10.2018 08:48 12,8 C 0,0 C 77 % 1020,5 hPa 0,0 l/m 0,0 km/h (0 Bft) NW 310 0,000 mm 0,0 UV-I 146 W/m 8,9 C 12,8 C 0,0 km/h (0 Bft) 100,00 %
17.10.2018 08:47 12,8 C 0,0 C 77 % 1020,5 hPa 0,0 l/m 0,0 km/h (0 Bft) NW 309 0,000 mm 0,0 UV-I 144 W/m 8,9 C 12,8 C 0,0 km/h (0 Bft) 100,00 %
17.10.2018 08:46 12,8 C 0,0 C 76 % 1020,5 hPa 0,0 l/m 0,0 km/h (0 Bft) NW 308 0,000 mm 0,0 UV-I 141 W/m 8,7 C 12,8 C 0,0 km/h (0 Bft) 95,65 %
17.10.2018 08:45 12,8 C 0,0 C 76 % 1020,5 hPa 0,0 l/m 0,0 km/h (0 Bft) NW 306 0,000 mm 0,0 UV-I 135 W/m 8,7 C 12,8 C 0,0 km/h (0 Bft) 100,00 %
17.10.2018 08:44 12,8 C 0,0 C 77 % 1020,5 hPa 0,0 l/m 0,1 km/h (0 Bft) NW 306 0,000 mm 0,0 UV-I 134 W/m 8,9 C 12,8 C 1,6 km/h (1 Bft) 100,00 %
17.10.2018 08:43 12,8 C 0,0 C 77 % 1020,5 hPa 0,0 l/m 0,1 km/h (0 Bft) NW 306 0,000 mm 0,0 UV-I 130 W/m 8,9 C 12,8 C 1,6 km/h (1 Bft) 100,00 %
17.10.2018 08:42 12,8 C 0,0 C 77 % 1020,5 hPa 0,0 l/m 0,0 km/h (0 Bft) NW 306 0,000 mm 0,0 UV-I 127 W/m 8,9 C 12,8 C 0,0 km/h (0 Bft) 100,00 %
17.10.2018 08:39 12,8 C 0,0 C 77 % 1020,5 hPa 0,0 l/m 0,0 km/h (0 Bft) NW 306 0,000 mm 0,0 UV-I 116 W/m 8,9 C 12,8 C 0,0 km/h (0 Bft) 100,00 %
17.10.2018 08:38 12,8 C 0,0 C 77 % 1020,5 hPa 0,0 l/m 0,0 km/h (0 Bft) NW 306 0,000 mm 0,0 UV-I 116 W/m 8,9 C 12,8 C 0,0 km/h (0 Bft) 100,00 %
17.10.2018 08:37 12,8 C 0,0 C 78 % 1020,5 hPa 0,0 l/m 0,0 km/h (0 Bft) NW 306 0,000 mm 0,0 UV-I 113 W/m 9,1 C 12,8 C 0,0 km/h (0 Bft) 91,30 %
17.10.2018 08:36 12,8 C 0,0 C 76 % 1020,5 hPa 0,0 l/m 0,0 km/h (0 Bft) NW 306 0,000 mm 0,0 UV-I 111 W/m 8,7 C 12,8 C 0,0 km/h (0 Bft) 100,00 %
17.10.2018 08:35 12,8 C 0,0 C 75 % 1020,5 hPa 0,0 l/m 0,0 km/h (0 Bft) NW 306 0,000 mm 0,0 UV-I 107 W/m 8,5 C 12,8 C 0,0 km/h (0 Bft) 100,00 %
17.10.2018 08:34 12,8 C 0,0 C 76 % 1020,5 hPa 0,0 l/m 0,0 km/h (0 Bft) NW 306 0,000 mm 0,0 UV-I 104 W/m 8,7 C 12,8 C 0,0 km/h (0 Bft) 100,00 %
17.10.2018 08:33 12,8 C 0,0 C 77 % 1020,5 hPa 0,0 l/m 0,0 km/h (0 Bft) NW 306 0,000 mm 0,0 UV-I 100 W/m 8,9 C 12,8 C 0,0 km/h (0 Bft) 100,00 %
17.10.2018 08:32 12,7 C 0,0 C 76 % 1020,5 hPa 0,0 l/m 0,0 km/h (0 Bft) NW 306 0,000 mm 0,0 UV-I 98 W/m 8,6 C 12,7 C 0,0 km/h (0 Bft) 100,00 %
17.10.2018 08:31 12,7 C 0,0 C 75 % 1020,5 hPa 0,0 l/m 0,0 km/h (0 Bft) NW 306 0,000 mm 0,0 UV-I 97 W/m 8,4 C 12,7 C 0,0 km/h (0 Bft) 100,00 %
17.10.2018 08:30 12,7 C 0,0 C 76 % 1020,5 hPa 0,0 l/m 0,0 km/h (0 Bft) NW 306 0,000 mm 0,0 UV-I 95 W/m 8,6 C 12,7 C 0,0 km/h (0 Bft) 100,00 %
17.10.2018 08:29 12,6 C 0,0 C 75 % 1020,5 hPa 0,0 l/m 0,0 km/h (0 Bft) NW 306 0,000 mm 0,0 UV-I 93 W/m 8,3 C 12,6 C 0,0 km/h (0 Bft) 98,82 %
17.10.2018 08:26 12,4 C 0,0 C 76 % 1020,5 hPa 0,0 l/m 0,0 km/h (0 Bft) NW 306 0,000 mm 0,0 UV-I 81 W/m 8,3 C 12,4 C 0,0 km/h (0 Bft) 100,00 %
17.10.2018 08:25 12,4 C 0,0 C 76 % 1020,5 hPa 0,0 l/m 0,0 km/h (0 Bft) NW 306 0,000 mm 0,0 UV-I 81 W/m 8,3 C 12,4 C 0,0 km/h (0 Bft) 95,65 %
17.10.2018 08:24 12,4 C 0,0 C 77 % 1020,5 hPa 0,0 l/m 0,0 km/h (0 Bft) NW 306 0,000 mm 0,0 UV-I 79 W/m 8,5 C 12,4 C 0,0 km/h (0 Bft) 100,00 %
17.10.2018 08:23 12,4 C 0,0 C 77 % 1020,5 hPa 0,0 l/m 0,0 km/h (0 Bft) NW 306 0,000 mm 0,0 UV-I 77 W/m 8,5 C 12,4 C 0,0 km/h (0 Bft) 100,00 %
17.10.2018 08:22 12,4 C 0,0 C 76 % 1020,5 hPa 0,0 l/m 0,0 km/h (0 Bft) NW 306 0,000 mm 0,0 UV-I 74 W/m 8,3 C 12,4 C 0,0 km/h (0 Bft) 100,00 %
17.10.2018 08:21 12,4 C 0,0 C 76 % 1020,5 hPa 0,0 l/m 0,0 km/h (0 Bft) NW 306 0,000 mm 0,0 UV-I 72 W/m 8,3 C 12,4 C 0,0 km/h (0 Bft) 100,00 %
17.10.2018 08:20 12,4 C 0,0 C 76 % 1020,5 hPa 0,0 l/m 0,0 km/h (0 Bft) NW 306 0,000 mm 0,0 UV-I 69 W/m 8,3 C 12,4 C 0,0 km/h (0 Bft) 100,00 %
17.10.2018 08:19 12,4 C 0,0 C 76 % 1020,4 hPa 0,0 l/m 0,0 km/h (0 Bft) NW 306 0,000 mm 0,0 UV-I 67 W/m 8,3 C 12,4 C 0,0 km/h (0 Bft) 100,00 %
17.10.2018 08:16 12,6 C 0,0 C 77 % 1020,4 hPa 0,0 l/m 0,0 km/h (0 Bft) NW 306 0,000 mm 0,0 UV-I 60 W/m 8,7 C 12,6 C 0,0 km/h (0 Bft) 100,00 %
17.10.2018 08:15 12,6 C 0,0 C 77 % 1020,4 hPa 0,0 l/m 0,0 km/h (0 Bft) NW 306 0,000 mm 0,0 UV-I 58 W/m 8,7 C 12,6 C 0,0 km/h (0 Bft) 100,00 %
17.10.2018 08:14 12,7 C 0,0 C 76 % 1020,4 hPa 0,0 l/m 0,0 km/h (0 Bft) NW 306 0,000 mm 0,0 UV-I 56 W/m 8,6 C 12,7 C 0,0 km/h (0 Bft) 100,00 %
17.10.2018 08:13 12,7 C 0,0 C 76 % 1020,4 hPa 0,0 l/m 0,0 km/h (0 Bft) NW 306 0,000 mm 0,0 UV-I 54 W/m 8,6 C 12,7 C 0,0 km/h (0 Bft) 100,00 %
17.10.2018 08:12 12,7 C 0,0 C 75 % 1020,4 hPa 0,0 l/m 0,0 km/h (0 Bft) NW 306 0,000 mm 0,0 UV-I 53 W/m 8,4 C 12,7 C 0,0 km/h (0 Bft) 100,00 %
17.10.2018 08:11 12,7 C 0,0 C 76 % 1020,4 hPa 0,0 l/m 0,0 km/h (0 Bft) NW 306 0,000 mm 0,0 UV-I 51 W/m 8,6 C 12,7 C 0,0 km/h (0 Bft) 100,00 %
17.10.2018 08:10 12,8 C 0,0 C 76 % 1020,4 hPa 0,0 l/m 0,0 km/h (0 Bft) NW 306 0,000 mm 0,0 UV-I 47 W/m 8,7 C 12,8 C 0,0 km/h (0 Bft) 100,00 %
17.10.2018 08:09 12,8 C 0,0 C 74 % 1020,4 hPa 0,0 l/m 0,0 km/h (0 Bft) NW 306 0,000 mm 0,0 UV-I 46 W/m 8,3 C 12,8 C 0,0 km/h (0 Bft) 100,00 %
17.10.2018 08:08 12,7 C 0,0 C 75 % 1020,4 hPa 0,0 l/m 0,0 km/h (0 Bft) NW 306 0,000 mm 0,0 UV-I 44 W/m 8,4 C 12,7 C 0,0 km/h (0 Bft) 100,00 %
17.10.2018 08:07 12,7 C 0,0 C 76 % 1020,3 hPa 0,0 l/m 0,0 km/h (0 Bft) NW 306 0,000 mm 0,0 UV-I 42 W/m 8,6 C 12,7 C 0,0 km/h (0 Bft) 100,00 %
17.10.2018 08:06 12,6 C 0,0 C 76 % 1020,3 hPa 0,0 l/m 0,0 km/h (0 Bft) NW 306 0,000 mm 0,0 UV-I 40 W/m 8,5 C 12,6 C 0,0 km/h (0 Bft) 100,00 %
17.10.2018 08:05 12,5 C 0,0 C 76 % 1020,3 hPa 0,0 l/m 0,0 km/h (0 Bft) NW 306 0,000 mm 0,0 UV-I 37 W/m 8,4 C 12,5 C 0,0 km/h (0 Bft) 100,00 %
17.10.2018 08:04 12,4 C 0,0 C 77 % 1020,3 hPa 0,0 l/m 0,0 km/h (0 Bft) NW 306 0,000 mm 0,0 UV-I 35 W/m 8,5 C 12,4 C 0,0 km/h (0 Bft) 100,00 %
17.10.2018 08:03 12,3 C 0,0 C 76 % 1020,4 hPa 0,0 l/m 0,0 km/h (0 Bft) NW 306 0,000 mm 0,0 UV-I 33 W/m 8,2 C 12,3 C 0,0 km/h (0 Bft) 100,00 %
17.10.2018 08:02 12,2 C 0,0 C 77 % 1020,3 hPa 0,0 l/m 0,0 km/h (0 Bft) NW 306 0,000 mm 0,0 UV-I 33 W/m 8,3 C 12,2 C 0,0 km/h (0 Bft) 100,00 %
17.10.2018 08:01 12,0 C 0,0 C 77 % 1020,3 hPa 0,0 l/m 0,0 km/h (0 Bft) NW 306 0,000 mm 0,0 UV-I 32 W/m 8,1 C 12,0 C 0,0 km/h (0 Bft) 100,00 %
17.10.2018 08:00 11,9 C 0,0 C 78 % 1020,2 hPa 0,0 l/m 0,0 km/h (0 Bft) NW 306 0,000 mm 0,0 UV-I 30 W/m 8,2 C 11,9 C 0,0 km/h (0 Bft) 100,00 %
17.10.2018 07:59 11,8 C 0,0 C 79 % 1020,2 hPa 0,0 l/m 0,0 km/h (0 Bft) NW 306 0,000 mm 0,0 UV-I 28 W/m 8,3 C 11,8 C 0,0 km/h (0 Bft) 100,00 %
17.10.2018 07:58 11,7 C 0,0 C 79 % 1020,3 hPa 0,0 l/m 0,0 km/h (0 Bft) NW 306 0,000 mm 0,0 UV-I 26 W/m 8,2 C 11,7 C 0,0 km/h (0 Bft) 95,65 %
17.10.2018 07:57 11,7 C 0,0 C 79 % 1020,3 hPa 0,0 l/m 0,0 km/h (0 Bft) NW 306 0,000 mm 0,0 UV-I 25 W/m 8,2 C 11,7 C 0,0 km/h (0 Bft) 100,00 %
17.10.2018 07:56 11,6 C 0,0 C 79 % 1020,3 hPa 0,0 l/m 0,0 km/h (0 Bft) NW 306 0,000 mm 0,0 UV-I 23 W/m 8,1 C 11,6 C 0,0 km/h (0 Bft) 100,00 %
17.10.2018 07:55 11,6 C 0,0 C 79 % 1020,3 hPa 0,0 l/m 0,0 km/h (0 Bft) NW 306 0,000 mm 0,0 UV-I 21 W/m 8,1 C 11,6 C 0,0 km/h (0 Bft) 100,00 %
17.10.2018 07:54 11,6 C 0,0 C 79 % 1020,2 hPa 0,0 l/m 0,0 km/h (0 Bft) NW 306 0,000 mm 0,0 UV-I 19 W/m 8,1 C 11,6 C 0,0 km/h (0 Bft) 100,00 %
17.10.2018 07:53 11,6 C 0,0 C 79 % 1020,3 hPa 0,0 l/m 0,0 km/h (0 Bft) NW 306 0,000 mm 0,0 UV-I 14 W/m 8,1 C 11,6 C 0,0 km/h (0 Bft) 100,00 %
17.10.2018 07:52 11,6 C 0,0 C 79 % 1020,2 hPa 0,0 l/m 0,0 km/h (0 Bft) NW 306 0,000 mm 0,0 UV-I 12 W/m 8,1 C 11,6 C 0,0 km/h (0 Bft) 100,00 %
17.10.2018 07:51 11,6 C 0,0 C 78 % 1020,2 hPa 0,0 l/m 0,0 km/h (0 Bft) NW 306 0,000 mm 0,0 UV-I 12 W/m 7,9 C 11,6 C 0,0 km/h (0 Bft) 100,00 %
17.10.2018 07:50 11,6 C 0,0 C 78 % 1020,3 hPa 0,0 l/m 0,0 km/h (0 Bft) NW 306 0,000 mm 0,0 UV-I 11 W/m 7,9 C 11,6 C 0,0 km/h (0 Bft) 100,00 %
17.10.2018 07:49 11,6 C 0,0 C 78 % 1020,1 hPa 0,0 l/m 0,0 km/h (0 Bft) NW 306 0,000 mm 0,0 UV-I 11 W/m 7,9 C 11,6 C 0,0 km/h (0 Bft) 100,00 %
17.10.2018 07:48 11,6 C 0,0 C 78 % 1020,2 hPa 0,0 l/m 0,0 km/h (0 Bft) NW 306 0,000 mm 0,0 UV-I 9 W/m 7,9 C 11,6 C 0,0 km/h (0 Bft) 100,00 %
17.10.2018 07:47 11,6 C 0,0 C 78 % 1020,2 hPa 0,0 l/m 0,0 km/h (0 Bft) NW 306 0,000 mm 0,0 UV-I 9 W/m 7,9 C 11,6 C 0,0 km/h (0 Bft) 96,15 %
17.10.2018 07:46 11,6 C 0,0 C 78 % 1020,2 hPa 0,0 l/m 0,0 km/h (0 Bft) NW 306 0,000 mm 0,0 UV-I 7 W/m 7,9 C 11,6 C 0,0 km/h (0 Bft) 100,00 %
17.10.2018 07:45 11,5 C 0,0 C 79 % 1020,2 hPa 0,0 l/m 0,0 km/h (0 Bft) NW 306 0,000 mm 0,0 UV-I 7 W/m 8,0 C 11,5 C 0,0 km/h (0 Bft) 100,00 %
17.10.2018 07:44 11,5 C 0,0 C 79 % 1020,2 hPa 0,0 l/m 0,0 km/h (0 Bft) NW 306 0,000 mm 0,0 UV-I 7 W/m 8,0 C 11,5 C 0,0 km/h (0 Bft) 100,00 %
17.10.2018 07:43 11,4 C 0,0 C 79 % 1020,2 hPa 0,0 l/m 0,0 km/h (0 Bft) NW 306 0,000 mm 0,0 UV-I 7 W/m 7,9 C 11,4 C 0,0 km/h (0 Bft) 100,00 %
17.10.2018 07:42 11,4 C 0,0 C 79 % 1020,2 hPa 0,0 l/m 0,0 km/h (0 Bft) NW 306 0,000 mm 0,0 UV-I 7 W/m 7,9 C 11,4 C 0,0 km/h (0 Bft) 100,00 %
17.10.2018 07:41 11,4 C 0,0 C 80 % 1020,2 hPa 0,0 l/m 0,0 km/h (0 Bft) NW 306 0,000 mm 0,0 UV-I 5 W/m 8,1 C 11,4 C 0,0 km/h (0 Bft) 100,00 %
17.10.2018 07:40 11,4 C 0,0 C 79 % 1020,2 hPa 0,0 l/m 0,0 km/h (0 Bft) NW 306 0,000 mm 0,0 UV-I 5 W/m 7,9 C 11,4 C 0,0 km/h (0 Bft) 100,00 %
17.10.2018 07:39 11,3 C 0,0 C 80 % 1020,1 hPa 0,0 l/m 0,0 km/h (0 Bft) NW 306 0,000 mm 0,0 UV-I 5 W/m 8,0 C 11,3 C 0,0 km/h (0 Bft) 100,00 %
17.10.2018 07:38 11,3 C 0,0 C 80 % 1020,1 hPa 0,0 l/m 0,0 km/h (0 Bft) NW 306 0,000 mm 0,0 UV-I 5 W/m 8,0 C 11,3 C 0,0 km/h (0 Bft) 95,83 %
17.10.2018 07:37 11,3 C 0,0 C 80 % 1020,1 hPa 0,0 l/m 0,0 km/h (0 Bft) NW 306 0,000 mm 0,0 UV-I 5 W/m 8,0 C 11,3 C 0,0 km/h (0 Bft) 91,30 %
17.10.2018 07:36 11,3 C 0,0 C 80 % 1020,1 hPa 0,0 l/m 0,0 km/h (0 Bft) NW 306 0,000 mm 0,0 UV-I 0 W/m 8,0 C 11,3 C 0,0 km/h (0 Bft) 100,00 %
17.10.2018 07:35 11,3 C 0,0 C 80 % 1020,1 hPa 0,0 l/m 0,0 km/h (0 Bft) NW 322 0,000 mm 0,0 UV-I 0 W/m 8,0 C 11,3 C 0,0 km/h (0 Bft) 100,00 %
17.10.2018 07:34 11,3 C 0,0 C 80 % 1020,1 hPa 0,0 l/m 0,0 km/h (0 Bft) NW 322 0,000 mm 0,0 UV-I 0 W/m 8,0 C 11,3 C 0,0 km/h (0 Bft) 100,00 %
17.10.2018 07:33 11,3 C 0,0 C 80 % 1020,1 hPa 0,0 l/m 0,0 km/h (0 Bft) NW 322 0,000 mm 0,0 UV-I 0 W/m 8,0 C 11,3 C 0,0 km/h (0 Bft) 100,00 %
17.10.2018 07:32 11,3 C 0,0 C 80 % 1020,1 hPa 0,0 l/m 0,0 km/h (0 Bft) NW 322 0,000 mm 0,0 UV-I 0 W/m 8,0 C 11,3 C 0,0 km/h (0 Bft) 100,00 %
17.10.2018 07:31 11,3 C 0,0 C 80 % 1020,0 hPa 0,0 l/m 0,0 km/h (0 Bft) NW 322 0,000 mm 0,0 UV-I 0 W/m 8,0 C 11,3 C 0,0 km/h (0 Bft) 100,00 %
17.10.2018 07:30 11,3 C 0,0 C 80 % 1020,0 hPa 0,0 l/m 0,0 km/h (0 Bft) NW 322 0,000 mm 0,0 UV-I 0 W/m 8,0 C 11,3 C 0,0 km/h (0 Bft) 100,00 %
17.10.2018 07:29 11,3 C 0,0 C 80 % 1020,0 hPa 0,0 l/m 0,0 km/h (0 Bft) NW 322 0,000 mm 0,0 UV-I 0 W/m 8,0 C 11,3 C 0,0 km/h (0 Bft) 100,00 %
17.10.2018 07:28 11,3 C 0,0 C 80 % 1020,0 hPa 0,0 l/m 0,0 km/h (0 Bft) NW 322 0,000 mm 0,0 UV-I 0 W/m 8,0 C 11,3 C 0,0 km/h (0 Bft) 100,00 %
17.10.2018 07:27 11,3 C 0,0 C 80 % 1020,0 hPa 0,0 l/m 0,0 km/h (0 Bft) NW 322 0,000 mm 0,0 UV-I 0 W/m 8,0 C 11,3 C 0,0 km/h (0 Bft) 100,00 %
17.10.2018 07:26 11,3 C 0,0 C 80 % 1020,0 hPa 0,0 l/m 0,0 km/h (0 Bft) NW 322 0,000 mm 0,0 UV-I 0 W/m 8,0 C 11,3 C 0,0 km/h (0 Bft) 100,00 %
17.10.2018 07:25 11,3 C 0,0 C 79 % 1020,0 hPa 0,0 l/m 0,0 km/h (0 Bft) NW 322 0,000 mm 0,0 UV-I 0 W/m 7,8 C 11,3 C 0,0 km/h (0 Bft) 100,00 %
17.10.2018 07:24 11,4 C 0,0 C 80 % 1019,9 hPa 0,0 l/m 0,0 km/h (0 Bft) NW 322 0,000 mm 0,0 UV-I 0 W/m 8,1 C 11,4 C 0,0 km/h (0 Bft) 100,00 %
17.10.2018 07:23 11,3 C 0,0 C 80 % 1019,9 hPa 0,0 l/m 0,0 km/h (0 Bft) NW 322 0,000 mm 0,0 UV-I 0 W/m 8,0 C 11,3 C 0,0 km/h (0 Bft) 100,00 %
17.10.2018 07:22 11,4 C 0,0 C 79 % 1019,9 hPa 0,0 l/m 0,0 km/h (0 Bft) NW 322 0,000 mm 0,0 UV-I 0 W/m 7,9 C 11,4 C 0,0 km/h (0 Bft) 100,00 %
17.10.2018 07:21 11,4 C 0,0 C 80 % 1019,9 hPa 0,0 l/m 0,0 km/h (0 Bft) NW 322 0,000 mm 0,0 UV-I 0 W/m 8,1 C 11,4 C 0,0 km/h (0 Bft) 100,00 %
17.10.2018 07:20 11,4 C 0,0 C 80 % 1019,9 hPa 0,0 l/m 0,0 km/h (0 Bft) NW 322 0,000 mm 0,0 UV-I 0 W/m 8,1 C 11,4 C 0,0 km/h (0 Bft) 100,00 %
17.10.2018 07:19 11,4 C 0,0 C 79 % 1019,9 hPa 0,0 l/m 0,0 km/h (0 Bft) NW 322 0,000 mm 0,0 UV-I 0 W/m 7,9 C 11,4 C 0,0 km/h (0 Bft) 100,00 %
17.10.2018 07:18 11,4 C 0,0 C 79 % 1019,8 hPa 0,0 l/m 0,0 km/h (0 Bft) NW 322 0,000 mm 0,0 UV-I 0 W/m 7,9 C 11,4 C 0,0 km/h (0 Bft) 100,00 %
17.10.2018 07:17 11,4 C 0,0 C 79 % 1019,9 hPa 0,0 l/m 0,0 km/h (0 Bft) NW 322 0,000 mm 0,0 UV-I 0 W/m 7,9 C 11,4 C 0,0 km/h (0 Bft) 100,00 %
17.10.2018 07:16 11,4 C 0,0 C 79 % 1019,9 hPa 0,0 l/m 0,0 km/h (0 Bft) NW 322 0,000 mm 0,0 UV-I 0 W/m 7,9 C 11,4 C 0,0 km/h (0 Bft) 100,00 %
17.10.2018 07:15 11,4 C 0,0 C 79 % 1019,9 hPa 0,0 l/m 0,0 km/h (0 Bft) NW 322 0,000 mm 0,0 UV-I 0 W/m 7,9 C 11,4 C 0,0 km/h (0 Bft) 100,00 %
17.10.2018 07:14 11,4 C 0,0 C 79 % 1019,8 hPa 0,0 l/m 0,0 km/h (0 Bft) NW 322 0,000 mm 0,0 UV-I 0 W/m 7,9 C 11,4 C 0,0 km/h (0 Bft) 100,00 %
17.10.2018 07:13 11,5 C 0,0 C 79 % 1019,8 hPa 0,0 l/m 0,0 km/h (0 Bft) NW 322 0,000 mm 0,0 UV-I 0 W/m 8,0 C 11,5 C 0,0 km/h (0 Bft) 100,00 %
17.10.2018 07:12 11,5 C 0,0 C 79 % 1019,8 hPa 0,0 l/m 0,0 km/h (0 Bft) NW 322 0,000 mm 0,0 UV-I 0 W/m 8,0 C 11,5 C 0,0 km/h (0 Bft) 100,00 %
17.10.2018 07:11 11,6 C 0,0 C 78 % 1019,8 hPa 0,0 l/m 0,0 km/h (0 Bft) NW 322 0,000 mm 0,0 UV-I 0 W/m 7,9 C 11,6 C 0,0 km/h (0 Bft) 96,15 %
17.10.2018 07:10 11,7 C 0,0 C 78 % 1019,8 hPa 0,0 l/m 0,0 km/h (0 Bft) NW 322 0,000 mm 0,0 UV-I 0 W/m 8,0 C 11,7 C 0,0 km/h (0 Bft) 97,83 %
17.10.2018 07:07 11,7 C 0,0 C 78 % 1019,8 hPa 0,0 l/m 0,0 km/h (0 Bft) NW 322 0,000 mm 0,0 UV-I 0 W/m 8,0 C 11,7 C 0,0 km/h (0 Bft) 98,34 %
17.10.2018 07:06 11,7 C 0,0 C 78 % 1019,8 hPa 0,0 l/m 0,0 km/h (0 Bft) NW 322 0,000 mm 0,0 UV-I 0 W/m 8,0 C 11,7 C 0,0 km/h (0 Bft) 100,00 %
17.10.2018 07:05 11,7 C 0,0 C 78 % 1019,9 hPa 0,0 l/m 0,0 km/h (0 Bft) NW 322 0,000 mm 0,0 UV-I 0 W/m 8,0 C 11,7 C 0,0 km/h (0 Bft) 95,83 %
17.10.2018 07:04 11,7 C 0,0 C 78 % 1019,8 hPa 0,0 l/m 0,0 km/h (0 Bft) NW 322 0,000 mm 0,0 UV-I 0 W/m 8,0 C 11,7 C 0,0 km/h (0 Bft) 100,00 %
17.10.2018 07:03 11,7 C 0,0 C 78 % 1019,8 hPa 0,0 l/m 0,0 km/h (0 Bft) NW 322 0,000 mm 0,0 UV-I 0 W/m 8,0 C 11,7 C 0,0 km/h (0 Bft) 95,65 %
17.10.2018 07:02 11,7 C 0,0 C 78 % 1019,8 hPa 0,0 l/m 0,0 km/h (0 Bft) NW 322 0,000 mm 0,0 UV-I 0 W/m 8,0 C 11,7 C 0,0 km/h (0 Bft) 96,30 %
17.10.2018 07:01 11,7 C 0,0 C 78 % 1019,8 hPa 0,0 l/m 0,0 km/h (0 Bft) NW 322 0,000 mm 0,0 UV-I 0 W/m 8,0 C 11,7 C 0,0 km/h (0 Bft) 100,00 %
17.10.2018 07:00 11,8 C 0,0 C 78 % 1019,8 hPa 0,0 l/m 0,0 km/h (0 Bft) NW 322 0,026 mm 0,0 UV-I 0 W/m 8,1 C 11,8 C 0,0 km/h (0 Bft) 95,83 %
17.10.2018 06:59 11,8 C 0,0 C 78 % 1019,9 hPa 0,0 l/m 0,0 km/h (0 Bft) NW 322 0,000 mm 0,0 UV-I 0 W/m 8,1 C 11,8 C 0,0 km/h (0 Bft) 100,00 %
17.10.2018 06:58 11,8 C 0,0 C 78 % 1019,9 hPa 0,0 l/m 0,0 km/h (0 Bft) NW 322 0,000 mm 0,0 UV-I 0 W/m 8,1 C 11,8 C 0,0 km/h (0 Bft) 97,56 %
17.10.2018 06:55 11,9 C 0,0 C 77 % 1019,8 hPa 0,0 l/m 0,0 km/h (0 Bft) NW 322 0,000 mm 0,0 UV-I 0 W/m 8,0 C 11,9 C 0,0 km/h (0 Bft) 91,67 %
17.10.2018 06:54 11,9 C 0,0 C 77 % 1019,8 hPa 0,0 l/m 0,0 km/h (0 Bft) NW 322 0,000 mm 0,0 UV-I 0 W/m 8,0 C 11,9 C 0,0 km/h (0 Bft) 95,65 %
17.10.2018 06:53 12,0 C 0,0 C 77 % 1019,8 hPa 0,0 l/m 0,0 km/h (0 Bft) NW 322 0,000 mm 0,0 UV-I 0 W/m 8,1 C 12,0 C 0,0 km/h (0 Bft) 95,83 %
17.10.2018 06:52 12,1 C 0,0 C 77 % 1019,8 hPa 0,0 l/m 0,0 km/h (0 Bft) NW 322 0,000 mm 0,0 UV-I 0 W/m 8,2 C 12,1 C 0,0 km/h (0 Bft) 95,65 %
17.10.2018 06:51 12,1 C 0,0 C 77 % 1019,8 hPa 0,0 l/m 0,0 km/h (0 Bft) NW 322 0,000 mm 0,0 UV-I 0 W/m 8,2 C 12,1 C 0,0 km/h (0 Bft) 91,30 %
17.10.2018 06:50 12,1 C 0,0 C 77 % 1019,8 hPa 0,0 l/m 0,0 km/h (0 Bft) NW 322 0,000 mm 0,0 UV-I 0 W/m 8,2 C 12,1 C 0,0 km/h (0 Bft) 100,00 %
17.10.2018 06:49 12,1 C 0,0 C 77 % 1019,8 hPa 0,0 l/m 0,0 km/h (0 Bft) NW 322 0,000 mm 0,0 UV-I 0 W/m 8,2 C 12,1 C 0,0 km/h (0 Bft) 96,67 %
17.10.2018 06:46 12,0 C 0,0 C 77 % 1019,8 hPa 0,0 l/m 0,0 km/h (0 Bft) NW 322 0,000 mm 0,0 UV-I 0 W/m 8,1 C 12,0 C 0,0 km/h (0 Bft) 98,52 %
17.10.2018 06:45 12,0 C 0,0 C 77 % 1019,8 hPa 0,0 l/m 0,0 km/h (0 Bft) NW 322 0,000 mm 0,0 UV-I 0 W/m 8,1 C 12,0 C 0,0 km/h (0 Bft) 95,65 %
17.10.2018 06:44 12,0 C 0,0 C 77 % 1019,8 hPa 0,0 l/m 0,0 km/h (0 Bft) NW 322 0,000 mm 0,0 UV-I 0 W/m 8,1 C 12,0 C 0,0 km/h (0 Bft) 95,65 %
17.10.2018 06:43 12,1 C 0,0 C 77 % 1019,8 hPa 0,0 l/m 0,0 km/h (0 Bft) NW 322 0,000 mm 0,0 UV-I 0 W/m 8,2 C 12,1 C 0,0 km/h (0 Bft) 100,00 %
17.10.2018 06:42 12,1 C 0,0 C 77 % 1019,8 hPa 0,0 l/m 0,0 km/h (0 Bft) NW 322 0,000 mm 0,0 UV-I 0 W/m 8,2 C 12,1 C 0,0 km/h (0 Bft) 95,65 %
17.10.2018 06:41 12,2 C 0,0 C 77 % 1019,8 hPa 0,0 l/m 0,0 km/h (0 Bft) NW 322 0,000 mm 0,0 UV-I 0 W/m 8,3 C 12,2 C 0,0 km/h (0 Bft) 100,00 %
17.10.2018 06:40 12,2 C 0,0 C 76 % 1019,8 hPa 0,0 l/m 0,0 km/h (0 Bft) NW 322 0,000 mm 0,0 UV-I 0 W/m 8,1 C 12,2 C 0,0 km/h (0 Bft) 95,65 %
17.10.2018 06:39 12,3 C 0,0 C 76 % 1019,8 hPa 0,0 l/m 0,0 km/h (0 Bft) NW 322 0,000 mm 0,0 UV-I 0 W/m 8,2 C 12,3 C 0,0 km/h (0 Bft) 100,00 %
17.10.2018 06:38 12,4 C 0,0 C 76 % 1019,8 hPa 0,0 l/m 0,0 km/h (0 Bft) NW 322 0,000 mm 0,0 UV-I 0 W/m 8,3 C 12,4 C 0,0 km/h (0 Bft) 95,83 %
17.10.2018 06:37 12,5 C 0,0 C 76 % 1019,8 hPa 0,0 l/m 0,0 km/h (0 Bft) NW 322 0,000 mm 0,0 UV-I 0 W/m 8,4 C 12,5 C 0,0 km/h (0 Bft) 100,00 %
17.10.2018 06:36 12,6 C 0,0 C 76 % 1019,8 hPa 0,0 l/m 0,0 km/h (0 Bft) NW 322 0,000 mm 0,0 UV-I 0 W/m 8,5 C 12,6 C 0,0 km/h (0 Bft) 96,30 %
17.10.2018 06:35 12,7 C 0,0 C 75 % 1019,8 hPa 0,0 l/m 0,0 km/h (0 Bft) NW 322 0,000 mm 0,0 UV-I 0 W/m 8,4 C 12,7 C 0,0 km/h (0 Bft) 100,00 %
17.10.2018 06:34 12,8 C 0,0 C 74 % 1019,8 hPa 0,0 l/m 0,0 km/h (0 Bft) NW 322 0,000 mm 0,0 UV-I 0 W/m 8,3 C 12,8 C 0,0 km/h (0 Bft) 100,00 %
17.10.2018 06:33 12,8 C 0,0 C 74 % 1019,9 hPa 0,0 l/m 0,0 km/h (0 Bft) NW 322 0,000 mm 0,0 UV-I 0 W/m 8,3 C 12,8 C 0,0 km/h (0 Bft) 100,00 %
17.10.2018 06:32 12,8 C 0,0 C 74 % 1019,9 hPa 0,0 l/m 0,0 km/h (0 Bft) NW 322 0,000 mm 0,0 UV-I 0 W/m 8,3 C 12,8 C 0,0 km/h (0 Bft) 96,55 %
17.10.2018 06:31 12,7 C 0,0 C 75 % 1019,8 hPa 0,0 l/m 0,0 km/h (0 Bft) NW 322 0,000 mm 0,0 UV-I 0 W/m 8,4 C 12,7 C 0,0 km/h (0 Bft) 100,00 %
17.10.2018 06:30 12,6 C 0,0 C 75 % 1019,8 hPa 0,0 l/m 0,0 km/h (0 Bft) NW 322 0,000 mm 0,0 UV-I 0 W/m 8,3 C 12,6 C 0,0 km/h (0 Bft) 100,00 %
17.10.2018 06:29 12,4 C 0,0 C 75 % 1019,8 hPa 0,0 l/m 0,0 km/h (0 Bft) NW 322 0,000 mm 0,0 UV-I 0 W/m 8,1 C 12,4 C 0,0 km/h (0 Bft) 100,00 %
17.10.2018 06:28 12,3 C 0,0 C 76 % 1019,8 hPa 0,0 l/m 0,0 km/h (0 Bft) NW 322 0,000 mm 0,0 UV-I 0 W/m 8,2 C 12,3 C 0,0 km/h (0 Bft) 100,00 %
17.10.2018 06:27 12,2 C 0,0 C 77 % 1019,8 hPa 0,0 l/m 0,0 km/h (0 Bft) NW 322 0,000 mm 0,0 UV-I 0 W/m 8,3 C 12,2 C 0,0 km/h (0 Bft) 100,00 %
17.10.2018 06:26 12,0 C 0,0 C 78 % 1019,8 hPa 0,0 l/m 0,0 km/h (0 Bft) NW 322 0,000 mm 0,0 UV-I 0 W/m 8,3 C 12,0 C 0,0 km/h (0 Bft) 100,00 %
17.10.2018 06:25 11,8 C 0,0 C 78 % 1019,8 hPa 0,0 l/m 0,0 km/h (0 Bft) NW 322 0,000 mm 0,0 UV-I 0 W/m 8,1 C 11,8 C 0,0 km/h (0 Bft) 100,00 %
17.10.2018 06:24 11,7 C 0,0 C 79 % 1019,8 hPa 0,0 l/m 0,0 km/h (0 Bft) NW 322 0,000 mm 0,0 UV-I 0 W/m 8,2 C 11,7 C 0,0 km/h (0 Bft) 100,00 %
17.10.2018 06:23 11,6 C 0,0 C 80 % 1019,9 hPa 0,0 l/m 0,0 km/h (0 Bft) NW 322 0,000 mm 0,0 UV-I 0 W/m 8,3 C 11,6 C 0,0 km/h (0 Bft) 95,83 %
17.10.2018 06:22 11,3 C 0,0 C 81 % 1019,9 hPa 0,0 l/m 0,0 km/h (0 Bft) NW 322 0,000 mm 0,0 UV-I 0 W/m 8,2 C 11,3 C 0,0 km/h (0 Bft) 95,65 %
17.10.2018 06:21 11,2 C 0,0 C 81 % 1019,8 hPa 0,0 l/m 0,0 km/h (0 Bft) NW 322 0,000 mm 0,0 UV-I 0 W/m 8,1 C 11,2 C 0,0 km/h (0 Bft) 100,00 %
17.10.2018 06:20 11,1 C 0,0 C 82 % 1019,9 hPa 0,0 l/m 0,0 km/h (0 Bft) NW 322 0,000 mm 0,0 UV-I 0 W/m 8,1 C 11,1 C 0,0 km/h (0 Bft) 98,67 %
17.10.2018 06:17 11,0 C 0,0 C 82 % 1019,8 hPa 0,0 l/m 0,0 km/h (0 Bft) NW 322 0,000 mm 0,0 UV-I 0 W/m 8,0 C 11,0 C 0,0 km/h (0 Bft) 100,00 %
17.10.2018 06:16 11,1 C 0,0 C 82 % 1019,8 hPa 0,0 l/m 0,0 km/h (0 Bft) NW 322 0,000 mm 0,0 UV-I 0 W/m 8,1 C 11,1 C 0,0 km/h (0 Bft) 95,65 %
17.10.2018 06:15 11,1 C 0,0 C 82 % 1019,8 hPa 0,0 l/m 0,0 km/h (0 Bft) NW 322 0,000 mm 0,0 UV-I 0 W/m 8,1 C 11,1 C 0,0 km/h (0 Bft) 95,65 %
17.10.2018 06:14 11,1 C 0,0 C 82 % 1019,8 hPa 0,0 l/m 0,0 km/h (0 Bft) NW 322 0,000 mm 0,0 UV-I 0 W/m 8,1 C 11,1 C 0,0 km/h (0 Bft) 95,83 %
17.10.2018 06:13 11,1 C 0,0 C 81 % 1019,8 hPa 0,0 l/m 0,0 km/h (0 Bft) NW 322 0,000 mm 0,0 UV-I 0 W/m 8,0 C 11,1 C 0,0 km/h (0 Bft) 100,00 %
17.10.2018 06:12 11,1 C 0,0 C 81 % 1019,8 hPa 0,0 l/m 0,0 km/h (0 Bft) NW 322 0,000 mm 0,0 UV-I 0 W/m 8,0 C 11,1 C 0,0 km/h (0 Bft) 100,00 %
17.10.2018 06:11 11,2 C 0,0 C 81 % 1019,8 hPa 0,0 l/m 0,0 km/h (0 Bft) NW 322 0,000 mm 0,0 UV-I 0 W/m 8,1 C 11,2 C 0,0 km/h (0 Bft) 100,00 %
17.10.2018 06:10 11,2 C 0,0 C 81 % 1019,8 hPa 0,0 l/m 0,0 km/h (0 Bft) NW 322 0,000 mm 0,0 UV-I 0 W/m 8,1 C 11,2 C 0,0 km/h (0 Bft) 100,00 %
17.10.2018 06:09 11,3 C 0,0 C 81 % 1019,8 hPa 0,0 l/m 0,0 km/h (0 Bft) NW 322 0,000 mm 0,0 UV-I 0 W/m 8,2 C 11,3 C 0,0 km/h (0 Bft) 100,00 %
17.10.2018 06:08 11,3 C 0,0 C 80 % 1019,8 hPa 0,0 l/m 0,0 km/h (0 Bft) NW 322 0,000 mm 0,0 UV-I 0 W/m 8,0 C 11,3 C 0,0 km/h (0 Bft) 100,00 %
17.10.2018 06:07 11,4 C 0,0 C 80 % 1019,7 hPa 0,0 l/m 0,0 km/h (0 Bft) NW 322 0,000 mm 0,0 UV-I 0 W/m 8,1 C 11,4 C 0,0 km/h (0 Bft) 100,00 %
17.10.2018 06:06 11,4 C 0,0 C 80 % 1019,8 hPa 0,0 l/m 0,0 km/h (0 Bft) NW 322 0,000 mm 0,0 UV-I 0 W/m 8,1 C 11,4 C 0,0 km/h (0 Bft) 100,00 %
17.10.2018 06:05 11,6 C 0,0 C 79 % 1019,8 hPa 0,0 l/m 0,0 km/h (0 Bft) NW 322 0,000 mm 0,0 UV-I 0 W/m 8,1 C 11,6 C 0,0 km/h (0 Bft) 100,00 %
17.10.2018 06:04 11,6 C 0,0 C 79 % 1019,7 hPa 0,0 l/m 0,0 km/h (0 Bft) NW 322 0,000 mm 0,0 UV-I 0 W/m 8,1 C 11,6 C 0,0 km/h (0 Bft) 100,00 %
17.10.2018 06:03 11,7 C 0,0 C 79 % 1019,7 hPa 0,0 l/m 0,0 km/h (0 Bft) NW 322 0,000 mm 0,0 UV-I 0 W/m 8,2 C 11,7 C 0,0 km/h (0 Bft) 95,65 %
17.10.2018 06:02 11,8 C 0,0 C 79 % 1019,7 hPa 0,0 l/m 0,0 km/h (0 Bft) NW 322 0,000 mm 0,0 UV-I 0 W/m 8,3 C 11,8 C 0,0 km/h (0 Bft) 100,00 %
17.10.2018 06:01 11,8 C 0,0 C 79 % 1019,7 hPa 0,0 l/m 0,0 km/h (0 Bft) NW 322 0,000 mm 0,0 UV-I 0 W/m 8,3 C 11,8 C 0,0 km/h (0 Bft) 100,00 %
17.10.2018 06:00 11,8 C 0,0 C 79 % 1019,7 hPa 0,0 l/m 0,0 km/h (0 Bft) NW 322 0,025 mm 0,0 UV-I 0 W/m 8,3 C 11,8 C 0,0 km/h (0 Bft) 100,00 %
17.10.2018 05:59 11,9 C 0,0 C 79 % 1019,7 hPa 0,0 l/m 0,0 km/h (0 Bft) NW 322 0,000 mm 0,0 UV-I 0 W/m 8,4 C 11,9 C 0,0 km/h (0 Bft) 100,00 %
17.10.2018 05:58 11,9 C 0,0 C 79 % 1019,8 hPa 0,0 l/m 0,0 km/h (0 Bft) NW 322 0,000 mm 0,0 UV-I 0 W/m 8,4 C 11,9 C 0,0 km/h (0 Bft) 100,00 %
17.10.2018 05:57 11,9 C 0,0 C 79 % 1019,6 hPa 0,0 l/m 0,0 km/h (0 Bft) NW 322 0,000 mm 0,0 UV-I 0 W/m 8,4 C 11,9 C 0,0 km/h (0 Bft) 100,00 %
17.10.2018 05:56 11,8 C 0,0 C 79 % 1019,7 hPa 0,0 l/m 0,0 km/h (0 Bft) NW 322 0,000 mm 0,0 UV-I 0 W/m 8,3 C 11,8 C 0,0 km/h (0 Bft) 100,00 %
17.10.2018 05:53 11,7 C 0,0 C 79 % 1019,6 hPa 0,0 l/m 0,0 km/h (0 Bft) NW 322 0,000 mm 0,0 UV-I 0 W/m 8,2 C 11,7 C 0,0 km/h (0 Bft) 100,00 %
17.10.2018 05:52 11,7 C 0,0 C 79 % 1019,7 hPa 0,0 l/m 0,0 km/h (0 Bft) NW 322 0,000 mm 0,0 UV-I 0 W/m 8,2 C 11,7 C 0,0 km/h (0 Bft) 100,00 %
17.10.2018 05:51 11,7 C 0,0 C 79 % 1019,7 hPa 0,0 l/m 0,0 km/h (0 Bft) NW 322 0,000 mm 0,0 UV-I 0 W/m 8,2 C 11,7 C 0,0 km/h (0 Bft) 95,65 %
17.10.2018 05:50 11,6 C 0,0 C 79 % 1019,7 hPa 0,0 l/m 0,0 km/h (0 Bft) NW 322 0,000 mm 0,0 UV-I 0 W/m 8,1 C 11,6 C 0,0 km/h (0 Bft) 100,00 %
17.10.2018 05:49 11,6 C 0,0 C 80 % 1019,6 hPa 0,0 l/m 0,0 km/h (0 Bft) NW 322 0,000 mm 0,0 UV-I 0 W/m 8,3 C 11,6 C 0,0 km/h (0 Bft) 95,65 %
17.10.2018 05:48 11,7 C 0,0 C 79 % 1019,7 hPa 0,0 l/m 0,0 km/h (0 Bft) NW 322 0,000 mm 0,0 UV-I 0 W/m 8,2 C 11,7 C 0,0 km/h (0 Bft) 100,00 %
17.10.2018 05:47 11,7 C 0,0 C 79 % 1019,7 hPa 0,0 l/m 0,0 km/h (0 Bft) NW 322 0,000 mm 0,0 UV-I 0 W/m 8,2 C 11,7 C 0,0 km/h (0 Bft) 95,65 %
17.10.2018 05:46 11,8 C 0,0 C 79 % 1019,6 hPa 0,0 l/m 0,0 km/h (0 Bft) NW 322 0,000 mm 0,0 UV-I 0 W/m 8,3 C 11,8 C 0,0 km/h (0 Bft) 95,65 %
17.10.2018 05:45 11,9 C 0,0 C 79 % 1019,7 hPa 0,0 l/m 0,0 km/h (0 Bft) NW 322 0,000 mm 0,0 UV-I 0 W/m 8,4 C 11,9 C 0,0 km/h (0 Bft) 100,00 %
17.10.2018 05:44 11,9 C 0,0 C 78 % 1019,7 hPa 0,0 l/m 0,0 km/h (0 Bft) NW 322 0,000 mm 0,0 UV-I 0 W/m 8,2 C 11,9 C 0,0 km/h (0 Bft) 95,65 %
17.10.2018 05:43 12,0 C 0,0 C 78 % 1019,7 hPa 0,0 l/m 0,0 km/h (0 Bft) NW 322 0,000 mm 0,0 UV-I 0 W/m 8,3 C 12,0 C 0,0 km/h (0 Bft) 100,00 %
17.10.2018 05:42 12,1 C 0,0 C 78 % 1019,7 hPa 0,0 l/m 0,0 km/h (0 Bft) NW 322 0,000 mm 0,0 UV-I 0 W/m 8,4 C 12,1 C 0,0 km/h (0 Bft) 100,00 %
17.10.2018 05:41 12,1 C 0,0 C 78 % 1019,6 hPa 0,0 l/m 0,0 km/h (0 Bft) NW 322 0,000 mm 0,0 UV-I 0 W/m 8,4 C 12,1 C 0,0 km/h (0 Bft) 100,00 %
17.10.2018 05:40 12,0 C 0,0 C 78 % 1019,7 hPa 0,0 l/m 0,0 km/h (0 Bft) NW 322 0,000 mm 0,0 UV-I 0 W/m 8,3 C 12,0 C 0,0 km/h (0 Bft) 100,00 %
17.10.2018 05:39 12,0 C 0,0 C 78 % 1019,7 hPa 0,0 l/m 0,0 km/h (0 Bft) NW 322 0,000 mm 0,0 UV-I 0 W/m 8,3 C 12,0 C 0,0 km/h (0 Bft) 95,65 %
17.10.2018 05:38 11,9 C 0,0 C 79 % 1019,6 hPa 0,0 l/m 0,0 km/h (0 Bft) NW 322 0,000 mm 0,0 UV-I 0 W/m 8,4 C 11,9 C 0,0 km/h (0 Bft) 100,00 %
17.10.2018 05:37 11,9 C 0,0 C 79 % 1019,6 hPa 0,0 l/m 0,0 km/h (0 Bft) NW 322 0,000 mm 0,0 UV-I 0 W/m 8,4 C 11,9 C 0,0 km/h (0 Bft) 100,00 %
17.10.2018 05:36 11,9 C 0,0 C 79 % 1019,6 hPa 0,0 l/m 0,0 km/h (0 Bft) NW 322 0,000 mm 0,0 UV-I 0 W/m 8,4 C 11,9 C 0,0 km/h (0 Bft) 100,00 %
17.10.2018 05:35 11,8 C 0,0 C 79 % 1019,6 hPa 0,0 l/m 0,0 km/h (0 Bft) NW 322 0,000 mm 0,0 UV-I 0 W/m 8,3 C 11,8 C 0,0 km/h (0 Bft) 95,83 %
17.10.2018 05:34 11,8 C 0,0 C 79 % 1019,6 hPa 0,0 l/m 0,0 km/h (0 Bft) NW 322 0,000 mm 0,0 UV-I 0 W/m 8,3 C 11,8 C 0,0 km/h (0 Bft) 100,00 %
17.10.2018 05:33 11,8 C 0,0 C 79 % 1019,6 hPa 0,0 l/m 0,0 km/h (0 Bft) NW 322 0,000 mm 0,0 UV-I 0 W/m 8,3 C 11,8 C 0,0 km/h (0 Bft) 100,00 %
17.10.2018 05:32 11,8 C 0,0 C 79 % 1019,6 hPa 0,0 l/m 0,0 km/h (0 Bft) NW 322 0,000 mm 0,0 UV-I 0 W/m 8,3 C 11,8 C 0,0 km/h (0 Bft) 100,00 %
17.10.2018 05:31 11,8 C 0,0 C 79 % 1019,5 hPa 0,0 l/m 0,0 km/h (0 Bft) NW 322 0,000 mm 0,0 UV-I 0 W/m 8,3 C 11,8 C 0,0 km/h (0 Bft) 100,00 %
17.10.2018 05:30 11,9 C 0,0 C 78 % 1019,6 hPa 0,0 l/m 0,0 km/h (0 Bft) NW 322 0,000 mm 0,0 UV-I 0 W/m 8,2 C 11,9 C 0,0 km/h (0 Bft) 100,00 %
17.10.2018 05:29 11,9 C 0,0 C 78 % 1019,5 hPa 0,0 l/m 0,0 km/h (0 Bft) NW 322 0,000 mm 0,0 UV-I 0 W/m 8,2 C 11,9 C 0,0 km/h (0 Bft) 100,00 %
17.10.2018 05:28 11,9 C 0,0 C 78 % 1019,6 hPa 0,0 l/m 0,0 km/h (0 Bft) NW 322 0,000 mm 0,0 UV-I 0 W/m 8,2 C 11,9 C 0,0 km/h (0 Bft) 100,00 %
17.10.2018 05:27 11,9 C 0,0 C 78 % 1019,5 hPa 0,0 l/m 0,0 km/h (0 Bft) NW 322 0,000 mm 0,0 UV-I 0 W/m 8,2 C 11,9 C 0,0 km/h (0 Bft) 100,00 %
17.10.2018 05:26 12,0 C 0,0 C 78 % 1019,5 hPa 0,0 l/m 0,0 km/h (0 Bft) NW 322 0,000 mm 0,0 UV-I 0 W/m 8,3 C 12,0 C 0,0 km/h (0 Bft) 100,00 %
17.10.2018 05:25 12,0 C 0,0 C 78 % 1019,5 hPa 0,0 l/m 0,0 km/h (0 Bft) NW 322 0,000 mm 0,0 UV-I 0 W/m 8,3 C 12,0 C 0,0 km/h (0 Bft) 98,70 %
17.10.2018 05:22 12,1 C 0,0 C 78 % 1019,5 hPa 0,0 l/m 0,0 km/h (0 Bft) NW 322 0,000 mm 0,0 UV-I 0 W/m 8,4 C 12,1 C 0,0 km/h (0 Bft) 90,91 %
17.10.2018 05:21 12,1 C 0,0 C 78 % 1019,5 hPa 0,0 l/m 0,0 km/h (0 Bft) NW 322 0,000 mm 0,0 UV-I 0 W/m 8,4 C 12,1 C 0,0 km/h (0 Bft) 98,90 %
17.10.2018 05:18 12,2 C 0,0 C 77 % 1019,5 hPa 0,0 l/m 0,0 km/h (0 Bft) NW 322 0,000 mm 0,0 UV-I 0 W/m 8,3 C 12,2 C 0,0 km/h (0 Bft) 98,16 %
17.10.2018 05:17 12,2 C 0,0 C 77 % 1019,5 hPa 0,0 l/m 0,0 km/h (0 Bft) NW 322 0,000 mm 0,0 UV-I 0 W/m 8,3 C 12,2 C 0,0 km/h (0 Bft) 100,00 %
17.10.2018 05:16 12,3 C 0,0 C 77 % 1019,4 hPa 0,0 l/m 0,0 km/h (0 Bft) NW 322 0,000 mm 0,0 UV-I 0 W/m 8,4 C 12,3 C 0,0 km/h (0 Bft) 100,00 %
17.10.2018 05:15 12,3 C 0,0 C 77 % 1019,5 hPa 0,0 l/m 0,0 km/h (0 Bft) NW 322 0,000 mm 0,0 UV-I 0 W/m 8,4 C 12,3 C 0,0 km/h (0 Bft) 100,00 %
17.10.2018 05:14 12,3 C 0,0 C 77 % 1019,5 hPa 0,0 l/m 0,0 km/h (0 Bft) NW 322 0,000 mm 0,0 UV-I 0 W/m 8,4 C 12,3 C 0,0 km/h (0 Bft) 100,00 %
17.10.2018 05:13 12,3 C 0,0 C 77 % 1019,4 hPa 0,0 l/m 0,0 km/h (0 Bft) NW 322 0,000 mm 0,0 UV-I 0 W/m 8,4 C 12,3 C 0,0 km/h (0 Bft) 100,00 %
17.10.2018 05:12 12,3 C 0,0 C 77 % 1019,4 hPa 0,0 l/m 0,0 km/h (0 Bft) NW 322 0,000 mm 0,0 UV-I 0 W/m 8,4 C 12,3 C 0,0 km/h (0 Bft) 100,00 %
17.10.2018 05:11 12,3 C 0,0 C 77 % 1019,4 hPa 0,0 l/m 0,0 km/h (0 Bft) NW 322 0,000 mm 0,0 UV-I 0 W/m 8,4 C 12,3 C 0,0 km/h (0 Bft) 100,00 %
17.10.2018 05:10 12,3 C 0,0 C 77 % 1019,4 hPa 0,0 l/m 0,0 km/h (0 Bft) NW 322 0,000 mm 0,0 UV-I 0 W/m 8,4 C 12,3 C 0,0 km/h (0 Bft) 100,00 %
17.10.2018 05:09 12,2 C 0,0 C 77 % 1019,4 hPa 0,0 l/m 0,0 km/h (0 Bft) NW 322 0,000 mm 0,0 UV-I 0 W/m 8,3 C 12,2 C 0,0 km/h (0 Bft) 100,00 %
17.10.2018 05:08 12,2 C 0,0 C 77 % 1019,4 hPa 0,0 l/m 0,0 km/h (0 Bft) NW 322 0,000 mm 0,0 UV-I 0 W/m 8,3 C 12,2 C 0,0 km/h (0 Bft) 100,00 %
17.10.2018 05:07 12,1 C 0,0 C 78 % 1019,4 hPa 0,0 l/m 0,0 km/h (0 Bft) NW 322 0,000 mm 0,0 UV-I 0 W/m 8,4 C 12,1 C 0,0 km/h (0 Bft) 100,00 %
17.10.2018 05:06 12,1 C 0,0 C 78 % 1019,4 hPa 0,0 l/m 0,0 km/h (0 Bft) NW 322 0,000 mm 0,0 UV-I 0 W/m 8,4 C 12,1 C 0,0 km/h (0 Bft) 100,00 %
17.10.2018 05:05 12,1 C 0,0 C 77 % 1019,4 hPa 0,0 l/m 0,0 km/h (0 Bft) NW 322 0,000 mm 0,0 UV-I 0 W/m 8,2 C 12,1 C 0,0 km/h (0 Bft) 100,00 %
17.10.2018 05:04 12,1 C 0,0 C 77 % 1019,4 hPa 0,0 l/m 0,0 km/h (0 Bft) NW 322 0,000 mm 0,0 UV-I 0 W/m 8,2 C 12,1 C 0,0 km/h (0 Bft) 100,00 %
17.10.2018 05:03 12,1 C 0,0 C 77 % 1019,5 hPa 0,0 l/m 0,0 km/h (0 Bft) NW 322 0,000 mm 0,0 UV-I 0 W/m 8,2 C 12,1 C 0,0 km/h (0 Bft) 100,00 %
17.10.2018 05:02 12,1 C 0,0 C 78 % 1019,3 hPa 0,0 l/m 0,0 km/h (0 Bft) NW 322 0,000 mm 0,0 UV-I 0 W/m 8,4 C 12,1 C 0,0 km/h (0 Bft) 100,00 %
17.10.2018 05:01 12,1 C 0,0 C 78 % 1019,3 hPa 0,0 l/m 0,0 km/h (0 Bft) NW 322 0,025 mm 0,0 UV-I 0 W/m 8,4 C 12,1 C 0,0 km/h (0 Bft) 100,00 %
17.10.2018 05:00 12,1 C 0,0 C 78 % 1019,4 hPa 0,0 l/m 0,0 km/h (0 Bft) NW 322 0,000 mm 0,0 UV-I 0 W/m 8,4 C 12,1 C 0,0 km/h (0 Bft) 100,00 %
17.10.2018 04:59 12,1 C 0,0 C 78 % 1019,4 hPa 0,0 l/m 0,0 km/h (0 Bft) NW 322 0,000 mm 0,0 UV-I 0 W/m 8,4 C 12,1 C 0,0 km/h (0 Bft) 100,00 %
17.10.2018 04:58 12,0 C 0,0 C 78 % 1019,4 hPa 0,0 l/m 0,0 km/h (0 Bft) NW 322 0,000 mm 0,0 UV-I 0 W/m 8,3 C 12,0 C 0,0 km/h (0 Bft) 91,30 %
17.10.2018 04:57 12,0 C 0,0 C 78 % 1019,5 hPa 0,0 l/m 0,0 km/h (0 Bft) NW 322 0,000 mm 0,0 UV-I 0 W/m 8,3 C 12,0 C 0,0 km/h (0 Bft) 100,00 %
17.10.2018 04:56 11,9 C 0,0 C 78 % 1019,4 hPa 0,0 l/m 0,0 km/h (0 Bft) NW 322 0,000 mm 0,0 UV-I 0 W/m 8,2 C 11,9 C 0,0 km/h (0 Bft) 95,65 %
17.10.2018 04:55 11,9 C 0,0 C 78 % 1019,5 hPa 0,0 l/m 0,0 km/h (0 Bft) NW 322 0,000 mm 0,0 UV-I 0 W/m 8,2 C 11,9 C 0,0 km/h (0 Bft) 100,00 %
17.10.2018 04:54 11,9 C 0,0 C 78 % 1019,5 hPa 0,0 l/m 0,0 km/h (0 Bft) NW 322 0,000 mm 0,0 UV-I 0 W/m 8,2 C 11,9 C 0,0 km/h (0 Bft) 91,30 %
17.10.2018 04:53 11,9 C 0,0 C 78 % 1019,4 hPa 0,0 l/m 0,0 km/h (0 Bft) NW 322 0,000 mm 0,0 UV-I 0 W/m 8,2 C 11,9 C 0,0 km/h (0 Bft) 95,65 %
17.10.2018 04:52 11,9 C 0,0 C 78 % 1019,5 hPa 0,0 l/m 0,0 km/h (0 Bft) NW 322 0,000 mm 0,0 UV-I 0 W/m 8,2 C 11,9 C 0,0 km/h (0 Bft) 100,00 %
17.10.2018 04:51 12,0 C 0,0 C 78 % 1019,4 hPa 0,0 l/m 0,0 km/h (0 Bft) NW 322 0,000 mm 0,0 UV-I 0 W/m 8,3 C 12,0 C 0,0 km/h (0 Bft) 95,65 %
17.10.2018 04:50 12,0 C 0,0 C 78 % 1019,5 hPa 0,0 l/m 0,0 km/h (0 Bft) NW 322 0,000 mm 0,0 UV-I 0 W/m 8,3 C 12,0 C 0,0 km/h (0 Bft) 100,00 %
17.10.2018 04:49 12,1 C 0,0 C 77 % 1019,5 hPa 0,0 l/m 0,0 km/h (0 Bft) NW 322 0,000 mm 0,0 UV-I 0 W/m 8,2 C 12,1 C 0,0 km/h (0 Bft) 95,65 %
17.10.2018 04:48 12,1 C 0,0 C 77 % 1019,4 hPa 0,0 l/m 0,0 km/h (0 Bft) NW 322 0,000 mm 0,0 UV-I 0 W/m 8,2 C 12,1 C 0,0 km/h (0 Bft) 100,00 %
17.10.2018 04:47 12,2 C 0,0 C 77 % 1019,4 hPa 0,0 l/m 0,0 km/h (0 Bft) NW 322 0,000 mm 0,0 UV-I 0 W/m 8,3 C 12,2 C 0,0 km/h (0 Bft) 97,40 %
17.10.2018 04:44 12,4 C 0,0 C 76 % 1019,5 hPa 0,0 l/m 0,0 km/h (0 Bft) NW 322 0,000 mm 0,0 UV-I 0 W/m 8,3 C 12,4 C 0,0 km/h (0 Bft) 90,91 %
17.10.2018 04:43 12,4 C 0,0 C 76 % 1019,5 hPa 0,0 l/m 0,0 km/h (0 Bft) NW 322 0,000 mm 0,0 UV-I 0 W/m 8,3 C 12,4 C 0,0 km/h (0 Bft) 95,83 %
17.10.2018 04:42 12,4 C 0,0 C 76 % 1019,5 hPa 0,0 l/m 0,0 km/h (0 Bft) NW 322 0,000 mm 0,0 UV-I 0 W/m 8,3 C 12,4 C 0,0 km/h (0 Bft) 91,30 %
17.10.2018 04:41 12,4 C 0,0 C 76 % 1019,5 hPa 0,0 l/m 0,0 km/h (0 Bft) NW 322 0,000 mm 0,0 UV-I 0 W/m 8,3 C 12,4 C 0,0 km/h (0 Bft) 100,00 %
17.10.2018 04:40 12,5 C 0,0 C 75 % 1019,5 hPa 0,0 l/m 0,0 km/h (0 Bft) NW 322 0,000 mm 0,0 UV-I 0 W/m 8,2 C 12,5 C 0,0 km/h (0 Bft) 91,30 %
17.10.2018 04:39 12,6 C 0,0 C 75 % 1019,4 hPa 0,0 l/m 0,0 km/h (0 Bft) NW 322 0,000 mm 0,0 UV-I 0 W/m 8,3 C 12,6 C 0,0 km/h (0 Bft) 95,65 %
17.10.2018 04:38 12,6 C 0,0 C 75 % 1019,5 hPa 0,0 l/m 0,0 km/h (0 Bft) NW 325 0,000 mm 0,0 UV-I 0 W/m 8,3 C 12,6 C 0,0 km/h (0 Bft) 95,83 %
17.10.2018 04:37 12,6 C 0,0 C 75 % 1019,4 hPa 0,0 l/m 0,0 km/h (0 Bft) NW 325 0,000 mm 0,0 UV-I 0 W/m 8,3 C 12,6 C 0,0 km/h (0 Bft) 100,00 %
17.10.2018 04:36 12,6 C 0,0 C 75 % 1019,4 hPa 0,0 l/m 0,0 km/h (0 Bft) NW 325 0,000 mm 0,0 UV-I 0 W/m 8,3 C 12,6 C 0,0 km/h (0 Bft) 95,83 %
17.10.2018 04:35 12,6 C 0,0 C 75 % 1019,4 hPa 0,0 l/m 0,0 km/h (0 Bft) NW 325 0,000 mm 0,0 UV-I 0 W/m 8,3 C 12,6 C 0,0 km/h (0 Bft) 95,65 %
17.10.2018 04:34 12,6 C 0,0 C 75 % 1019,4 hPa 0,0 l/m 0,0 km/h (0 Bft) N-NW 328 0,000 mm 0,0 UV-I 0 W/m 8,3 C 12,6 C 0,0 km/h (0 Bft) 95,65 %
17.10.2018 04:33 12,4 C 0,0 C 76 % 1019,4 hPa 0,0 l/m 0,0 km/h (0 Bft) N-NW 328 0,000 mm 0,0 UV-I 0 W/m 8,3 C 12,4 C 0,0 km/h (0 Bft) 95,83 %
17.10.2018 04:32 12,3 C 0,0 C 76 % 1019,4 hPa 0,0 l/m 0,0 km/h (0 Bft) N-NW 328 0,000 mm 0,0 UV-I 0 W/m 8,2 C 12,3 C 0,0 km/h (0 Bft) 100,00 %
17.10.2018 04:31 12,2 C 0,0 C 77 % 1019,5 hPa 0,0 l/m 0,0 km/h (0 Bft) N-NW 328 0,000 mm 0,0 UV-I 0 W/m 8,3 C 12,2 C 0,0 km/h (0 Bft) 95,83 %
17.10.2018 04:30 12,1 C 0,0 C 77 % 1019,4 hPa 0,0 l/m 0,0 km/h (0 Bft) N-NW 328 0,000 mm 0,0 UV-I 0 W/m 8,2 C 12,1 C 0,0 km/h (0 Bft) 95,65 %
17.10.2018 04:29 12,1 C 0,0 C 77 % 1019,4 hPa 0,0 l/m 0,0 km/h (0 Bft) N-NW 328 0,000 mm 0,0 UV-I 0 W/m 8,2 C 12,1 C 0,0 km/h (0 Bft) 96,97 %
17.10.2018 04:25 12,2 C 0,0 C 76 % 1019,5 hPa 0,0 l/m 0,0 km/h (0 Bft) N-NW 328 0,000 mm 0,0 UV-I 0 W/m 8,1 C 12,2 C 0,0 km/h (0 Bft) 100,00 %
17.10.2018 04:24 12,2 C 0,0 C 76 % 1019,5 hPa 0,0 l/m 0,0 km/h (0 Bft) N-NW 328 0,000 mm 0,0 UV-I 0 W/m 8,1 C 12,2 C 0,0 km/h (0 Bft) 95,65 %
17.10.2018 04:23 12,3 C 0,0 C 76 % 1019,5 hPa 0,0 l/m 0,0 km/h (0 Bft) N-NW 328 0,000 mm 0,0 UV-I 0 W/m 8,2 C 12,3 C 0,0 km/h (0 Bft) 95,83 %
17.10.2018 04:22 12,3 C 0,0 C 76 % 1019,5 hPa 0,0 l/m 0,0 km/h (0 Bft) N-NW 328 0,000 mm 0,0 UV-I 0 W/m 8,2 C 12,3 C 0,0 km/h (0 Bft) 97,56 %
17.10.2018 04:19 12,4 C 0,0 C 76 % 1019,5 hPa 0,0 l/m 0,0 km/h (0 Bft) N-NW 328 0,000 mm 0,0 UV-I 0 W/m 8,3 C 12,4 C 0,0 km/h (0 Bft) 100,00 %
17.10.2018 04:18 12,4 C 0,0 C 76 % 1019,5 hPa 0,0 l/m 0,0 km/h (0 Bft) N-NW 328 0,000 mm 0,0 UV-I 0 W/m 8,3 C 12,4 C 0,0 km/h (0 Bft) 100,00 %
17.10.2018 04:17 12,3 C 0,0 C 76 % 1019,5 hPa 0,0 l/m 0,0 km/h (0 Bft) N-NW 328 0,000 mm 0,0 UV-I 0 W/m 8,2 C 12,3 C 0,0 km/h (0 Bft) 91,30 %
17.10.2018 04:16 12,3 C 0,0 C 76 % 1019,5 hPa 0,0 l/m 0,0 km/h (0 Bft) N-NW 328 0,000 mm 0,0 UV-I 0 W/m 8,2 C 12,3 C 0,0 km/h (0 Bft) 100,00 %
17.10.2018 04:15 12,3 C 0,0 C 76 % 1019,6 hPa 0,0 l/m 0,0 km/h (0 Bft) N-NW 328 0,000 mm 0,0 UV-I 0 W/m 8,2 C 12,3 C 0,0 km/h (0 Bft) 100,00 %
17.10.2018 04:14 12,4 C 0,0 C 76 % 1019,5 hPa 0,0 l/m 0,0 km/h (0 Bft) N-NW 328 0,000 mm 0,0 UV-I 0 W/m 8,3 C 12,4 C 0,0 km/h (0 Bft) 100,00 %
17.10.2018 04:13 12,5 C 0,0 C 76 % 1019,5 hPa 0,0 l/m 0,0 km/h (0 Bft) N-NW 328 0,000 mm 0,0 UV-I 0 W/m 8,4 C 12,5 C 0,0 km/h (0 Bft) 100,00 %
17.10.2018 04:12 12,6 C 0,0 C 75 % 1019,5 hPa 0,0 l/m 0,0 km/h (0 Bft) N-NW 328 0,000 mm 0,0 UV-I 0 W/m 8,3 C 12,6 C 0,0 km/h (0 Bft) 100,00 %
17.10.2018 04:11 12,7 C 0,0 C 75 % 1019,6 hPa 0,0 l/m 0,0 km/h (0 Bft) N-NW 328 0,000 mm 0,0 UV-I 0 W/m 8,4 C 12,7 C 0,0 km/h (0 Bft) 100,00 %
17.10.2018 04:10 12,7 C 0,0 C 74 % 1019,6 hPa 0,0 l/m 0,0 km/h (0 Bft) N-NW 328 0,000 mm 0,0 UV-I 0 W/m 8,2 C 12,7 C 0,0 km/h (0 Bft) 100,00 %
17.10.2018 04:07 12,8 C 0,0 C 74 % 1019,6 hPa 0,0 l/m 0,0 km/h (0 Bft) N-NW 328 0,000 mm 0,0 UV-I 0 W/m 8,3 C 12,8 C 0,0 km/h (0 Bft) 100,00 %
17.10.2018 04:06 12,8 C 0,0 C 74 % 1019,6 hPa 0,0 l/m 0,0 km/h (0 Bft) N-NW 328 0,000 mm 0,0 UV-I 0 W/m 8,3 C 12,8 C 0,0 km/h (0 Bft) 100,00 %
17.10.2018 04:05 12,8 C 0,0 C 74 % 1019,7 hPa 0,0 l/m 0,0 km/h (0 Bft) N-NW 328 0,000 mm 0,0 UV-I 0 W/m 8,3 C 12,8 C 0,0 km/h (0 Bft) 100,00 %
17.10.2018 04:04 12,8 C 0,0 C 74 % 1019,6 hPa 0,0 l/m 0,0 km/h (0 Bft) N-NW 328 0,000 mm 0,0 UV-I 0 W/m 8,3 C 12,8 C 0,0 km/h (0 Bft) 100,00 %
17.10.2018 04:03 12,8 C 0,0 C 74 % 1019,6 hPa 0,0 l/m 0,0 km/h (0 Bft) N-NW 328 0,000 mm 0,0 UV-I 0 W/m 8,3 C 12,8 C 0,0 km/h (0 Bft) 100,00 %
17.10.2018 04:02 12,8 C 0,0 C 74 % 1019,6 hPa 0,0 l/m 0,0 km/h (0 Bft) N-NW 328 0,000 mm 0,0 UV-I 0 W/m 8,3 C 12,8 C 0,0 km/h (0 Bft) 100,00 %
17.10.2018 04:01 12,8 C 0,0 C 74 % 1019,6 hPa 0,0 l/m 0,0 km/h (0 Bft) N-NW 328 0,026 mm 0,0 UV-I 0 W/m 8,3 C 12,8 C 0,0 km/h (0 Bft) 100,00 %
17.10.2018 03:58 12,8 C 0,0 C 74 % 1019,6 hPa 0,0 l/m 0,0 km/h (0 Bft) N-NW 328 0,000 mm 0,0 UV-I 0 W/m 8,3 C 12,8 C 0,0 km/h (0 Bft) 98,65 %
17.10.2018 03:57 12,8 C 0,0 C 74 % 1019,6 hPa 0,0 l/m 0,0 km/h (0 Bft) N-NW 328 0,000 mm 0,0 UV-I 0 W/m 8,3 C 12,8 C 0,0 km/h (0 Bft) 100,00 %
17.10.2018 03:56 12,8 C 0,0 C 73 % 1019,6 hPa 0,0 l/m 0,0 km/h (0 Bft) N-NW 328 0,000 mm 0,0 UV-I 0 W/m 8,1 C 12,8 C 0,0 km/h (0 Bft) 100,00 %
17.10.2018 03:55 12,8 C 0,0 C 73 % 1019,7 hPa 0,0 l/m 0,0 km/h (0 Bft) N-NW 328 0,000 mm 0,0 UV-I 0 W/m 8,1 C 12,8 C 0,0 km/h (0 Bft) 100,00 %
17.10.2018 03:54 12,8 C 0,0 C 73 % 1019,6 hPa 0,0 l/m 0,0 km/h (0 Bft) N-NW 328 0,000 mm 0,0 UV-I 0 W/m 8,1 C 12,8 C 0,0 km/h (0 Bft) 100,00 %
17.10.2018 03:53 12,8 C 0,0 C 73 % 1019,6 hPa 0,0 l/m 0,0 km/h (0 Bft) N-NW 328 0,000 mm 0,0 UV-I 0 W/m 8,1 C 12,8 C 0,0 km/h (0 Bft) 96,55 %
17.10.2018 03:52 12,9 C 0,0 C 73 % 1019,6 hPa 0,0 l/m 0,0 km/h (0 Bft) N-NW 328 0,000 mm 0,0 UV-I 0 W/m 8,2 C 12,9 C 0,0 km/h (0 Bft) 100,00 %
17.10.2018 03:51 12,9 C 0,0 C 73 % 1019,6 hPa 0,0 l/m 0,0 km/h (0 Bft) N-NW 328 0,000 mm 0,0 UV-I 0 W/m 8,2 C 12,9 C 0,0 km/h (0 Bft) 98,63 %
17.10.2018 03:50 12,9 C 0,0 C 72 % 1019,6 hPa 0,0 l/m 0,0 km/h (0 Bft) N-NW 328 0,000 mm 0,0 UV-I 0 W/m 8,0 C 12,9 C 0,0 km/h (0 Bft) 98,63 %
17.10.2018 03:49 12,9 C 0,0 C 73 % 1019,6 hPa 0,0 l/m 0,0 km/h (0 Bft) N-NW 328 0,000 mm 0,0 UV-I 0 W/m 8,2 C 12,9 C 0,0 km/h (0 Bft) 98,63 %
17.10.2018 03:48 12,8 C 0,0 C 73 % 1019,7 hPa 0,0 l/m 0,0 km/h (0 Bft) N-NW 328 0,000 mm 0,0 UV-I 0 W/m 8,1 C 12,8 C 0,0 km/h (0 Bft) 100,00 %
17.10.2018 03:47 12,8 C 0,0 C 73 % 1019,6 hPa 0,0 l/m 0,0 km/h (0 Bft) N-NW 328 0,000 mm 0,0 UV-I 0 W/m 8,1 C 12,8 C 0,0 km/h (0 Bft) 100,00 %
17.10.2018 03:46 12,8 C 0,0 C 73 % 1019,6 hPa 0,0 l/m 0,0 km/h (0 Bft) N-NW 328 0,000 mm 0,0 UV-I 0 W/m 8,1 C 12,8 C 0,0 km/h (0 Bft) 100,00 %
17.10.2018 03:45 12,8 C 0,0 C 73 % 1019,7 hPa 0,0 l/m 0,0 km/h (0 Bft) N-NW 328 0,000 mm 0,0 UV-I 0 W/m 8,1 C 12,8 C 0,0 km/h (0 Bft) 100,00 %
17.10.2018 03:42 12,9 C 0,0 C 72 % 1019,7 hPa 0,0 l/m 0,0 km/h (0 Bft) N-NW 328 0,000 mm 0,0 UV-I 0 W/m 8,0 C 12,9 C 0,0 km/h (0 Bft) 100,00 %
17.10.2018 03:41 12,9 C 0,0 C 72 % 1019,6 hPa 0,0 l/m 0,0 km/h (0 Bft) N-NW 328 0,000 mm 0,0 UV-I 0 W/m 8,0 C 12,9 C 0,0 km/h (0 Bft) 100,00 %
17.10.2018 03:40 13,0 C 0,0 C 72 % 1019,6 hPa 0,0 l/m 0,0 km/h (0 Bft) N-NW 328 0,000 mm 0,0 UV-I 0 W/m 8,1 C 13,0 C 0,0 km/h (0 Bft) 100,00 %
17.10.2018 03:39 13,0 C 0,0 C 72 % 1019,7 hPa 0,0 l/m 0,0 km/h (0 Bft) N-NW 328 0,000 mm 0,0 UV-I 0 W/m 8,1 C 13,0 C 0,0 km/h (0 Bft) 95,65 %
17.10.2018 03:38 13,1 C 0,0 C 72 % 1019,7 hPa 0,0 l/m 0,0 km/h (0 Bft) N-NW 328 0,000 mm 0,0 UV-I 0 W/m 8,2 C 13,1 C 0,0 km/h (0 Bft) 100,00 %
17.10.2018 03:37 13,1 C 0,0 C 72 % 1019,7 hPa 0,0 l/m 0,0 km/h (0 Bft) N-NW 328 0,000 mm 0,0 UV-I 0 W/m 8,2 C 13,1 C 0,0 km/h (0 Bft) 95,65 %
17.10.2018 03:36 13,1 C 0,0 C 71 % 1019,7 hPa 0,0 l/m 0,0 km/h (0 Bft) N-NW 328 0,000 mm 0,0 UV-I 0 W/m 8,0 C 13,1 C 0,0 km/h (0 Bft) 100,00 %
17.10.2018 03:35 13,1 C 0,0 C 71 % 1019,7 hPa 0,0 l/m 0,0 km/h (0 Bft) N-NW 328 0,000 mm 0,0 UV-I 0 W/m 8,0 C 13,1 C 0,0 km/h (0 Bft) 100,00 %
17.10.2018 03:34 13,2 C 0,0 C 71 % 1019,7 hPa 0,0 l/m 0,0 km/h (0 Bft) N-NW 328 0,000 mm 0,0 UV-I 0 W/m 8,1 C 13,2 C 0,0 km/h (0 Bft) 95,83 %
17.10.2018 03:33 13,2 C 0,0 C 71 % 1019,7 hPa 0,0 l/m 0,0 km/h (0 Bft) N-NW 328 0,000 mm 0,0 UV-I 0 W/m 8,1 C 13,2 C 0,0 km/h (0 Bft) 100,00 %
17.10.2018 03:32 13,2 C 0,0 C 71 % 1019,7 hPa 0,0 l/m 0,0 km/h (0 Bft) N-NW 328 0,000 mm 0,0 UV-I 0 W/m 8,1 C 13,2 C 0,0 km/h (0 Bft) 100,00 %
17.10.2018 03:31 13,2 C 0,0 C 71 % 1019,7 hPa 0,0 l/m 0,0 km/h (0 Bft) N-NW 328 0,000 mm 0,0 UV-I 0 W/m 8,1 C 13,2 C 0,0 km/h (0 Bft) 100,00 %
17.10.2018 03:30 13,2 C 0,0 C 71 % 1019,7 hPa 0,0 l/m 0,0 km/h (0 Bft) N-NW 328 0,000 mm 0,0 UV-I 0 W/m 8,1 C 13,2 C 0,0 km/h (0 Bft) 95,65 %
17.10.2018 03:29 13,2 C 0,0 C 71 % 1019,6 hPa 0,0 l/m 0,0 km/h (0 Bft) N-NW 328 0,000 mm 0,0 UV-I 0 W/m 8,1 C 13,2 C 0,0 km/h (0 Bft) 100,00 %
17.10.2018 03:28 13,3 C 0,0 C 71 % 1019,7 hPa 0,0 l/m 0,0 km/h (0 Bft) N-NW 328 0,000 mm 0,0 UV-I 0 W/m 8,2 C 13,3 C 0,0 km/h (0 Bft) 100,00 %
17.10.2018 03:27 13,3 C 0,0 C 71 % 1019,7 hPa 0,0 l/m 0,0 km/h (0 Bft) N-NW 328 0,000 mm 0,0 UV-I 0 W/m 8,2 C 13,3 C 0,0 km/h (0 Bft) 100,00 %
17.10.2018 03:26 13,3 C 0,0 C 71 % 1019,7 hPa 0,0 l/m 0,0 km/h (0 Bft) N-NW 328 0,000 mm 0,0 UV-I 0 W/m 8,2 C 13,3 C 0,0 km/h (0 Bft) 100,00 %
17.10.2018 03:25 13,3 C 0,0 C 71 % 1019,7 hPa 0,0 l/m 0,0 km/h (0 Bft) N-NW 328 0,000 mm 0,0 UV-I 0 W/m 8,2 C 13,3 C 0,0 km/h (0 Bft) 95,65 %
17.10.2018 03:24 13,3 C 0,0 C 71 % 1019,7 hPa 0,0 l/m 0,0 km/h (0 Bft) N-NW 328 0,000 mm 0,0 UV-I 0 W/m 8,2 C 13,3 C 0,0 km/h (0 Bft) 100,00 %
17.10.2018 03:23 13,3 C 0,0 C 71 % 1019,7 hPa 0,0 l/m 0,0 km/h (0 Bft) N-NW 328 0,000 mm 0,0 UV-I 0 W/m 8,2 C 13,3 C 0,0 km/h (0 Bft) 100,00 %
17.10.2018 03:22 13,2 C 0,0 C 71 % 1019,7 hPa 0,0 l/m 0,0 km/h (0 Bft) N-NW 328 0,000 mm 0,0 UV-I 0 W/m 8,1 C 13,2 C 0,0 km/h (0 Bft) 100,00 %
17.10.2018 03:21 13,1 C 0,0 C 72 % 1019,6 hPa 0,0 l/m 0,0 km/h (0 Bft) N-NW 328 0,000 mm 0,0 UV-I 0 W/m 8,2 C 13,1 C 0,0 km/h (0 Bft) 95,83 %
17.10.2018 03:20 13,1 C 0,0 C 72 % 1019,7 hPa 0,0 l/m 0,0 km/h (0 Bft) N-NW 328 0,000 mm 0,0 UV-I 0 W/m 8,2 C 13,1 C 0,0 km/h (0 Bft) 91,30 %
17.10.2018 03:19 13,0 C 0,0 C 72 % 1019,7 hPa 0,0 l/m 0,0 km/h (0 Bft) N-NW 328 0,000 mm 0,0 UV-I 0 W/m 8,1 C 13,0 C 0,0 km/h (0 Bft) 100,00 %
17.10.2018 03:18 12,9 C 0,0 C 72 % 1019,7 hPa 0,0 l/m 0,0 km/h (0 Bft) N-NW 328 0,000 mm 0,0 UV-I 0 W/m 8,0 C 12,9 C 0,0 km/h (0 Bft) 100,00 %
17.10.2018 03:17 12,9 C 0,0 C 72 % 1019,6 hPa 0,0 l/m 0,0 km/h (0 Bft) N-NW 328 0,000 mm 0,0 UV-I 0 W/m 8,0 C 12,9 C 0,0 km/h (0 Bft) 100,00 %
17.10.2018 03:16 12,9 C 0,0 C 72 % 1019,6 hPa 0,0 l/m 0,0 km/h (0 Bft) N-NW 328 0,000 mm 0,0 UV-I 0 W/m 8,0 C 12,9 C 0,0 km/h (0 Bft) 100,00 %
17.10.2018 03:15 12,9 C 0,0 C 73 % 1019,7 hPa 0,0 l/m 0,0 km/h (0 Bft) N-NW 328 0,000 mm 0,0 UV-I 0 W/m 8,2 C 12,9 C 0,0 km/h (0 Bft) 100,00 %
17.10.2018 03:14 12,8 C 0,0 C 73 % 1019,7 hPa 0,0 l/m 0,0 km/h (0 Bft) N-NW 328 0,000 mm 0,0 UV-I 0 W/m 8,1 C 12,8 C 0,0 km/h (0 Bft) 100,00 %
17.10.2018 03:13 12,8 C 0,0 C 73 % 1019,7 hPa 0,0 l/m 0,0 km/h (0 Bft) N-NW 328 0,000 mm 0,0 UV-I 0 W/m 8,1 C 12,8 C 0,0 km/h (0 Bft) 100,00 %
17.10.2018 03:12 12,8 C 0,0 C 73 % 1019,7 hPa 0,0 l/m 0,0 km/h (0 Bft) N-NW 328 0,000 mm 0,0 UV-I 0 W/m 8,1 C 12,8 C 0,0 km/h (0 Bft) 100,00 %
17.10.2018 03:11 12,8 C 0,0 C 73 % 1019,7 hPa 0,0 l/m 0,0 km/h (0 Bft) N-NW 328 0,000 mm 0,0 UV-I 0 W/m 8,1 C 12,8 C 0,0 km/h (0 Bft) 100,00 %
17.10.2018 03:10 12,8 C 0,0 C 73 % 1019,7 hPa 0,0 l/m 0,0 km/h (0 Bft) N-NW 328 0,000 mm 0,0 UV-I 0 W/m 8,1 C 12,8 C 0,0 km/h (0 Bft) 100,00 %
17.10.2018 03:09 12,8 C 0,0 C 73 % 1019,7 hPa 0,0 l/m 0,0 km/h (0 Bft) N-NW 328 0,000 mm 0,0 UV-I 0 W/m 8,1 C 12,8 C 0,0 km/h (0 Bft) 100,00 %
17.10.2018 03:08 12,8 C 0,0 C 73 % 1019,7 hPa 0,0 l/m 0,0 km/h (0 Bft) N-NW 328 0,000 mm 0,0 UV-I 0 W/m 8,1 C 12,8 C 0,0 km/h (0 Bft) 100,00 %
17.10.2018 03:07 12,8 C 0,0 C 73 % 1019,7 hPa 0,0 l/m 0,0 km/h (0 Bft) N-NW 328 0,000 mm 0,0 UV-I 0 W/m 8,1 C 12,8 C 0,0 km/h (0 Bft) 100,00 %
17.10.2018 03:06 12,8 C 0,0 C 73 % 1019,7 hPa 0,0 l/m 0,0 km/h (0 Bft) N-NW 328 0,000 mm 0,0 UV-I 0 W/m 8,1 C 12,8 C 0,0 km/h (0 Bft) 100,00 %
17.10.2018 03:05 12,9 C 0,0 C 73 % 1019,8 hPa 0,0 l/m 0,0 km/h (0 Bft) N-NW 328 0,000 mm 0,0 UV-I 0 W/m 8,2 C 12,9 C 0,0 km/h (0 Bft) 100,00 %
17.10.2018 03:04 12,9 C 0,0 C 73 % 1019,8 hPa 0,0 l/m 0,0 km/h (0 Bft) N-NW 328 0,000 mm 0,0 UV-I 0 W/m 8,2 C 12,9 C 0,0 km/h (0 Bft) 100,00 %
17.10.2018 03:03 12,9 C 0,0 C 73 % 1019,7 hPa 0,0 l/m 0,0 km/h (0 Bft) N-NW 328 0,000 mm 0,0 UV-I 0 W/m 8,2 C 12,9 C 0,0 km/h (0 Bft) 100,00 %
17.10.2018 03:02 12,8 C 0,0 C 73 % 1019,7 hPa 0,0 l/m 0,0 km/h (0 Bft) N-NW 328 0,000 mm 0,0 UV-I 0 W/m 8,1 C 12,8 C 0,0 km/h (0 Bft) 100,00 %
17.10.2018 03:01 12,8 C 0,0 C 73 % 1019,7 hPa 0,0 l/m 0,0 km/h (0 Bft) N-NW 328 0,025 mm 0,0 UV-I 0 W/m 8,1 C 12,8 C 0,0 km/h (0 Bft) 100,00 %
17.10.2018 02:58 12,9 C 0,0 C 73 % 1019,7 hPa 0,0 l/m 0,0 km/h (0 Bft) N-NW 328 0,000 mm 0,0 UV-I 0 W/m 8,2 C 12,9 C 0,0 km/h (0 Bft) 95,65 %
17.10.2018 02:57 12,9 C 0,0 C 73 % 1019,7 hPa 0,0 l/m 0,0 km/h (0 Bft) N-NW 328 0,000 mm 0,0 UV-I 0 W/m 8,2 C 12,9 C 0,0 km/h (0 Bft) 100,00 %
17.10.2018 02:56 12,9 C 0,0 C 73 % 1019,7 hPa 0,0 l/m 0,0 km/h (0 Bft) N-NW 328 0,000 mm 0,0 UV-I 0 W/m 8,2 C 12,9 C 0,0 km/h (0 Bft) 100,00 %
17.10.2018 02:55 12,9 C 0,0 C 72 % 1019,7 hPa 0,0 l/m 0,0 km/h (0 Bft) N-NW 328 0,000 mm 0,0 UV-I 0 W/m 8,0 C 12,9 C 0,0 km/h (0 Bft) 100,00 %
17.10.2018 02:54 12,9 C 0,0 C 72 % 1019,8 hPa 0,0 l/m 0,0 km/h (0 Bft) N-NW 328 0,000 mm 0,0 UV-I 0 W/m 8,0 C 12,9 C 0,0 km/h (0 Bft) 95,65 %
17.10.2018 02:53 12,9 C 0,0 C 72 % 1019,8 hPa 0,0 l/m 0,0 km/h (0 Bft) N-NW 328 0,000 mm 0,0 UV-I 0 W/m 8,0 C 12,9 C 0,0 km/h (0 Bft) 100,00 %
17.10.2018 02:52 12,9 C 0,0 C 72 % 1019,7 hPa 0,0 l/m 0,0 km/h (0 Bft) N-NW 328 0,000 mm 0,0 UV-I 0 W/m 8,0 C 12,9 C 0,0 km/h (0 Bft) 100,00 %
17.10.2018 02:51 12,9 C 0,0 C 72 % 1019,7 hPa 0,0 l/m 0,0 km/h (0 Bft) N-NW 328 0,000 mm 0,0 UV-I 0 W/m 8,0 C 12,9 C 0,0 km/h (0 Bft) 100,00 %
17.10.2018 02:50 12,9 C 0,0 C 72 % 1019,8 hPa 0,0 l/m 0,0 km/h (0 Bft) N-NW 328 0,000 mm 0,0 UV-I 0 W/m 8,0 C 12,9 C 0,0 km/h (0 Bft) 100,00 %
17.10.2018 02:49 12,9 C 0,0 C 72 % 1019,8 hPa 0,0 l/m 0,0 km/h (0 Bft) N-NW 328 0,000 mm 0,0 UV-I 0 W/m 8,0 C 12,9 C 0,0 km/h (0 Bft) 100,00 %
17.10.2018 02:48 12,9 C 0,0 C 72 % 1019,8 hPa 0,0 l/m 0,0 km/h (0 Bft) N-NW 328 0,000 mm 0,0 UV-I 0 W/m 8,0 C 12,9 C 0,0 km/h (0 Bft) 100,00 %
17.10.2018 02:47 12,9 C 0,0 C 72 % 1019,8 hPa 0,0 l/m 0,0 km/h (0 Bft) N-NW 328 0,000 mm 0,0 UV-I 0 W/m 8,0 C 12,9 C 0,0 km/h (0 Bft) 100,00 %
17.10.2018 02:46 13,0 C 0,0 C 72 % 1019,7 hPa 0,0 l/m 0,0 km/h (0 Bft) N-NW 328 0,000 mm 0,0 UV-I 0 W/m 8,1 C 13,0 C 0,0 km/h (0 Bft) 95,65 %
17.10.2018 02:45 13,1 C 0,0 C 72 % 1019,8 hPa 0,0 l/m 0,0 km/h (0 Bft) N-NW 328 0,000 mm 0,0 UV-I 0 W/m 8,2 C 13,1 C 0,0 km/h (0 Bft) 95,83 %
17.10.2018 02:44 13,1 C 0,0 C 72 % 1019,8 hPa 0,0 l/m 0,0 km/h (0 Bft) N-NW 328 0,000 mm 0,0 UV-I 0 W/m 8,2 C 13,1 C 0,0 km/h (0 Bft) 100,00 %
17.10.2018 02:43 13,1 C 0,0 C 72 % 1019,8 hPa 0,0 l/m 0,0 km/h (0 Bft) N-NW 328 0,000 mm 0,0 UV-I 0 W/m 8,2 C 13,1 C 0,0 km/h (0 Bft) 95,83 %
17.10.2018 02:42 13,1 C 0,0 C 72 % 1019,8 hPa 0,0 l/m 0,0 km/h (0 Bft) N-NW 328 0,000 mm 0,0 UV-I 0 W/m 8,2 C 13,1 C 0,0 km/h (0 Bft) 95,65 %
17.10.2018 02:41 13,1 C 0,0 C 72 % 1019,7 hPa 0,0 l/m 0,0 km/h (0 Bft) N-NW 328 0,000 mm 0,0 UV-I 0 W/m 8,2 C 13,1 C 0,0 km/h (0 Bft) 100,00 %
17.10.2018 02:40 13,1 C 0,0 C 72 % 1019,8 hPa 0,0 l/m 0,0 km/h (0 Bft) N-NW 328 0,000 mm 0,0 UV-I 0 W/m 8,2 C 13,1 C 0,0 km/h (0 Bft) 91,67 %
17.10.2018 02:39 13,1 C 0,0 C 72 % 1019,8 hPa 0,0 l/m 0,0 km/h (0 Bft) N-NW 328 0,000 mm 0,0 UV-I 0 W/m 8,2 C 13,1 C 0,0 km/h (0 Bft) 100,00 %
17.10.2018 02:38 13,1 C 0,0 C 73 % 1019,8 hPa 0,0 l/m 0,0 km/h (0 Bft) N-NW 328 0,000 mm 0,0 UV-I 0 W/m 8,4 C 13,1 C 0,0 km/h (0 Bft) 96,92 %
17.10.2018 02:36 13,1 C 0,0 C 73 % 1019,8 hPa 0,0 l/m 0,0 km/h (0 Bft) N-NW 328 0,000 mm 0,0 UV-I 0 W/m 8,4 C 13,1 C 0,0 km/h (0 Bft) 98,48 %
17.10.2018 02:35 13,0 C 0,0 C 73 % 1019,8 hPa 0,0 l/m 0,0 km/h (0 Bft) N-NW 328 0,000 mm 0,0 UV-I 0 W/m 8,3 C 13,0 C 0,0 km/h (0 Bft) 100,00 %
17.10.2018 02:34 13,0 C 0,0 C 73 % 1019,8 hPa 0,0 l/m 0,0 km/h (0 Bft) N-NW 328 0,000 mm 0,0 UV-I 0 W/m 8,3 C 13,0 C 0,0 km/h (0 Bft) 95,83 %
17.10.2018 02:33 13,0 C 0,0 C 73 % 1019,8 hPa 0,0 l/m 0,0 km/h (0 Bft) N-NW 328 0,000 mm 0,0 UV-I 0 W/m 8,3 C 13,0 C 0,0 km/h (0 Bft) 100,00 %
17.10.2018 02:32 12,9 C 0,0 C 73 % 1019,7 hPa 0,0 l/m 0,0 km/h (0 Bft) N-NW 328 0,000 mm 0,0 UV-I 0 W/m 8,2 C 12,9 C 0,0 km/h (0 Bft) 95,65 %
17.10.2018 02:31 12,9 C 0,0 C 73 % 1019,7 hPa 0,0 l/m 0,0 km/h (0 Bft) N-NW 328 0,000 mm 0,0 UV-I 0 W/m 8,2 C 12,9 C 0,0 km/h (0 Bft) 95,83 %
17.10.2018 02:30 12,9 C 0,0 C 74 % 1019,7 hPa 0,0 l/m 0,0 km/h (0 Bft) N-NW 328 0,000 mm 0,0 UV-I 0 W/m 8,4 C 12,9 C 0,0 km/h (0 Bft) 100,00 %
17.10.2018 02:29 12,9 C 0,0 C 74 % 1019,8 hPa 0,0 l/m 0,0 km/h (0 Bft) N-NW 328 0,000 mm 0,0 UV-I 0 W/m 8,4 C 12,9 C 0,0 km/h (0 Bft) 95,83 %
17.10.2018 02:28 12,8 C 0,0 C 74 % 1019,8 hPa 0,0 l/m 0,0 km/h (0 Bft) N-NW 328 0,000 mm 0,0 UV-I 0 W/m 8,3 C 12,8 C 0,0 km/h (0 Bft) 100,00 %
17.10.2018 02:27 12,8 C 0,0 C 74 % 1019,8 hPa 0,0 l/m 0,0 km/h (0 Bft) N-NW 328 0,000 mm 0,0 UV-I 0 W/m 8,3 C 12,8 C 0,0 km/h (0 Bft) 95,65 %
17.10.2018 02:26 12,8 C 0,0 C 74 % 1019,7 hPa 0,0 l/m 0,0 km/h (0 Bft) N-NW 328 0,000 mm 0,0 UV-I 0 W/m 8,3 C 12,8 C 0,0 km/h (0 Bft) 100,00 %
17.10.2018 02:25 12,8 C 0,0 C 74 % 1019,8 hPa 0,0 l/m 0,0 km/h (0 Bft) N-NW 328 0,000 mm 0,0 UV-I 0 W/m 8,3 C 12,8 C 0,0 km/h (0 Bft) 95,65 %
17.10.2018 02:24 12,8 C 0,0 C 74 % 1019,8 hPa 0,0 l/m 0,0 km/h (0 Bft) N-NW 328 0,000 mm 0,0 UV-I 0 W/m 8,3 C 12,8 C 0,0 km/h (0 Bft) 100,00 %
17.10.2018 02:23 12,9 C 0,0 C 74 % 1019,8 hPa 0,0 l/m 0,0 km/h (0 Bft) N-NW 328 0,000 mm 0,0 UV-I 0 W/m 8,4 C 12,9 C 0,0 km/h (0 Bft) 95,65 %
17.10.2018 02:22 12,8 C 0,0 C 74 % 1019,8 hPa 0,0 l/m 0,0 km/h (0 Bft) N-NW 328 0,000 mm 0,0 UV-I 0 W/m 8,3 C 12,8 C 0,0 km/h (0 Bft) 95,65 %
17.10.2018 02:21 12,8 C 0,0 C 74 % 1019,8 hPa 0,0 l/m 0,0 km/h (0 Bft) N-NW 328 0,000 mm 0,0 UV-I 0 W/m 8,3 C 12,8 C 0,0 km/h (0 Bft) 100,00 %
17.10.2018 02:20 12,8 C 0,0 C 74 % 1019,8 hPa 0,0 l/m 0,0 km/h (0 Bft) N-NW 328 0,000 mm 0,0 UV-I 0 W/m 8,3 C 12,8 C 0,0 km/h (0 Bft) 95,65 %
17.10.2018 02:19 12,8 C 0,0 C 74 % 1019,8 hPa 0,0 l/m 0,0 km/h (0 Bft) N-NW 328 0,000 mm 0,0 UV-I 0 W/m 8,3 C 12,8 C 0,0 km/h (0 Bft) 100,00 %
17.10.2018 02:18 12,8 C 0,0 C 74 % 1019,8 hPa 0,0 l/m 0,0 km/h (0 Bft) N-NW 328 0,000 mm 0,0 UV-I 0 W/m 8,3 C 12,8 C 0,0 km/h (0 Bft) 95,65 %
17.10.2018 02:17 12,8 C 0,0 C 75 % 1019,8 hPa 0,0 l/m 0,1 km/h (0 Bft) N-NW 328 0,000 mm 0,0 UV-I 0 W/m 8,5 C 12,8 C 1,6 km/h (1 Bft) 100,00 %
17.10.2018 02:16 12,7 C 0,0 C 75 % 1019,8 hPa 0,0 l/m 2,3 km/h (1 Bft) N-NW 328 0,000 mm 0,0 UV-I 0 W/m 8,4 C 12,7 C 3,2 km/h (1 Bft) 97,18 %
17.10.2018 02:14 12,7 C 0,0 C 74 % 1019,8 hPa 0,0 l/m 3,2 km/h (1 Bft) N-NW 328 0,000 mm 0,0 UV-I 0 W/m 8,2 C 12,7 C 3,2 km/h (1 Bft) 98,62 %
17.10.2018 02:13 12,7 C 0,0 C 74 % 1019,8 hPa 0,0 l/m 2,7 km/h (1 Bft) N-NW 328 0,000 mm 0,0 UV-I 0 W/m 8,2 C 12,7 C 3,2 km/h (1 Bft) 95,65 %
17.10.2018 02:12 12,7 C 0,0 C 74 % 1019,8 hPa 0,0 l/m 2,5 km/h (1 Bft) N-NW 328 0,000 mm 0,0 UV-I 0 W/m 8,2 C 12,7 C 3,2 km/h (1 Bft) 100,00 %
17.10.2018 02:11 12,7 C 0,0 C 74 % 1019,8 hPa 0,0 l/m 2,8 km/h (1 Bft) N-NW 328 0,000 mm 0,0 UV-I 0 W/m 8,2 C 12,7 C 3,2 km/h (1 Bft) 91,30 %
17.10.2018 02:10 12,7 C 0,0 C 74 % 1019,8 hPa 0,0 l/m 2,5 km/h (1 Bft) N-NW 328 0,000 mm 0,0 UV-I 0 W/m 8,2 C 12,7 C 3,2 km/h (1 Bft) 100,00 %
17.10.2018 02:09 12,7 C 0,0 C 74 % 1019,8 hPa 0,0 l/m 3,1 km/h (1 Bft) N-NW 328 0,000 mm 0,0 UV-I 0 W/m 8,2 C 12,7 C 3,2 km/h (1 Bft) 100,00 %
17.10.2018 02:08 12,7 C 0,0 C 74 % 1019,9 hPa 0,0 l/m 2,7 km/h (1 Bft) N-NW 328 0,000 mm 0,0 UV-I 0 W/m 8,2 C 12,7 C 3,2 km/h (1 Bft) 95,65 %
17.10.2018 02:07 12,7 C 0,0 C 74 % 1019,9 hPa 0,0 l/m 2,7 km/h (1 Bft) N-NW 328 0,000 mm 0,0 UV-I 0 W/m 8,2 C 12,7 C 3,2 km/h (1 Bft) 100,00 %
17.10.2018 02:06 12,7 C 0,0 C 74 % 1019,8 hPa 0,0 l/m 2,2 km/h (1 Bft) N-NW 328 0,000 mm 0,0 UV-I 0 W/m 8,2 C 12,7 C 3,2 km/h (1 Bft) 91,30 %
17.10.2018 02:05 12,7 C 0,0 C 74 % 1019,8 hPa 0,0 l/m 2,7 km/h (1 Bft) N-NW 328 0,000 mm 0,0 UV-I 0 W/m 8,2 C 12,7 C 3,2 km/h (1 Bft) 100,00 %
17.10.2018 02:04 12,6 C 0,0 C 74 % 1019,8 hPa 0,0 l/m 2,7 km/h (1 Bft) N-NW 328 0,000 mm 0,0 UV-I 0 W/m 8,1 C 12,6 C 3,2 km/h (1 Bft) 95,65 %
17.10.2018 02:03 12,6 C 0,0 C 74 % 1019,9 hPa 0,0 l/m 2,3 km/h (1 Bft) N-NW 328 0,000 mm 0,0 UV-I 0 W/m 8,1 C 12,6 C 3,2 km/h (1 Bft) 100,00 %
17.10.2018 02:02 12,6 C 0,0 C 74 % 1019,8 hPa 0,0 l/m 2,2 km/h (1 Bft) N-NW 328 0,000 mm 0,0 UV-I 0 W/m 8,1 C 12,6 C 3,2 km/h (1 Bft) 95,83 %
17.10.2018 02:01 12,6 C 0,0 C 74 % 1019,9 hPa 0,0 l/m 2,3 km/h (1 Bft) N-NW 328 0,026 mm 0,0 UV-I 0 W/m 8,1 C 12,6 C 3,2 km/h (1 Bft) 100,00 %
17.10.2018 02:00 12,6 C 0,0 C 74 % 1019,9 hPa 0,0 l/m 2,4 km/h (1 Bft) N-NW 328 0,000 mm 0,0 UV-I 0 W/m 8,1 C 12,6 C 3,2 km/h (1 Bft) 100,00 %
17.10.2018 01:59 12,6 C 0,0 C 74 % 1019,9 hPa 0,0 l/m 2,4 km/h (1 Bft) N-NW 328 0,000 mm 0,0 UV-I 0 W/m 8,1 C 12,6 C 3,2 km/h (1 Bft) 100,00 %
17.10.2018 01:58 12,6 C 0,0 C 74 % 1019,9 hPa 0,0 l/m 2,7 km/h (1 Bft) N-NW 328 0,000 mm 0,0 UV-I 0 W/m 8,1 C 12,6 C 3,2 km/h (1 Bft) 100,00 %
17.10.2018 01:57 12,6 C 0,0 C 74 % 1019,9 hPa 0,0 l/m 2,5 km/h (1 Bft) N-NW 328 0,000 mm 0,0 UV-I 0 W/m 8,1 C 12,6 C 3,2 km/h (1 Bft) 100,00 %
17.10.2018 01:56 12,6 C 0,0 C 74 % 1019,9 hPa 0,0 l/m 3,1 km/h (1 Bft) N-NW 328 0,000 mm 0,0 UV-I 0 W/m 8,1 C 12,6 C 3,2 km/h (1 Bft) 100,00 %
17.10.2018 01:53 12,6 C 0,0 C 74 % 1019,9 hPa 0,0 l/m 3,8 km/h (1 Bft) N-NW 328 0,000 mm 0,0 UV-I 0 W/m 8,1 C 12,6 C 6,4 km/h (2 Bft) 95,65 %
17.10.2018 01:52 12,6 C 0,0 C 74 % 1019,9 hPa 0,0 l/m 3,3 km/h (1 Bft) N-NW 328 0,000 mm 0,0 UV-I 0 W/m 8,1 C 12,6 C 6,4 km/h (2 Bft) 100,00 %
17.10.2018 01:51 12,6 C 0,0 C 74 % 1019,8 hPa 0,0 l/m 3,1 km/h (1 Bft) N-NW 328 0,000 mm 0,0 UV-I 0 W/m 8,1 C 12,6 C 3,2 km/h (1 Bft) 95,65 %
17.10.2018 01:50 12,6 C 0,0 C 74 % 1019,9 hPa 0,0 l/m 2,9 km/h (1 Bft) N-NW 328 0,000 mm 0,0 UV-I 0 W/m 8,1 C 12,6 C 3,2 km/h (1 Bft) 100,00 %
17.10.2018 01:49 12,6 C 0,0 C 74 % 1019,9 hPa 0,0 l/m 2,3 km/h (1 Bft) N-NW 328 0,000 mm 0,0 UV-I 0 W/m 8,1 C 12,6 C 3,2 km/h (1 Bft) 95,65 %
17.10.2018 01:48 12,6 C 0,0 C 74 % 1019,9 hPa 0,0 l/m 2,3 km/h (1 Bft) N-NW 328 0,000 mm 0,0 UV-I 0 W/m 8,1 C 12,6 C 3,2 km/h (1 Bft) 100,00 %
17.10.2018 01:47 12,6 C 0,0 C 74 % 1019,9 hPa 0,0 l/m 3,2 km/h (1 Bft) N-NW 328 0,000 mm 0,0 UV-I 0 W/m 8,1 C 12,6 C 3,2 km/h (1 Bft) 95,83 %
17.10.2018 01:46 12,6 C 0,0 C 74 % 1019,9 hPa 0,0 l/m 3,0 km/h (1 Bft) N-NW 328 0,000 mm 0,0 UV-I 0 W/m 8,1 C 12,6 C 6,4 km/h (2 Bft) 100,00 %
17.10.2018 01:45 12,6 C 0,0 C 74 % 1019,8 hPa 0,0 l/m 3,2 km/h (1 Bft) N-NW 328 0,000 mm 0,0 UV-I 0 W/m 8,1 C 12,6 C 3,2 km/h (1 Bft) 100,00 %
17.10.2018 01:44 12,6 C 0,0 C 74 % 1019,9 hPa 0,0 l/m 4,0 km/h (1 Bft) N-NW 328 0,000 mm 0,0 UV-I 0 W/m 8,1 C 12,6 C 6,4 km/h (2 Bft) 100,00 %
17.10.2018 01:43 12,6 C 0,0 C 74 % 1019,9 hPa 0,0 l/m 3,4 km/h (1 Bft) N-NW 328 0,000 mm 0,0 UV-I 0 W/m 8,1 C 12,6 C 6,4 km/h (2 Bft) 98,70 %
17.10.2018 01:42 12,6 C 0,0 C 74 % 1019,9 hPa 0,0 l/m 3,6 km/h (1 Bft) N-NW 328 0,000 mm 0,0 UV-I 0 W/m 8,1 C 12,6 C 6,4 km/h (2 Bft) 100,00 %
17.10.2018 01:41 12,7 C 0,0 C 74 % 1019,9 hPa 0,0 l/m 4,3 km/h (1 Bft) N-NW 328 0,000 mm 0,0 UV-I 0 W/m 8,2 C 12,7 C 6,4 km/h (2 Bft) 100,00 %
17.10.2018 01:40 12,7 C 0,0 C 73 % 1019,9 hPa 0,0 l/m 4,0 km/h (1 Bft) N-NW 328 0,000 mm 0,0 UV-I 0 W/m 8,0 C 12,7 C 6,4 km/h (2 Bft) 96,15 %
17.10.2018 01:39 12,7 C 0,0 C 73 % 1019,9 hPa 0,0 l/m 4,1 km/h (1 Bft) N-NW 328 0,000 mm 0,0 UV-I 0 W/m 8,0 C 12,7 C 6,4 km/h (2 Bft) 100,00 %
17.10.2018 01:38 12,7 C 0,0 C 73 % 1019,9 hPa 0,0 l/m 4,5 km/h (1 Bft) N-NW 328 0,000 mm 0,0 UV-I 0 W/m 8,0 C 12,7 C 6,4 km/h (2 Bft) 100,00 %
17.10.2018 01:37 12,7 C 0,0 C 73 % 1019,9 hPa 0,0 l/m 3,9 km/h (1 Bft) N-NW 328 0,000 mm 0,0 UV-I 0 W/m 8,0 C 12,7 C 6,4 km/h (2 Bft) 100,00 %
17.10.2018 01:36 12,8 C 0,0 C 73 % 1019,8 hPa 0,0 l/m 6,2 km/h (2 Bft) N-NW 328 0,000 mm 0,0 UV-I 0 W/m 8,1 C 12,8 C 6,4 km/h (2 Bft) 100,00 %
17.10.2018 01:35 12,8 C 0,0 C 73 % 1019,9 hPa 0,0 l/m 4,8 km/h (1 Bft) N-NW 328 0,000 mm 0,0 UV-I 0 W/m 8,1 C 12,8 C 6,4 km/h (2 Bft) 95,65 %
17.10.2018 01:34 12,8 C 0,0 C 72 % 1019,9 hPa 0,0 l/m 4,4 km/h (1 Bft) N-NW 328 0,000 mm 0,0 UV-I 0 W/m 7,9 C 12,8 C 6,4 km/h (2 Bft) 100,00 %
17.10.2018 01:33 12,9 C 0,0 C 72 % 1019,8 hPa 0,0 l/m 6,2 km/h (2 Bft) N-NW 328 0,000 mm 0,0 UV-I 0 W/m 8,0 C 12,9 C 6,4 km/h (2 Bft) 100,00 %
17.10.2018 01:32 12,9 C 0,0 C 72 % 1019,9 hPa 0,0 l/m 5,0 km/h (1 Bft) N-NW 328 0,000 mm 0,0 UV-I 0 W/m 8,0 C 12,9 C 6,4 km/h (2 Bft) 95,65 %
17.10.2018 01:31 12,9 C 0,0 C 72 % 1019,9 hPa 0,0 l/m 4,4 km/h (1 Bft) N-NW 328 0,000 mm 0,0 UV-I 0 W/m 8,0 C 12,9 C 6,4 km/h (2 Bft) 100,00 %
17.10.2018 01:29 13,0 C 0,0 C 72 % 1019,9 hPa 0,0 l/m 6,4 km/h (2 Bft) N-NW 328 0,000 mm 0,0 UV-I 0 W/m 8,1 C 13,0 C 6,4 km/h (2 Bft) 98,64 %
17.10.2018 01:28 13,0 C 0,0 C 72 % 1019,8 hPa 0,0 l/m 5,3 km/h (1 Bft) N-NW 328 0,000 mm 0,0 UV-I 0 W/m 8,1 C 13,0 C 6,4 km/h (2 Bft) 100,00 %
17.10.2018 01:27 13,0 C 0,0 C 72 % 1019,9 hPa 0,0 l/m 5,6 km/h (1 Bft) N-NW 328 0,000 mm 0,0 UV-I 0 W/m 8,1 C 13,0 C 6,4 km/h (2 Bft) 100,00 %
17.10.2018 01:26 13,0 C 0,0 C 72 % 1019,9 hPa 0,0 l/m 5,9 km/h (2 Bft) N-NW 328 0,000 mm 0,0 UV-I 0 W/m 8,1 C 13,0 C 6,4 km/h (2 Bft) 100,00 %
17.10.2018 01:25 13,1 C 0,0 C 72 % 1019,9 hPa 0,0 l/m 5,4 km/h (1 Bft) N-NW 328 0,000 mm 0,0 UV-I 0 W/m 8,2 C 13,1 C 6,4 km/h (2 Bft) 100,00 %
17.10.2018 01:24 13,1 C 0,0 C 72 % 1019,8 hPa 0,0 l/m 5,0 km/h (1 Bft) N-NW 328 0,000 mm 0,0 UV-I 0 W/m 8,2 C 13,1 C 6,4 km/h (2 Bft) 100,00 %
17.10.2018 01:23 13,1 C 0,0 C 72 % 1019,8 hPa 0,0 l/m 6,3 km/h (2 Bft) N-NW 328 0,000 mm 0,0 UV-I 0 W/m 8,2 C 13,1 C 6,4 km/h (2 Bft) 100,00 %
17.10.2018 01:22 13,1 C 0,0 C 72 % 1019,8 hPa 0,0 l/m 5,8 km/h (2 Bft) N-NW 328 0,000 mm 0,0 UV-I 0 W/m 8,2 C 13,1 C 6,4 km/h (2 Bft) 100,00 %
17.10.2018 01:21 13,1 C 0,0 C 72 % 1019,9 hPa 0,0 l/m 6,3 km/h (2 Bft) N-NW 328 0,000 mm 0,0 UV-I 0 W/m 8,2 C 13,1 C 6,4 km/h (2 Bft) 95,83 %
17.10.2018 01:20 13,1 C 0,0 C 72 % 1019,9 hPa 0,0 l/m 5,6 km/h (1 Bft) N-NW 328 0,000 mm 0,0 UV-I 0 W/m 8,2 C 13,1 C 6,4 km/h (2 Bft) 100,00 %
17.10.2018 01:19 13,1 C 0,0 C 72 % 1019,9 hPa 0,0 l/m 5,7 km/h (1 Bft) N-NW 328 0,000 mm 0,0 UV-I 0 W/m 8,2 C 13,1 C 6,4 km/h (2 Bft) 100,00 %
17.10.2018 01:16 13,1 C 0,0 C 72 % 1019,8 hPa 0,0 l/m 4,8 km/h (1 Bft) N-NW 336 0,000 mm 0,0 UV-I 0 W/m 8,2 C 13,1 C 4,8 km/h (1 Bft) 98,45 %
17.10.2018 01:15 13,1 C 0,0 C 72 % 1019,8 hPa 0,0 l/m 4,5 km/h (1 Bft) N-NW 336 0,000 mm 0,0 UV-I 0 W/m 8,2 C 13,1 C 4,8 km/h (1 Bft) 100,00 %
17.10.2018 01:14 13,1 C 0,0 C 72 % 1019,9 hPa 0,0 l/m 4,3 km/h (1 Bft) N-NW 339 0,000 mm 0,0 UV-I 0 W/m 8,2 C 13,1 C 4,8 km/h (1 Bft) 100,00 %
17.10.2018 01:11 13,2 C 0,0 C 74 % 1019,9 hPa 0,0 l/m 0,0 km/h (0 Bft) O-NO 57 0,000 mm 0,0 UV-I 0 W/m 8,7 C 13,2 C 0,0 km/h (0 Bft) 100,00 %
17.10.2018 01:10 13,2 C 0,0 C 73 % 1019,9 hPa 0,0 l/m 0,0 km/h (0 Bft) O-NO 57 0,000 mm 0,0 UV-I 0 W/m 8,5 C 13,2 C 0,0 km/h (0 Bft) 95,65 %
17.10.2018 01:09 13,3 C 0,0 C 73 % 1020,0 hPa 0,0 l/m 0,0 km/h (0 Bft) O-NO 57 0,000 mm 0,0 UV-I 0 W/m 8,6 C 13,3 C 0,0 km/h (0 Bft) 100,00 %
17.10.2018 01:08 13,3 C 0,0 C 73 % 1020,0 hPa 0,0 l/m 0,0 km/h (0 Bft) O-NO 57 0,000 mm 0,0 UV-I 0 W/m 8,6 C 13,3 C 0,0 km/h (0 Bft) 100,00 %
17.10.2018 01:07 13,3 C 0,0 C 73 % 1020,0 hPa 0,0 l/m 0,0 km/h (0 Bft) O-NO 57 0,000 mm 0,0 UV-I 0 W/m 8,6 C 13,3 C 0,0 km/h (0 Bft) 100,00 %
17.10.2018 01:06 13,4 C 0,0 C 72 % 1020,0 hPa 0,0 l/m 0,0 km/h (0 Bft) O-NO 57 0,000 mm 0,0 UV-I 0 W/m 8,5 C 13,4 C 0,0 km/h (0 Bft) 95,65 %
17.10.2018 01:05 13,4 C 0,0 C 72 % 1020,1 hPa 0,0 l/m 0,0 km/h (0 Bft) O-NO 57 0,000 mm 0,0 UV-I 0 W/m 8,5 C 13,4 C 0,0 km/h (0 Bft) 100,00 %
17.10.2018 01:04 13,4 C 0,0 C 72 % 1020,0 hPa 0,0 l/m 0,0 km/h (0 Bft) O-NO 57 0,000 mm 0,0 UV-I 0 W/m 8,5 C 13,4 C 0,0 km/h (0 Bft) 100,00 %
17.10.2018 01:03 13,4 C 0,0 C 73 % 1020,0 hPa 0,0 l/m 0,0 km/h (0 Bft) O-NO 57 0,000 mm 0,0 UV-I 0 W/m 8,7 C 13,4 C 0,0 km/h (0 Bft) 100,00 %
17.10.2018 01:02 13,4 C 0,0 C 73 % 1020,0 hPa 0,0 l/m 0,0 km/h (0 Bft) O-NO 57 0,000 mm 0,0 UV-I 0 W/m 8,7 C 13,4 C 0,0 km/h (0 Bft) 100,00 %
17.10.2018 01:01 13,4 C 0,0 C 73 % 1020,0 hPa 0,0 l/m 0,0 km/h (0 Bft) O-NO 57 0,000 mm 0,0 UV-I 0 W/m 8,7 C 13,4 C 0,0 km/h (0 Bft) 100,00 %
17.10.2018 01:00 13,4 C 0,0 C 72 % 1020,0 hPa 0,0 l/m 0,0 km/h (0 Bft) O-NO 57 0,025 mm 0,0 UV-I 0 W/m 8,5 C 13,4 C 0,0 km/h (0 Bft) 100,00 %
17.10.2018 00:59 13,4 C 0,0 C 72 % 1020,0 hPa 0,0 l/m 0,0 km/h (0 Bft) O-NO 57 0,000 mm 0,0 UV-I 0 W/m 8,5 C 13,4 C 0,0 km/h (0 Bft) 98,44 %
17.10.2018 00:57 13,7 C 0,0 C 72 % 1020,0 hPa 0,0 l/m 0,0 km/h (0 Bft) O-NO 57 0,000 mm 0,0 UV-I 0 W/m 8,7 C 13,7 C 0,0 km/h (0 Bft) 98,17 %
17.10.2018 00:56 13,7 C 0,0 C 72 % 1020,0 hPa 0,0 l/m 0,0 km/h (0 Bft) O-NO 57 0,000 mm 0,0 UV-I 0 W/m 8,7 C 13,7 C 0,0 km/h (0 Bft) 100,00 %
17.10.2018 00:55 13,7 C 0,0 C 72 % 1020,1 hPa 0,0 l/m 0,0 km/h (0 Bft) O-NO 57 0,000 mm 0,0 UV-I 0 W/m 8,7 C 13,7 C 0,0 km/h (0 Bft) 95,83 %
17.10.2018 00:54 13,7 C 0,0 C 71 % 1020,0 hPa 0,0 l/m 0,0 km/h (0 Bft) O-NO 57 0,000 mm 0,0 UV-I 0 W/m 8,5 C 13,7 C 0,0 km/h (0 Bft) 100,00 %
17.10.2018 00:53 13,8 C 0,0 C 71 % 1020,1 hPa 0,0 l/m 0,0 km/h (0 Bft) O-NO 57 0,000 mm 0,0 UV-I 0 W/m 8,6 C 13,8 C 0,0 km/h (0 Bft) 100,00 %
17.10.2018 00:52 13,8 C 0,0 C 71 % 1020,0 hPa 0,0 l/m 0,0 km/h (0 Bft) O-NO 57 0,000 mm 0,0 UV-I 0 W/m 8,6 C 13,8 C 0,0 km/h (0 Bft) 100,00 %
17.10.2018 00:51 13,8 C 0,0 C 71 % 1020,1 hPa 0,0 l/m 0,0 km/h (0 Bft) O-NO 57 0,000 mm 0,0 UV-I 0 W/m 8,6 C 13,8 C 0,0 km/h (0 Bft) 100,00 %
17.10.2018 00:50 13,9 C 0,0 C 71 % 1020,0 hPa 0,0 l/m 0,0 km/h (0 Bft) O-NO 57 0,000 mm 0,0 UV-I 0 W/m 8,7 C 13,9 C 0,0 km/h (0 Bft) 100,00 %
17.10.2018 00:49 13,9 C 0,0 C 71 % 1020,0 hPa 0,0 l/m 0,0 km/h (0 Bft) O-NO 57 0,000 mm 0,0 UV-I 0 W/m 8,7 C 13,9 C 0,0 km/h (0 Bft) 100,00 %
17.10.2018 00:48 13,9 C 0,0 C 71 % 1020,0 hPa 0,0 l/m 0,0 km/h (0 Bft) O-NO 57 0,000 mm 0,0 UV-I 0 W/m 8,7 C 13,9 C 0,0 km/h (0 Bft) 100,00 %
17.10.2018 00:47 13,9 C 0,0 C 72 % 1020,0 hPa 0,0 l/m 0,0 km/h (0 Bft) O-NO 57 0,000 mm 0,0 UV-I 0 W/m 8,9 C 13,9 C 0,0 km/h (0 Bft) 100,00 %
17.10.2018 00:46 14,0 C 0,0 C 72 % 1020,0 hPa 0,0 l/m 0,0 km/h (0 Bft) O-NO 57 0,000 mm 0,0 UV-I 0 W/m 9,0 C 14,0 C 0,0 km/h (0 Bft) 100,00 %
17.10.2018 00:45 13,9 C 0,0 C 71 % 1020,1 hPa 0,0 l/m 0,0 km/h (0 Bft) O-NO 59 0,000 mm 0,0 UV-I 0 W/m 8,7 C 13,9 C 0,0 km/h (0 Bft) 100,00 %
17.10.2018 00:44 14,0 C 0,0 C 71 % 1020,1 hPa 0,0 l/m 0,0 km/h (0 Bft) O-NO 59 0,000 mm 0,0 UV-I 0 W/m 8,8 C 14,0 C 0,0 km/h (0 Bft) 100,00 %
17.10.2018 00:43 14,0 C 0,0 C 72 % 1020,0 hPa 0,0 l/m 0,0 km/h (0 Bft) O-NO 62 0,000 mm 0,0 UV-I 0 W/m 9,0 C 14,0 C 0,0 km/h (0 Bft) 100,00 %
17.10.2018 00:42 14,0 C 0,0 C 72 % 1020,0 hPa 0,0 l/m 0,0 km/h (0 Bft) O-NO 62 0,000 mm 0,0 UV-I 0 W/m 9,0 C 14,0 C 0,0 km/h (0 Bft) 100,00 %
17.10.2018 00:41 14,0 C 0,0 C 72 % 1020,0 hPa 0,0 l/m 0,0 km/h (0 Bft) O-NO 62 0,000 mm 0,0 UV-I 0 W/m 9,0 C 14,0 C 0,0 km/h (0 Bft) 100,00 %
17.10.2018 00:40 14,0 C 0,0 C 72 % 1020,0 hPa 0,0 l/m 0,1 km/h (0 Bft) O-NO 62 0,000 mm 0,0 UV-I 0 W/m 9,0 C 14,0 C 1,6 km/h (1 Bft) 95,65 %
17.10.2018 00:39 14,0 C 0,0 C 72 % 1020,0 hPa 0,0 l/m 0,8 km/h (0 Bft) O-NO 62 0,000 mm 0,0 UV-I 0 W/m 9,0 C 14,0 C 1,6 km/h (1 Bft) 96,15 %
17.10.2018 00:38 14,0 C 0,0 C 72 % 1020,0 hPa 0,0 l/m 0,0 km/h (0 Bft) O-NO 62 0,000 mm 0,0 UV-I 0 W/m 9,0 C 14,0 C 0,0 km/h (0 Bft) 100,00 %
17.10.2018 00:37 14,1 C 0,0 C 72 % 1020,1 hPa 0,0 l/m 0,0 km/h (0 Bft) O-NO 62 0,000 mm 0,0 UV-I 0 W/m 9,1 C 14,1 C 0,0 km/h (0 Bft) 95,65 %
17.10.2018 00:36 14,1 C 0,0 C 72 % 1020,0 hPa 0,0 l/m 0,0 km/h (0 Bft) O-NO 62 0,000 mm 0,0 UV-I 0 W/m 9,1 C 14,1 C 0,0 km/h (0 Bft) 100,00 %
17.10.2018 00:35 14,1 C 0,0 C 72 % 1020,1 hPa 0,0 l/m 0,0 km/h (0 Bft) O-NO 62 0,000 mm 0,0 UV-I 0 W/m 9,1 C 14,1 C 0,0 km/h (0 Bft) 100,00 %
17.10.2018 00:34 14,2 C 0,0 C 72 % 1020,1 hPa 0,0 l/m 0,0 km/h (0 Bft) O-NO 62 0,000 mm 0,0 UV-I 0 W/m 9,2 C 14,2 C 0,0 km/h (0 Bft) 95,65 %
17.10.2018 00:33 14,3 C 0,0 C 72 % 1020,0 hPa 0,0 l/m 0,0 km/h (0 Bft) O-NO 62 0,000 mm 0,0 UV-I 0 W/m 9,3 C 14,3 C 0,0 km/h (0 Bft) 97,87 %
17.10.2018 00:30 14,4 C 0,0 C 71 % 1020,1 hPa 0,0 l/m 0,0 km/h (0 Bft) O-NO 62 0,000 mm 0,0 UV-I 0 W/m 9,2 C 14,4 C 0,0 km/h (0 Bft) 97,47 %
17.10.2018 00:29 14,5 C 0,0 C 71 % 1020,1 hPa 0,0 l/m 0,0 km/h (0 Bft) O-NO 62 0,000 mm 0,0 UV-I 0 W/m 9,3 C 14,5 C 0,0 km/h (0 Bft) 95,83 %
17.10.2018 00:28 14,5 C 0,0 C 71 % 1020,0 hPa 0,0 l/m 0,0 km/h (0 Bft) O-NO 62 0,000 mm 0,0 UV-I 0 W/m 9,3 C 14,5 C 0,0 km/h (0 Bft) 100,00 %
17.10.2018 00:27 14,6 C 0,0 C 71 % 1020,0 hPa 0,0 l/m 0,0 km/h (0 Bft) O-NO 62 0,000 mm 0,0 UV-I 0 W/m 9,4 C 14,6 C 0,0 km/h (0 Bft) 95,65 %
17.10.2018 00:26 14,6 C 0,0 C 71 % 1020,0 hPa 0,0 l/m 0,0 km/h (0 Bft) O-NO 62 0,000 mm 0,0 UV-I 0 W/m 9,4 C 14,6 C 0,0 km/h (0 Bft) 100,00 %
17.10.2018 00:25 14,6 C 0,0 C 71 % 1020,0 hPa 0,0 l/m 0,0 km/h (0 Bft) O-NO 62 0,000 mm 0,0 UV-I 0 W/m 9,4 C 14,6 C 0,0 km/h (0 Bft) 95,65 %
17.10.2018 00:24 14,6 C 0,0 C 71 % 1020,0 hPa 0,0 l/m 0,0 km/h (0 Bft) O-NO 62 0,000 mm 0,0 UV-I 0 W/m 9,4 C 14,6 C 0,0 km/h (0 Bft) 100,00 %
17.10.2018 00:23 14,6 C 0,0 C 71 % 1020,0 hPa 0,0 l/m 0,0 km/h (0 Bft) O-NO 62 0,000 mm 0,0 UV-I 0 W/m 9,4 C 14,6 C 0,0 km/h (0 Bft) 95,65 %
17.10.2018 00:22 14,5 C 0,0 C 71 % 1020,0 hPa 0,0 l/m 0,0 km/h (0 Bft) O-NO 62 0,000 mm 0,0 UV-I 0 W/m 9,3 C 14,5 C 0,0 km/h (0 Bft) 95,65 %
17.10.2018 00:21 14,5 C 0,0 C 71 % 1020,0 hPa 0,0 l/m 0,0 km/h (0 Bft) O-NO 62 0,000 mm 0,0 UV-I 0 W/m 9,3 C 14,5 C 0,0 km/h (0 Bft) 100,00 %
17.10.2018 00:20 14,5 C 0,0 C 71 % 1020,0 hPa 0,0 l/m 0,0 km/h (0 Bft) O-NO 62 0,000 mm 0,0 UV-I 0 W/m 9,3 C 14,5 C 0,0 km/h (0 Bft) 95,65 %
17.10.2018 00:19 14,4 C 0,0 C 71 % 1020,0 hPa 0,0 l/m 0,0 km/h (0 Bft) O-NO 62 0,000 mm 0,0 UV-I 0 W/m 9,2 C 14,4 C 0,0 km/h (0 Bft) 100,00 %
17.10.2018 00:18 14,4 C 0,0 C 71 % 1020,0 hPa 0,0 l/m 0,0 km/h (0 Bft) O-NO 62 0,000 mm 0,0 UV-I 0 W/m 9,2 C 14,4 C 0,0 km/h (0 Bft) 95,65 %
17.10.2018 00:17 14,4 C 0,0 C 71 % 1020,0 hPa 0,0 l/m 0,0 km/h (0 Bft) O-NO 62 0,000 mm 0,0 UV-I 0 W/m 9,2 C 14,4 C 0,0 km/h (0 Bft) 100,00 %
17.10.2018 00:16 14,4 C 0,0 C 71 % 1020,0 hPa 0,0 l/m 0,0 km/h (0 Bft) O-NO 62 0,000 mm 0,0 UV-I 0 W/m 9,2 C 14,4 C 0,0 km/h (0 Bft) 95,65 %
17.10.2018 00:15 14,4 C 0,0 C 71 % 1020,0 hPa 0,0 l/m 0,0 km/h (0 Bft) O-NO 62 0,000 mm 0,0 UV-I 0 W/m 9,2 C 14,4 C 0,0 km/h (0 Bft) 97,30 %
17.10.2018 00:12 14,4 C 0,0 C 71 % 1020,0 hPa 0,0 l/m 0,8 km/h (0 Bft) O-NO 62 0,000 mm 0,0 UV-I 0 W/m 9,2 C 14,4 C 1,6 km/h (1 Bft) 100,00 %
17.10.2018 00:11 14,4 C 0,0 C 71 % 1020,0 hPa 0,0 l/m 0,8 km/h (0 Bft) O-NO 62 0,000 mm 0,0 UV-I 0 W/m 9,2 C 14,4 C 3,2 km/h (1 Bft) 91,30 %
17.10.2018 00:10 14,4 C 0,0 C 71 % 1020,0 hPa 0,0 l/m 0,3 km/h (0 Bft) O-NO 62 0,000 mm 0,0 UV-I 0 W/m 9,2 C 14,4 C 1,6 km/h (1 Bft) 95,65 %
17.10.2018 00:09 14,4 C 0,0 C 71 % 1020,0 hPa 0,0 l/m 0,1 km/h (0 Bft) O-NO 62 0,000 mm 0,0 UV-I 0 W/m 9,2 C 14,4 C 1,6 km/h (1 Bft) 100,00 %
17.10.2018 00:08 14,4 C 0,0 C 71 % 1020,0 hPa 0,0 l/m 0,3 km/h (0 Bft) O-NO 62 0,000 mm 0,0 UV-I 0 W/m 9,2 C 14,4 C 1,6 km/h (1 Bft) 100,00 %
17.10.2018 00:07 14,3 C 0,0 C 71 % 1020,0 hPa 0,0 l/m 1,4 km/h (1 Bft) O-NO 62 0,000 mm 0,0 UV-I 0 W/m 9,1 C 14,3 C 3,2 km/h (1 Bft) 95,83 %
17.10.2018 00:06 14,3 C 0,0 C 71 % 1020,1 hPa 0,0 l/m 1,3 km/h (1 Bft) O-NO 62 0,000 mm 0,0 UV-I 0 W/m 9,1 C 14,3 C 3,2 km/h (1 Bft) 95,65 %
17.10.2018 00:05 14,3 C 0,0 C 71 % 1020,0 hPa 0,0 l/m 1,0 km/h (0 Bft) O-NO 62 0,000 mm 0,0 UV-I 0 W/m 9,1 C 14,3 C 3,2 km/h (1 Bft) 100,00 %
17.10.2018 00:04 14,4 C 0,0 C 71 % 1020,0 hPa 0,0 l/m 0,8 km/h (0 Bft) O-NO 62 0,000 mm 0,0 UV-I 0 W/m 9,2 C 14,4 C 3,2 km/h (1 Bft) 95,83 %
17.10.2018 00:03 14,4 C 0,0 C 71 % 1020,0 hPa 0,0 l/m 1,4 km/h (1 Bft) O-NO 62 0,000 mm 0,0 UV-I 0 W/m 9,2 C 14,4 C 3,2 km/h (1 Bft) 100,00 %
17.10.2018 00:02 14,4 C 0,0 C 70 % 1020,1 hPa 0,0 l/m 1,9 km/h (1 Bft) O-NO 62 0,000 mm 0,0 UV-I 0 W/m 9,0 C 14,4 C 3,2 km/h (1 Bft) 95,65 %
17.10.2018 00:01 14,4 C 0,0 C 70 % 1020,0 hPa 0,0 l/m 4,0 km/h (1 Bft) O-NO 57 0,000 mm 0,0 UV-I 0 W/m 9,0 C 14,4 C 4,8 km/h (1 Bft) 100,00 %
17.10.2018 00:00 14,4 C 0,0 C 70 % 1020,0 hPa 0,0 l/m 3,3 km/h (1 Bft) O-NO 59 0,000 mm 0,0 UV-I 0 W/m 9,0 C 14,4 C 4,8 km/h (1 Bft) 100,00 %
_ Min-Zeit 06:17 00:00 14:56 15:56 - 00:15 - - - - - 07:25 06:17 00:15 14:44
Minimum _ 11,0 C 0,0 C 69 % 1019,0 hPa - 0,0 km/h (0 Bft) - - - - - 7,8 C 11,0 C 0,0 km/h (0 Bft) 58,33 %
_ Max-Zeit 14:21 00:00 10:23 09:27 00:00 12:53 - - 13:00 12:10 12:20 14:35 14:21 12:11 00:00
Maximum _ 17,4 C 0,0 C 84 % 1020,8 hPa 0,0 l/m 12,0 km/h
O-SO (2 Bft)
- - 0,305 mm 1,9 UV-I 550 W/m 13,0 C 17,4 C 16,1 km/h
O-SO (3 Bft)
100,00 %
Durchschnitt _ 13,8 C 0,0 C 75 % 1020,0 hPa #0,0 l/m 2,4 km/h (1 Bft) O - #1,778 mm 1,4 UV-I 370 W/m 9,6 C 13,7 C 3,7 km/h (1 Bft) 98,11 %